<?xml version="1.0" encoding="UTF-8" standalone="no" ?>
<gpx xmlns="http://www.topografix.com/GPX/1/1" xmlns:xsi="http://www.w3.org/2001/XMLSchema-instance" xsi:schemaLocation="http://www.topografix.com/GPX/1/1 http://www.topografix.com/GPX/1/1/gpx.xsd" version="1.1" creator="VisuGPX - https://www.visugpx.com">
  <metadata>
    <name>La Torfousienne 2014</name>
    <desc><![CDATA[Une super matinée, bonne organisation, et un beau soleil!

Avec la particpation De Souch, Crevet, Boubout et Galette]]></desc>
  </metadata>
  <trk>
    <name><![CDATA[Tracé 30 nov. 2014 08:51:02]]></name>
    <trkseg>
      <trkpt lat="47.03675" lon="-1.11743">
        <ele>173</ele>
        <time>2014-11-30T07:51:02Z</time>
      </trkpt>
      <trkpt lat="47.03671" lon="-1.11745">
        <ele>172</ele>
        <time>2014-11-30T07:51:43Z</time>
      </trkpt>
      <trkpt lat="47.03628" lon="-1.11756">
        <ele>163</ele>
        <time>2014-11-30T07:51:48Z</time>
      </trkpt>
      <trkpt lat="47.03634" lon="-1.11741">
        <ele>161</ele>
        <time>2014-11-30T07:51:53Z</time>
      </trkpt>
      <trkpt lat="47.03625" lon="-1.1174">
        <ele>156</ele>
        <time>2014-11-30T07:52:01Z</time>
      </trkpt>
      <trkpt lat="47.0362" lon="-1.1173">
        <ele>145</ele>
        <time>2014-11-30T07:53:23Z</time>
      </trkpt>
      <trkpt lat="47.03629" lon="-1.11715">
        <ele>153</ele>
        <time>2014-11-30T07:53:28Z</time>
      </trkpt>
      <trkpt lat="47.03621" lon="-1.11714">
        <ele>131</ele>
        <time>2014-11-30T07:53:36Z</time>
      </trkpt>
      <trkpt lat="47.03629" lon="-1.11715">
        <ele>114</ele>
        <time>2014-11-30T07:53:49Z</time>
      </trkpt>
      <trkpt lat="47.03637" lon="-1.11713">
        <ele>112</ele>
        <time>2014-11-30T07:53:53Z</time>
      </trkpt>
      <trkpt lat="47.03647" lon="-1.11712">
        <ele>111</ele>
        <time>2014-11-30T07:53:57Z</time>
      </trkpt>
      <trkpt lat="47.03656" lon="-1.11706">
        <ele>110</ele>
        <time>2014-11-30T07:54:01Z</time>
      </trkpt>
      <trkpt lat="47.03664" lon="-1.11695">
        <ele>109</ele>
        <time>2014-11-30T07:54:05Z</time>
      </trkpt>
      <trkpt lat="47.03668" lon="-1.11681">
        <ele>108</ele>
        <time>2014-11-30T07:54:09Z</time>
      </trkpt>
      <trkpt lat="47.03673" lon="-1.11668">
        <ele>108</ele>
        <time>2014-11-30T07:54:13Z</time>
      </trkpt>
      <trkpt lat="47.03677" lon="-1.11657">
        <ele>108</ele>
        <time>2014-11-30T07:54:18Z</time>
      </trkpt>
      <trkpt lat="47.0368" lon="-1.11647">
        <ele>108</ele>
        <time>2014-11-30T07:54:22Z</time>
      </trkpt>
      <trkpt lat="47.0368" lon="-1.11635">
        <ele>107</ele>
        <time>2014-11-30T07:54:27Z</time>
      </trkpt>
      <trkpt lat="47.03686" lon="-1.11626">
        <ele>107</ele>
        <time>2014-11-30T07:54:34Z</time>
      </trkpt>
      <trkpt lat="47.03694" lon="-1.11619">
        <ele>106</ele>
        <time>2014-11-30T07:54:39Z</time>
      </trkpt>
      <trkpt lat="47.037" lon="-1.11609">
        <ele>106</ele>
        <time>2014-11-30T07:54:44Z</time>
      </trkpt>
      <trkpt lat="47.03707" lon="-1.11601">
        <ele>106</ele>
        <time>2014-11-30T07:54:49Z</time>
      </trkpt>
      <trkpt lat="47.03712" lon="-1.11589">
        <ele>105</ele>
        <time>2014-11-30T07:54:54Z</time>
      </trkpt>
      <trkpt lat="47.03716" lon="-1.11579">
        <ele>105</ele>
        <time>2014-11-30T07:54:58Z</time>
      </trkpt>
      <trkpt lat="47.03722" lon="-1.11566">
        <ele>105</ele>
        <time>2014-11-30T07:55:03Z</time>
      </trkpt>
      <trkpt lat="47.03728" lon="-1.11552">
        <ele>105</ele>
        <time>2014-11-30T07:55:08Z</time>
      </trkpt>
      <trkpt lat="47.03732" lon="-1.11541">
        <ele>105</ele>
        <time>2014-11-30T07:55:12Z</time>
      </trkpt>
      <trkpt lat="47.03738" lon="-1.11529">
        <ele>105</ele>
        <time>2014-11-30T07:55:17Z</time>
      </trkpt>
      <trkpt lat="47.03743" lon="-1.11519">
        <ele>105</ele>
        <time>2014-11-30T07:55:22Z</time>
      </trkpt>
      <trkpt lat="47.03744" lon="-1.11508">
        <ele>106</ele>
        <time>2014-11-30T07:55:27Z</time>
      </trkpt>
      <trkpt lat="47.03747" lon="-1.11495">
        <ele>105</ele>
        <time>2014-11-30T07:55:32Z</time>
      </trkpt>
      <trkpt lat="47.0375" lon="-1.1148">
        <ele>105</ele>
        <time>2014-11-30T07:55:36Z</time>
      </trkpt>
      <trkpt lat="47.03748" lon="-1.11467">
        <ele>104</ele>
        <time>2014-11-30T07:55:41Z</time>
      </trkpt>
      <trkpt lat="47.03745" lon="-1.11457">
        <ele>103</ele>
        <time>2014-11-30T07:55:47Z</time>
      </trkpt>
      <trkpt lat="47.03743" lon="-1.11445">
        <ele>104</ele>
        <time>2014-11-30T07:55:53Z</time>
      </trkpt>
      <trkpt lat="47.0374" lon="-1.11432">
        <ele>106</ele>
        <time>2014-11-30T07:56:00Z</time>
      </trkpt>
      <trkpt lat="47.03736" lon="-1.11422">
        <ele>106</ele>
        <time>2014-11-30T07:56:07Z</time>
      </trkpt>
      <trkpt lat="47.03729" lon="-1.11413">
        <ele>106</ele>
        <time>2014-11-30T07:56:15Z</time>
      </trkpt>
      <trkpt lat="47.03728" lon="-1.11425">
        <ele>106</ele>
        <time>2014-11-30T07:59:31Z</time>
      </trkpt>
      <trkpt lat="47.03729" lon="-1.11432">
        <ele>105</ele>
        <time>2014-11-30T07:59:35Z</time>
      </trkpt>
      <trkpt lat="47.03749" lon="-1.11501">
        <ele>105</ele>
        <time>2014-11-30T07:59:52Z</time>
      </trkpt>
      <trkpt lat="47.03753" lon="-1.11519">
        <ele>102</ele>
        <time>2014-11-30T07:59:57Z</time>
      </trkpt>
      <trkpt lat="47.03745" lon="-1.11539">
        <ele>104</ele>
        <time>2014-11-30T08:00:02Z</time>
      </trkpt>
      <trkpt lat="47.03733" lon="-1.11559">
        <ele>105</ele>
        <time>2014-11-30T08:00:07Z</time>
      </trkpt>
      <trkpt lat="47.03727" lon="-1.11573">
        <ele>105</ele>
        <time>2014-11-30T08:00:11Z</time>
      </trkpt>
      <trkpt lat="47.0372" lon="-1.11588">
        <ele>106</ele>
        <time>2014-11-30T08:00:16Z</time>
      </trkpt>
      <trkpt lat="47.03714" lon="-1.11601">
        <ele>107</ele>
        <time>2014-11-30T08:00:20Z</time>
      </trkpt>
      <trkpt lat="47.03706" lon="-1.11614">
        <ele>107</ele>
        <time>2014-11-30T08:00:25Z</time>
      </trkpt>
      <trkpt lat="47.03696" lon="-1.11627">
        <ele>107</ele>
        <time>2014-11-30T08:00:30Z</time>
      </trkpt>
      <trkpt lat="47.03685" lon="-1.11634">
        <ele>106</ele>
        <time>2014-11-30T08:00:34Z</time>
      </trkpt>
      <trkpt lat="47.03673" lon="-1.11633">
        <ele>105</ele>
        <time>2014-11-30T08:00:38Z</time>
      </trkpt>
      <trkpt lat="47.03656" lon="-1.11631">
        <ele>106</ele>
        <time>2014-11-30T08:00:43Z</time>
      </trkpt>
      <trkpt lat="47.03642" lon="-1.11628">
        <ele>105</ele>
        <time>2014-11-30T08:00:47Z</time>
      </trkpt>
      <trkpt lat="47.03628" lon="-1.11626">
        <ele>106</ele>
        <time>2014-11-30T08:00:51Z</time>
      </trkpt>
      <trkpt lat="47.03611" lon="-1.11623">
        <ele>107</ele>
        <time>2014-11-30T08:00:56Z</time>
      </trkpt>
      <trkpt lat="47.03597" lon="-1.11621">
        <ele>106</ele>
        <time>2014-11-30T08:01:00Z</time>
      </trkpt>
      <trkpt lat="47.0358" lon="-1.11617">
        <ele>106</ele>
        <time>2014-11-30T08:01:05Z</time>
      </trkpt>
      <trkpt lat="47.03568" lon="-1.11618">
        <ele>107</ele>
        <time>2014-11-30T08:01:09Z</time>
      </trkpt>
      <trkpt lat="47.03552" lon="-1.11623">
        <ele>107</ele>
        <time>2014-11-30T08:01:14Z</time>
      </trkpt>
      <trkpt lat="47.03537" lon="-1.11629">
        <ele>107</ele>
        <time>2014-11-30T08:01:18Z</time>
      </trkpt>
      <trkpt lat="47.03522" lon="-1.11635">
        <ele>106</ele>
        <time>2014-11-30T08:01:22Z</time>
      </trkpt>
      <trkpt lat="47.03508" lon="-1.11643">
        <ele>106</ele>
        <time>2014-11-30T08:01:26Z</time>
      </trkpt>
      <trkpt lat="47.03493" lon="-1.1165">
        <ele>105</ele>
        <time>2014-11-30T08:01:30Z</time>
      </trkpt>
      <trkpt lat="47.03478" lon="-1.1166">
        <ele>105</ele>
        <time>2014-11-30T08:01:34Z</time>
      </trkpt>
      <trkpt lat="47.03463" lon="-1.1167">
        <ele>105</ele>
        <time>2014-11-30T08:01:38Z</time>
      </trkpt>
      <trkpt lat="47.03447" lon="-1.11682">
        <ele>105</ele>
        <time>2014-11-30T08:01:42Z</time>
      </trkpt>
      <trkpt lat="47.0343" lon="-1.11695">
        <ele>104</ele>
        <time>2014-11-30T08:01:46Z</time>
      </trkpt>
      <trkpt lat="47.03413" lon="-1.11707">
        <ele>104</ele>
        <time>2014-11-30T08:01:50Z</time>
      </trkpt>
      <trkpt lat="47.03393" lon="-1.1172">
        <ele>102</ele>
        <time>2014-11-30T08:01:54Z</time>
      </trkpt>
      <trkpt lat="47.03372" lon="-1.11731">
        <ele>102</ele>
        <time>2014-11-30T08:01:58Z</time>
      </trkpt>
      <trkpt lat="47.03351" lon="-1.11741">
        <ele>101</ele>
        <time>2014-11-30T08:02:02Z</time>
      </trkpt>
      <trkpt lat="47.0333" lon="-1.11752">
        <ele>100</ele>
        <time>2014-11-30T08:02:06Z</time>
      </trkpt>
      <trkpt lat="47.03308" lon="-1.11761">
        <ele>99</ele>
        <time>2014-11-30T08:02:10Z</time>
      </trkpt>
      <trkpt lat="47.03287" lon="-1.11767">
        <ele>99</ele>
        <time>2014-11-30T08:02:14Z</time>
      </trkpt>
      <trkpt lat="47.03257" lon="-1.11758">
        <ele>97</ele>
        <time>2014-11-30T08:02:19Z</time>
      </trkpt>
      <trkpt lat="47.0323" lon="-1.11749">
        <ele>96</ele>
        <time>2014-11-30T08:02:23Z</time>
      </trkpt>
      <trkpt lat="47.03201" lon="-1.11737">
        <ele>95</ele>
        <time>2014-11-30T08:02:27Z</time>
      </trkpt>
      <trkpt lat="47.03164" lon="-1.11711">
        <ele>91</ele>
        <time>2014-11-30T08:02:32Z</time>
      </trkpt>
      <trkpt lat="47.03131" lon="-1.11692">
        <ele>88</ele>
        <time>2014-11-30T08:02:36Z</time>
      </trkpt>
      <trkpt lat="47.03086" lon="-1.11686">
        <ele>86</ele>
        <time>2014-11-30T08:02:41Z</time>
      </trkpt>
      <trkpt lat="47.0305" lon="-1.11682">
        <ele>84</ele>
        <time>2014-11-30T08:02:45Z</time>
      </trkpt>
      <trkpt lat="47.03012" lon="-1.11679">
        <ele>82</ele>
        <time>2014-11-30T08:02:49Z</time>
      </trkpt>
      <trkpt lat="47.02969" lon="-1.1168">
        <ele>84</ele>
        <time>2014-11-30T08:02:54Z</time>
      </trkpt>
      <trkpt lat="47.0294" lon="-1.11681">
        <ele>86</ele>
        <time>2014-11-30T08:02:58Z</time>
      </trkpt>
      <trkpt lat="47.02907" lon="-1.11682">
        <ele>88</ele>
        <time>2014-11-30T08:03:03Z</time>
      </trkpt>
      <trkpt lat="47.02883" lon="-1.11682">
        <ele>89</ele>
        <time>2014-11-30T08:03:07Z</time>
      </trkpt>
      <trkpt lat="47.02859" lon="-1.11682">
        <ele>90</ele>
        <time>2014-11-30T08:03:11Z</time>
      </trkpt>
      <trkpt lat="47.02835" lon="-1.11683">
        <ele>90</ele>
        <time>2014-11-30T08:03:15Z</time>
      </trkpt>
      <trkpt lat="47.02812" lon="-1.11688">
        <ele>90</ele>
        <time>2014-11-30T08:03:19Z</time>
      </trkpt>
      <trkpt lat="47.02788" lon="-1.11694">
        <ele>91</ele>
        <time>2014-11-30T08:03:23Z</time>
      </trkpt>
      <trkpt lat="47.02766" lon="-1.117">
        <ele>92</ele>
        <time>2014-11-30T08:03:27Z</time>
      </trkpt>
      <trkpt lat="47.02738" lon="-1.11707">
        <ele>92</ele>
        <time>2014-11-30T08:03:32Z</time>
      </trkpt>
      <trkpt lat="47.02718" lon="-1.11712">
        <ele>92</ele>
        <time>2014-11-30T08:03:36Z</time>
      </trkpt>
      <trkpt lat="47.02694" lon="-1.11717">
        <ele>91</ele>
        <time>2014-11-30T08:03:41Z</time>
      </trkpt>
      <trkpt lat="47.02675" lon="-1.11718">
        <ele>91</ele>
        <time>2014-11-30T08:03:45Z</time>
      </trkpt>
      <trkpt lat="47.02651" lon="-1.11714">
        <ele>91</ele>
        <time>2014-11-30T08:03:50Z</time>
      </trkpt>
      <trkpt lat="47.0263" lon="-1.11714">
        <ele>92</ele>
        <time>2014-11-30T08:03:55Z</time>
      </trkpt>
      <trkpt lat="47.02614" lon="-1.11713">
        <ele>92</ele>
        <time>2014-11-30T08:03:59Z</time>
      </trkpt>
      <trkpt lat="47.02598" lon="-1.11713">
        <ele>92</ele>
        <time>2014-11-30T08:04:03Z</time>
      </trkpt>
      <trkpt lat="47.02584" lon="-1.11713">
        <ele>93</ele>
        <time>2014-11-30T08:04:07Z</time>
      </trkpt>
      <trkpt lat="47.02567" lon="-1.11713">
        <ele>94</ele>
        <time>2014-11-30T08:04:12Z</time>
      </trkpt>
      <trkpt lat="47.02553" lon="-1.11713">
        <ele>93</ele>
        <time>2014-11-30T08:04:16Z</time>
      </trkpt>
      <trkpt lat="47.02537" lon="-1.11713">
        <ele>92</ele>
        <time>2014-11-30T08:04:20Z</time>
      </trkpt>
      <trkpt lat="47.0252" lon="-1.11716">
        <ele>92</ele>
        <time>2014-11-30T08:04:24Z</time>
      </trkpt>
      <trkpt lat="47.02502" lon="-1.11719">
        <ele>91</ele>
        <time>2014-11-30T08:04:28Z</time>
      </trkpt>
      <trkpt lat="47.02476" lon="-1.1173">
        <ele>89</ele>
        <time>2014-11-30T08:04:33Z</time>
      </trkpt>
      <trkpt lat="47.02446" lon="-1.11745">
        <ele>87</ele>
        <time>2014-11-30T08:04:37Z</time>
      </trkpt>
      <trkpt lat="47.02401" lon="-1.11741">
        <ele>81</ele>
        <time>2014-11-30T08:04:42Z</time>
      </trkpt>
      <trkpt lat="47.0236" lon="-1.11742">
        <ele>76</ele>
        <time>2014-11-30T08:04:46Z</time>
      </trkpt>
      <trkpt lat="47.02317" lon="-1.11743">
        <ele>71</ele>
        <time>2014-11-30T08:04:50Z</time>
      </trkpt>
      <trkpt lat="47.02274" lon="-1.11752">
        <ele>68</ele>
        <time>2014-11-30T08:04:54Z</time>
      </trkpt>
      <trkpt lat="47.02234" lon="-1.11763">
        <ele>66</ele>
        <time>2014-11-30T08:04:58Z</time>
      </trkpt>
      <trkpt lat="47.02203" lon="-1.11764">
        <ele>63</ele>
        <time>2014-11-30T08:05:02Z</time>
      </trkpt>
      <trkpt lat="47.02171" lon="-1.11747">
        <ele>60</ele>
        <time>2014-11-30T08:05:06Z</time>
      </trkpt>
      <trkpt lat="47.02141" lon="-1.11719">
        <ele>57</ele>
        <time>2014-11-30T08:05:10Z</time>
      </trkpt>
      <trkpt lat="47.02112" lon="-1.11694">
        <ele>53</ele>
        <time>2014-11-30T08:05:14Z</time>
      </trkpt>
      <trkpt lat="47.02094" lon="-1.11678">
        <ele>51</ele>
        <time>2014-11-30T08:05:18Z</time>
      </trkpt>
      <trkpt lat="47.0209" lon="-1.11687">
        <ele>50</ele>
        <time>2014-11-30T08:05:25Z</time>
      </trkpt>
      <trkpt lat="47.02093" lon="-1.11707">
        <ele>49</ele>
        <time>2014-11-30T08:05:30Z</time>
      </trkpt>
      <trkpt lat="47.02095" lon="-1.11726">
        <ele>49</ele>
        <time>2014-11-30T08:05:34Z</time>
      </trkpt>
      <trkpt lat="47.02096" lon="-1.11749">
        <ele>52</ele>
        <time>2014-11-30T08:05:38Z</time>
      </trkpt>
      <trkpt lat="47.02098" lon="-1.11771">
        <ele>52</ele>
        <time>2014-11-30T08:05:42Z</time>
      </trkpt>
      <trkpt lat="47.02101" lon="-1.11788">
        <ele>51</ele>
        <time>2014-11-30T08:05:46Z</time>
      </trkpt>
      <trkpt lat="47.02107" lon="-1.11809">
        <ele>51</ele>
        <time>2014-11-30T08:05:51Z</time>
      </trkpt>
      <trkpt lat="47.02114" lon="-1.11824">
        <ele>50</ele>
        <time>2014-11-30T08:05:55Z</time>
      </trkpt>
      <trkpt lat="47.02123" lon="-1.1184">
        <ele>51</ele>
        <time>2014-11-30T08:05:59Z</time>
      </trkpt>
      <trkpt lat="47.02134" lon="-1.11859">
        <ele>52</ele>
        <time>2014-11-30T08:06:03Z</time>
      </trkpt>
      <trkpt lat="47.02142" lon="-1.11885">
        <ele>51</ele>
        <time>2014-11-30T08:06:07Z</time>
      </trkpt>
      <trkpt lat="47.02147" lon="-1.11913">
        <ele>46</ele>
        <time>2014-11-30T08:06:11Z</time>
      </trkpt>
      <trkpt lat="47.0215" lon="-1.1194">
        <ele>47</ele>
        <time>2014-11-30T08:06:15Z</time>
      </trkpt>
      <trkpt lat="47.02154" lon="-1.11968">
        <ele>48</ele>
        <time>2014-11-30T08:06:19Z</time>
      </trkpt>
      <trkpt lat="47.02159" lon="-1.11996">
        <ele>48</ele>
        <time>2014-11-30T08:06:23Z</time>
      </trkpt>
      <trkpt lat="47.02163" lon="-1.12023">
        <ele>49</ele>
        <time>2014-11-30T08:06:27Z</time>
      </trkpt>
      <trkpt lat="47.02165" lon="-1.12051">
        <ele>49</ele>
        <time>2014-11-30T08:06:31Z</time>
      </trkpt>
      <trkpt lat="47.02167" lon="-1.12079">
        <ele>49</ele>
        <time>2014-11-30T08:06:35Z</time>
      </trkpt>
      <trkpt lat="47.02174" lon="-1.1211">
        <ele>50</ele>
        <time>2014-11-30T08:06:40Z</time>
      </trkpt>
      <trkpt lat="47.02176" lon="-1.12137">
        <ele>51</ele>
        <time>2014-11-30T08:06:44Z</time>
      </trkpt>
      <trkpt lat="47.0218" lon="-1.12165">
        <ele>51</ele>
        <time>2014-11-30T08:06:48Z</time>
      </trkpt>
      <trkpt lat="47.02184" lon="-1.12197">
        <ele>52</ele>
        <time>2014-11-30T08:06:53Z</time>
      </trkpt>
      <trkpt lat="47.02189" lon="-1.12228">
        <ele>53</ele>
        <time>2014-11-30T08:06:58Z</time>
      </trkpt>
      <trkpt lat="47.02194" lon="-1.12253">
        <ele>52</ele>
        <time>2014-11-30T08:07:02Z</time>
      </trkpt>
      <trkpt lat="47.02197" lon="-1.12278">
        <ele>51</ele>
        <time>2014-11-30T08:07:06Z</time>
      </trkpt>
      <trkpt lat="47.02199" lon="-1.12303">
        <ele>51</ele>
        <time>2014-11-30T08:07:10Z</time>
      </trkpt>
      <trkpt lat="47.02201" lon="-1.12334">
        <ele>49</ele>
        <time>2014-11-30T08:07:15Z</time>
      </trkpt>
      <trkpt lat="47.02202" lon="-1.12358">
        <ele>48</ele>
        <time>2014-11-30T08:07:19Z</time>
      </trkpt>
      <trkpt lat="47.02201" lon="-1.12382">
        <ele>49</ele>
        <time>2014-11-30T08:07:23Z</time>
      </trkpt>
      <trkpt lat="47.02201" lon="-1.12411">
        <ele>51</ele>
        <time>2014-11-30T08:07:28Z</time>
      </trkpt>
      <trkpt lat="47.02202" lon="-1.12438">
        <ele>49</ele>
        <time>2014-11-30T08:07:33Z</time>
      </trkpt>
      <trkpt lat="47.02207" lon="-1.12465">
        <ele>48</ele>
        <time>2014-11-30T08:07:38Z</time>
      </trkpt>
      <trkpt lat="47.02215" lon="-1.12493">
        <ele>49</ele>
        <time>2014-11-30T08:07:43Z</time>
      </trkpt>
      <trkpt lat="47.02222" lon="-1.12515">
        <ele>47</ele>
        <time>2014-11-30T08:07:47Z</time>
      </trkpt>
      <trkpt lat="47.02228" lon="-1.12539">
        <ele>48</ele>
        <time>2014-11-30T08:07:51Z</time>
      </trkpt>
      <trkpt lat="47.02232" lon="-1.12563">
        <ele>49</ele>
        <time>2014-11-30T08:07:55Z</time>
      </trkpt>
      <trkpt lat="47.02236" lon="-1.12586">
        <ele>49</ele>
        <time>2014-11-30T08:07:59Z</time>
      </trkpt>
      <trkpt lat="47.02247" lon="-1.12615">
        <ele>48</ele>
        <time>2014-11-30T08:08:04Z</time>
      </trkpt>
      <trkpt lat="47.02259" lon="-1.12646">
        <ele>48</ele>
        <time>2014-11-30T08:08:09Z</time>
      </trkpt>
      <trkpt lat="47.02281" lon="-1.12679">
        <ele>51</ele>
        <time>2014-11-30T08:08:14Z</time>
      </trkpt>
      <trkpt lat="47.02303" lon="-1.12701">
        <ele>51</ele>
        <time>2014-11-30T08:08:18Z</time>
      </trkpt>
      <trkpt lat="47.0233" lon="-1.1272">
        <ele>50</ele>
        <time>2014-11-30T08:08:22Z</time>
      </trkpt>
      <trkpt lat="47.02356" lon="-1.12733">
        <ele>50</ele>
        <time>2014-11-30T08:08:27Z</time>
      </trkpt>
      <trkpt lat="47.02374" lon="-1.12745">
        <ele>51</ele>
        <time>2014-11-30T08:08:31Z</time>
      </trkpt>
      <trkpt lat="47.02384" lon="-1.12755">
        <ele>51</ele>
        <time>2014-11-30T08:08:35Z</time>
      </trkpt>
      <trkpt lat="47.02394" lon="-1.12774">
        <ele>52</ele>
        <time>2014-11-30T08:08:39Z</time>
      </trkpt>
      <trkpt lat="47.02401" lon="-1.1281">
        <ele>52</ele>
        <time>2014-11-30T08:08:44Z</time>
      </trkpt>
      <trkpt lat="47.02404" lon="-1.12841">
        <ele>53</ele>
        <time>2014-11-30T08:08:48Z</time>
      </trkpt>
      <trkpt lat="47.02402" lon="-1.12878">
        <ele>51</ele>
        <time>2014-11-30T08:08:53Z</time>
      </trkpt>
      <trkpt lat="47.0241" lon="-1.12905">
        <ele>51</ele>
        <time>2014-11-30T08:08:57Z</time>
      </trkpt>
      <trkpt lat="47.02412" lon="-1.12931">
        <ele>53</ele>
        <time>2014-11-30T08:09:01Z</time>
      </trkpt>
      <trkpt lat="47.02411" lon="-1.1296">
        <ele>54</ele>
        <time>2014-11-30T08:09:06Z</time>
      </trkpt>
      <trkpt lat="47.02408" lon="-1.12975">
        <ele>54</ele>
        <time>2014-11-30T08:09:10Z</time>
      </trkpt>
      <trkpt lat="47.02404" lon="-1.1299">
        <ele>56</ele>
        <time>2014-11-30T08:09:14Z</time>
      </trkpt>
      <trkpt lat="47.024" lon="-1.13">
        <ele>59</ele>
        <time>2014-11-30T08:09:19Z</time>
      </trkpt>
      <trkpt lat="47.02395" lon="-1.1301">
        <ele>60</ele>
        <time>2014-11-30T08:09:26Z</time>
      </trkpt>
      <trkpt lat="47.0239" lon="-1.1302">
        <ele>63</ele>
        <time>2014-11-30T08:09:32Z</time>
      </trkpt>
      <trkpt lat="47.02385" lon="-1.1303">
        <ele>62</ele>
        <time>2014-11-30T08:09:38Z</time>
      </trkpt>
      <trkpt lat="47.02379" lon="-1.13039">
        <ele>63</ele>
        <time>2014-11-30T08:09:43Z</time>
      </trkpt>
      <trkpt lat="47.02374" lon="-1.13048">
        <ele>63</ele>
        <time>2014-11-30T08:09:48Z</time>
      </trkpt>
      <trkpt lat="47.02373" lon="-1.13061">
        <ele>68</ele>
        <time>2014-11-30T08:10:02Z</time>
      </trkpt>
      <trkpt lat="47.02369" lon="-1.13072">
        <ele>66</ele>
        <time>2014-11-30T08:10:13Z</time>
      </trkpt>
      <trkpt lat="47.02367" lon="-1.13084">
        <ele>65</ele>
        <time>2014-11-30T08:10:18Z</time>
      </trkpt>
      <trkpt lat="47.02367" lon="-1.13098">
        <ele>63</ele>
        <time>2014-11-30T08:10:22Z</time>
      </trkpt>
      <trkpt lat="47.02367" lon="-1.13121">
        <ele>59</ele>
        <time>2014-11-30T08:10:26Z</time>
      </trkpt>
      <trkpt lat="47.02364" lon="-1.13141">
        <ele>58</ele>
        <time>2014-11-30T08:10:30Z</time>
      </trkpt>
      <trkpt lat="47.02359" lon="-1.1316">
        <ele>54</ele>
        <time>2014-11-30T08:10:34Z</time>
      </trkpt>
      <trkpt lat="47.02352" lon="-1.13208">
        <ele>50</ele>
        <time>2014-11-30T08:10:38Z</time>
      </trkpt>
      <trkpt lat="47.02359" lon="-1.13241">
        <ele>50</ele>
        <time>2014-11-30T08:10:42Z</time>
      </trkpt>
      <trkpt lat="47.02374" lon="-1.13263">
        <ele>50</ele>
        <time>2014-11-30T08:10:46Z</time>
      </trkpt>
      <trkpt lat="47.02388" lon="-1.13284">
        <ele>51</ele>
        <time>2014-11-30T08:10:50Z</time>
      </trkpt>
      <trkpt lat="47.02399" lon="-1.13299">
        <ele>51</ele>
        <time>2014-11-30T08:10:54Z</time>
      </trkpt>
      <trkpt lat="47.0241" lon="-1.13309">
        <ele>51</ele>
        <time>2014-11-30T08:10:58Z</time>
      </trkpt>
      <trkpt lat="47.02426" lon="-1.13326">
        <ele>50</ele>
        <time>2014-11-30T08:11:03Z</time>
      </trkpt>
      <trkpt lat="47.02434" lon="-1.13361">
        <ele>48</ele>
        <time>2014-11-30T08:11:08Z</time>
      </trkpt>
      <trkpt lat="47.02439" lon="-1.13395">
        <ele>45</ele>
        <time>2014-11-30T08:11:12Z</time>
      </trkpt>
      <trkpt lat="47.02452" lon="-1.13421">
        <ele>45</ele>
        <time>2014-11-30T08:11:16Z</time>
      </trkpt>
      <trkpt lat="47.02466" lon="-1.13442">
        <ele>45</ele>
        <time>2014-11-30T08:11:20Z</time>
      </trkpt>
      <trkpt lat="47.02474" lon="-1.1347">
        <ele>44</ele>
        <time>2014-11-30T08:11:25Z</time>
      </trkpt>
      <trkpt lat="47.02476" lon="-1.1349">
        <ele>41</ele>
        <time>2014-11-30T08:11:29Z</time>
      </trkpt>
      <trkpt lat="47.02476" lon="-1.13503">
        <ele>42</ele>
        <time>2014-11-30T08:11:34Z</time>
      </trkpt>
      <trkpt lat="47.02476" lon="-1.13515">
        <ele>44</ele>
        <time>2014-11-30T08:11:39Z</time>
      </trkpt>
      <trkpt lat="47.02482" lon="-1.13523">
        <ele>45</ele>
        <time>2014-11-30T08:11:43Z</time>
      </trkpt>
      <trkpt lat="47.02488" lon="-1.1353">
        <ele>47</ele>
        <time>2014-11-30T08:11:47Z</time>
      </trkpt>
      <trkpt lat="47.02496" lon="-1.13537">
        <ele>48</ele>
        <time>2014-11-30T08:11:52Z</time>
      </trkpt>
      <trkpt lat="47.02503" lon="-1.13542">
        <ele>50</ele>
        <time>2014-11-30T08:11:56Z</time>
      </trkpt>
      <trkpt lat="47.02512" lon="-1.13553">
        <ele>51</ele>
        <time>2014-11-30T08:12:01Z</time>
      </trkpt>
      <trkpt lat="47.02519" lon="-1.1357">
        <ele>52</ele>
        <time>2014-11-30T08:12:06Z</time>
      </trkpt>
      <trkpt lat="47.02526" lon="-1.13585">
        <ele>52</ele>
        <time>2014-11-30T08:12:11Z</time>
      </trkpt>
      <trkpt lat="47.02532" lon="-1.13597">
        <ele>53</ele>
        <time>2014-11-30T08:12:15Z</time>
      </trkpt>
      <trkpt lat="47.0254" lon="-1.13611">
        <ele>55</ele>
        <time>2014-11-30T08:12:20Z</time>
      </trkpt>
      <trkpt lat="47.02547" lon="-1.1362">
        <ele>57</ele>
        <time>2014-11-30T08:12:24Z</time>
      </trkpt>
      <trkpt lat="47.02557" lon="-1.13633">
        <ele>58</ele>
        <time>2014-11-30T08:12:29Z</time>
      </trkpt>
      <trkpt lat="47.02565" lon="-1.1365">
        <ele>57</ele>
        <time>2014-11-30T08:12:33Z</time>
      </trkpt>
      <trkpt lat="47.0257" lon="-1.13674">
        <ele>55</ele>
        <time>2014-11-30T08:12:37Z</time>
      </trkpt>
      <trkpt lat="47.02577" lon="-1.13701">
        <ele>53</ele>
        <time>2014-11-30T08:12:41Z</time>
      </trkpt>
      <trkpt lat="47.02584" lon="-1.13726">
        <ele>52</ele>
        <time>2014-11-30T08:12:45Z</time>
      </trkpt>
      <trkpt lat="47.02591" lon="-1.13747">
        <ele>53</ele>
        <time>2014-11-30T08:12:49Z</time>
      </trkpt>
      <trkpt lat="47.02602" lon="-1.13779">
        <ele>50</ele>
        <time>2014-11-30T08:12:54Z</time>
      </trkpt>
      <trkpt lat="47.02612" lon="-1.13812">
        <ele>50</ele>
        <time>2014-11-30T08:12:59Z</time>
      </trkpt>
      <trkpt lat="47.0262" lon="-1.13844">
        <ele>50</ele>
        <time>2014-11-30T08:13:04Z</time>
      </trkpt>
      <trkpt lat="47.02628" lon="-1.13872">
        <ele>49</ele>
        <time>2014-11-30T08:13:08Z</time>
      </trkpt>
      <trkpt lat="47.02639" lon="-1.1391">
        <ele>48</ele>
        <time>2014-11-30T08:13:13Z</time>
      </trkpt>
      <trkpt lat="47.02646" lon="-1.13935">
        <ele>50</ele>
        <time>2014-11-30T08:13:17Z</time>
      </trkpt>
      <trkpt lat="47.02654" lon="-1.1396">
        <ele>52</ele>
        <time>2014-11-30T08:13:21Z</time>
      </trkpt>
      <trkpt lat="47.02663" lon="-1.13992">
        <ele>52</ele>
        <time>2014-11-30T08:13:26Z</time>
      </trkpt>
      <trkpt lat="47.02669" lon="-1.14016">
        <ele>54</ele>
        <time>2014-11-30T08:13:30Z</time>
      </trkpt>
      <trkpt lat="47.02679" lon="-1.14039">
        <ele>53</ele>
        <time>2014-11-30T08:13:35Z</time>
      </trkpt>
      <trkpt lat="47.02687" lon="-1.14061">
        <ele>54</ele>
        <time>2014-11-30T08:13:40Z</time>
      </trkpt>
      <trkpt lat="47.02693" lon="-1.14085">
        <ele>54</ele>
        <time>2014-11-30T08:13:44Z</time>
      </trkpt>
      <trkpt lat="47.02699" lon="-1.14112">
        <ele>54</ele>
        <time>2014-11-30T08:13:48Z</time>
      </trkpt>
      <trkpt lat="47.02705" lon="-1.14136">
        <ele>55</ele>
        <time>2014-11-30T08:13:52Z</time>
      </trkpt>
      <trkpt lat="47.0271" lon="-1.14162">
        <ele>56</ele>
        <time>2014-11-30T08:13:56Z</time>
      </trkpt>
      <trkpt lat="47.02718" lon="-1.14194">
        <ele>56</ele>
        <time>2014-11-30T08:14:01Z</time>
      </trkpt>
      <trkpt lat="47.02724" lon="-1.14218">
        <ele>56</ele>
        <time>2014-11-30T08:14:05Z</time>
      </trkpt>
      <trkpt lat="47.02728" lon="-1.14244">
        <ele>55</ele>
        <time>2014-11-30T08:14:09Z</time>
      </trkpt>
      <trkpt lat="47.02728" lon="-1.14272">
        <ele>55</ele>
        <time>2014-11-30T08:14:13Z</time>
      </trkpt>
      <trkpt lat="47.02727" lon="-1.14303">
        <ele>54</ele>
        <time>2014-11-30T08:14:17Z</time>
      </trkpt>
      <trkpt lat="47.02726" lon="-1.14334">
        <ele>54</ele>
        <time>2014-11-30T08:14:21Z</time>
      </trkpt>
      <trkpt lat="47.02727" lon="-1.14365">
        <ele>54</ele>
        <time>2014-11-30T08:14:25Z</time>
      </trkpt>
      <trkpt lat="47.02731" lon="-1.14397">
        <ele>53</ele>
        <time>2014-11-30T08:14:29Z</time>
      </trkpt>
      <trkpt lat="47.02737" lon="-1.14428">
        <ele>54</ele>
        <time>2014-11-30T08:14:33Z</time>
      </trkpt>
      <trkpt lat="47.02751" lon="-1.14464">
        <ele>53</ele>
        <time>2014-11-30T08:14:38Z</time>
      </trkpt>
      <trkpt lat="47.02766" lon="-1.14493">
        <ele>50</ele>
        <time>2014-11-30T08:14:42Z</time>
      </trkpt>
      <trkpt lat="47.02782" lon="-1.14518">
        <ele>50</ele>
        <time>2014-11-30T08:14:46Z</time>
      </trkpt>
      <trkpt lat="47.028" lon="-1.14543">
        <ele>49</ele>
        <time>2014-11-30T08:14:50Z</time>
      </trkpt>
      <trkpt lat="47.02817" lon="-1.14568">
        <ele>49</ele>
        <time>2014-11-30T08:14:54Z</time>
      </trkpt>
      <trkpt lat="47.02838" lon="-1.14597">
        <ele>49</ele>
        <time>2014-11-30T08:14:59Z</time>
      </trkpt>
      <trkpt lat="47.0286" lon="-1.14626">
        <ele>48</ele>
        <time>2014-11-30T08:15:04Z</time>
      </trkpt>
      <trkpt lat="47.02877" lon="-1.14648">
        <ele>48</ele>
        <time>2014-11-30T08:15:08Z</time>
      </trkpt>
      <trkpt lat="47.02895" lon="-1.14667">
        <ele>48</ele>
        <time>2014-11-30T08:15:12Z</time>
      </trkpt>
      <trkpt lat="47.02916" lon="-1.14687">
        <ele>48</ele>
        <time>2014-11-30T08:15:17Z</time>
      </trkpt>
      <trkpt lat="47.02932" lon="-1.14709">
        <ele>47</ele>
        <time>2014-11-30T08:15:21Z</time>
      </trkpt>
      <trkpt lat="47.02943" lon="-1.14736">
        <ele>46</ele>
        <time>2014-11-30T08:15:25Z</time>
      </trkpt>
      <trkpt lat="47.02942" lon="-1.14767">
        <ele>45</ele>
        <time>2014-11-30T08:15:29Z</time>
      </trkpt>
      <trkpt lat="47.0293" lon="-1.14792">
        <ele>45</ele>
        <time>2014-11-30T08:15:33Z</time>
      </trkpt>
      <trkpt lat="47.02919" lon="-1.14814">
        <ele>44</ele>
        <time>2014-11-30T08:15:37Z</time>
      </trkpt>
      <trkpt lat="47.02907" lon="-1.1484">
        <ele>45</ele>
        <time>2014-11-30T08:15:42Z</time>
      </trkpt>
      <trkpt lat="47.02907" lon="-1.14852">
        <ele>45</ele>
        <time>2014-11-30T08:15:54Z</time>
      </trkpt>
      <trkpt lat="47.02903" lon="-1.1488">
        <ele>43</ele>
        <time>2014-11-30T08:15:58Z</time>
      </trkpt>
      <trkpt lat="47.02901" lon="-1.14908">
        <ele>42</ele>
        <time>2014-11-30T08:16:02Z</time>
      </trkpt>
      <trkpt lat="47.02902" lon="-1.14937">
        <ele>42</ele>
        <time>2014-11-30T08:16:06Z</time>
      </trkpt>
      <trkpt lat="47.02902" lon="-1.14968">
        <ele>43</ele>
        <time>2014-11-30T08:16:11Z</time>
      </trkpt>
      <trkpt lat="47.02902" lon="-1.14992">
        <ele>43</ele>
        <time>2014-11-30T08:16:15Z</time>
      </trkpt>
      <trkpt lat="47.02898" lon="-1.15015">
        <ele>44</ele>
        <time>2014-11-30T08:16:19Z</time>
      </trkpt>
      <trkpt lat="47.029" lon="-1.15033">
        <ele>41</ele>
        <time>2014-11-30T08:16:23Z</time>
      </trkpt>
      <trkpt lat="47.029" lon="-1.15059">
        <ele>41</ele>
        <time>2014-11-30T08:16:27Z</time>
      </trkpt>
      <trkpt lat="47.02897" lon="-1.15076">
        <ele>40</ele>
        <time>2014-11-30T08:16:31Z</time>
      </trkpt>
      <trkpt lat="47.02897" lon="-1.15093">
        <ele>42</ele>
        <time>2014-11-30T08:16:36Z</time>
      </trkpt>
      <trkpt lat="47.02896" lon="-1.15107">
        <ele>43</ele>
        <time>2014-11-30T08:16:41Z</time>
      </trkpt>
      <trkpt lat="47.02893" lon="-1.15118">
        <ele>43</ele>
        <time>2014-11-30T08:16:45Z</time>
      </trkpt>
      <trkpt lat="47.02887" lon="-1.15126">
        <ele>44</ele>
        <time>2014-11-30T08:16:49Z</time>
      </trkpt>
      <trkpt lat="47.0288" lon="-1.15132">
        <ele>48</ele>
        <time>2014-11-30T08:16:54Z</time>
      </trkpt>
      <trkpt lat="47.02872" lon="-1.15136">
        <ele>50</ele>
        <time>2014-11-30T08:17:02Z</time>
      </trkpt>
      <trkpt lat="47.02865" lon="-1.1514">
        <ele>51</ele>
        <time>2014-11-30T08:17:08Z</time>
      </trkpt>
      <trkpt lat="47.02857" lon="-1.15144">
        <ele>53</ele>
        <time>2014-11-30T08:17:13Z</time>
      </trkpt>
      <trkpt lat="47.0285" lon="-1.15146">
        <ele>53</ele>
        <time>2014-11-30T08:17:17Z</time>
      </trkpt>
      <trkpt lat="47.02841" lon="-1.15147">
        <ele>54</ele>
        <time>2014-11-30T08:17:22Z</time>
      </trkpt>
      <trkpt lat="47.02834" lon="-1.15144">
        <ele>55</ele>
        <time>2014-11-30T08:17:27Z</time>
      </trkpt>
      <trkpt lat="47.02825" lon="-1.15146">
        <ele>55</ele>
        <time>2014-11-30T08:17:33Z</time>
      </trkpt>
      <trkpt lat="47.02817" lon="-1.15149">
        <ele>56</ele>
        <time>2014-11-30T08:17:39Z</time>
      </trkpt>
      <trkpt lat="47.02809" lon="-1.15152">
        <ele>57</ele>
        <time>2014-11-30T08:17:45Z</time>
      </trkpt>
      <trkpt lat="47.02801" lon="-1.15154">
        <ele>57</ele>
        <time>2014-11-30T08:17:51Z</time>
      </trkpt>
      <trkpt lat="47.02793" lon="-1.15153">
        <ele>58</ele>
        <time>2014-11-30T08:17:58Z</time>
      </trkpt>
      <trkpt lat="47.02784" lon="-1.15148">
        <ele>61</ele>
        <time>2014-11-30T08:18:15Z</time>
      </trkpt>
      <trkpt lat="47.02776" lon="-1.15148">
        <ele>62</ele>
        <time>2014-11-30T08:18:37Z</time>
      </trkpt>
      <trkpt lat="47.02768" lon="-1.15149">
        <ele>64</ele>
        <time>2014-11-30T08:18:44Z</time>
      </trkpt>
      <trkpt lat="47.0276" lon="-1.15146">
        <ele>67</ele>
        <time>2014-11-30T08:18:51Z</time>
      </trkpt>
      <trkpt lat="47.02751" lon="-1.15147">
        <ele>67</ele>
        <time>2014-11-30T08:18:58Z</time>
      </trkpt>
      <trkpt lat="47.02744" lon="-1.15147">
        <ele>68</ele>
        <time>2014-11-30T08:19:05Z</time>
      </trkpt>
      <trkpt lat="47.02735" lon="-1.15147">
        <ele>69</ele>
        <time>2014-11-30T08:19:11Z</time>
      </trkpt>
      <trkpt lat="47.02726" lon="-1.15148">
        <ele>70</ele>
        <time>2014-11-30T08:19:16Z</time>
      </trkpt>
      <trkpt lat="47.02717" lon="-1.15148">
        <ele>72</ele>
        <time>2014-11-30T08:19:21Z</time>
      </trkpt>
      <trkpt lat="47.02709" lon="-1.15148">
        <ele>72</ele>
        <time>2014-11-30T08:19:25Z</time>
      </trkpt>
      <trkpt lat="47.02702" lon="-1.15147">
        <ele>73</ele>
        <time>2014-11-30T08:19:29Z</time>
      </trkpt>
      <trkpt lat="47.02693" lon="-1.15145">
        <ele>74</ele>
        <time>2014-11-30T08:19:34Z</time>
      </trkpt>
      <trkpt lat="47.02685" lon="-1.15144">
        <ele>74</ele>
        <time>2014-11-30T08:19:39Z</time>
      </trkpt>
      <trkpt lat="47.02678" lon="-1.15143">
        <ele>74</ele>
        <time>2014-11-30T08:19:49Z</time>
      </trkpt>
      <trkpt lat="47.0267" lon="-1.15139">
        <ele>73</ele>
        <time>2014-11-30T08:19:54Z</time>
      </trkpt>
      <trkpt lat="47.02663" lon="-1.15136">
        <ele>74</ele>
        <time>2014-11-30T08:19:59Z</time>
      </trkpt>
      <trkpt lat="47.02654" lon="-1.15133">
        <ele>75</ele>
        <time>2014-11-30T08:20:05Z</time>
      </trkpt>
      <trkpt lat="47.02646" lon="-1.15131">
        <ele>76</ele>
        <time>2014-11-30T08:20:12Z</time>
      </trkpt>
      <trkpt lat="47.02637" lon="-1.15129">
        <ele>76</ele>
        <time>2014-11-30T08:20:18Z</time>
      </trkpt>
      <trkpt lat="47.02629" lon="-1.15126">
        <ele>77</ele>
        <time>2014-11-30T08:20:22Z</time>
      </trkpt>
      <trkpt lat="47.02619" lon="-1.15124">
        <ele>77</ele>
        <time>2014-11-30T08:20:27Z</time>
      </trkpt>
      <trkpt lat="47.02612" lon="-1.15121">
        <ele>78</ele>
        <time>2014-11-30T08:20:31Z</time>
      </trkpt>
      <trkpt lat="47.02604" lon="-1.15117">
        <ele>79</ele>
        <time>2014-11-30T08:20:36Z</time>
      </trkpt>
      <trkpt lat="47.02596" lon="-1.15113">
        <ele>80</ele>
        <time>2014-11-30T08:20:41Z</time>
      </trkpt>
      <trkpt lat="47.02588" lon="-1.15109">
        <ele>81</ele>
        <time>2014-11-30T08:20:46Z</time>
      </trkpt>
      <trkpt lat="47.02579" lon="-1.15107">
        <ele>82</ele>
        <time>2014-11-30T08:20:51Z</time>
      </trkpt>
      <trkpt lat="47.02571" lon="-1.15103">
        <ele>83</ele>
        <time>2014-11-30T08:20:56Z</time>
      </trkpt>
      <trkpt lat="47.02564" lon="-1.15098">
        <ele>84</ele>
        <time>2014-11-30T08:21:01Z</time>
      </trkpt>
      <trkpt lat="47.02557" lon="-1.15092">
        <ele>84</ele>
        <time>2014-11-30T08:21:06Z</time>
      </trkpt>
      <trkpt lat="47.02548" lon="-1.15081">
        <ele>83</ele>
        <time>2014-11-30T08:21:11Z</time>
      </trkpt>
      <trkpt lat="47.0254" lon="-1.1507">
        <ele>84</ele>
        <time>2014-11-30T08:21:16Z</time>
      </trkpt>
      <trkpt lat="47.02533" lon="-1.15059">
        <ele>83</ele>
        <time>2014-11-30T08:21:21Z</time>
      </trkpt>
      <trkpt lat="47.02525" lon="-1.15048">
        <ele>83</ele>
        <time>2014-11-30T08:21:25Z</time>
      </trkpt>
      <trkpt lat="47.02516" lon="-1.15034">
        <ele>83</ele>
        <time>2014-11-30T08:21:30Z</time>
      </trkpt>
      <trkpt lat="47.02509" lon="-1.15023">
        <ele>84</ele>
        <time>2014-11-30T08:21:34Z</time>
      </trkpt>
      <trkpt lat="47.02501" lon="-1.15014">
        <ele>83</ele>
        <time>2014-11-30T08:21:38Z</time>
      </trkpt>
      <trkpt lat="47.0249" lon="-1.15001">
        <ele>84</ele>
        <time>2014-11-30T08:21:43Z</time>
      </trkpt>
      <trkpt lat="47.02478" lon="-1.14989">
        <ele>86</ele>
        <time>2014-11-30T08:21:48Z</time>
      </trkpt>
      <trkpt lat="47.02466" lon="-1.14978">
        <ele>87</ele>
        <time>2014-11-30T08:21:53Z</time>
      </trkpt>
      <trkpt lat="47.02457" lon="-1.14969">
        <ele>87</ele>
        <time>2014-11-30T08:21:57Z</time>
      </trkpt>
      <trkpt lat="47.02446" lon="-1.1496">
        <ele>87</ele>
        <time>2014-11-30T08:22:01Z</time>
      </trkpt>
      <trkpt lat="47.02435" lon="-1.14949">
        <ele>87</ele>
        <time>2014-11-30T08:22:05Z</time>
      </trkpt>
      <trkpt lat="47.02426" lon="-1.14934">
        <ele>87</ele>
        <time>2014-11-30T08:22:09Z</time>
      </trkpt>
      <trkpt lat="47.02419" lon="-1.14918">
        <ele>88</ele>
        <time>2014-11-30T08:22:13Z</time>
      </trkpt>
      <trkpt lat="47.02413" lon="-1.14897">
        <ele>88</ele>
        <time>2014-11-30T08:22:18Z</time>
      </trkpt>
      <trkpt lat="47.02408" lon="-1.14881">
        <ele>88</ele>
        <time>2014-11-30T08:22:22Z</time>
      </trkpt>
      <trkpt lat="47.02404" lon="-1.14869">
        <ele>89</ele>
        <time>2014-11-30T08:22:26Z</time>
      </trkpt>
      <trkpt lat="47.024" lon="-1.14853">
        <ele>89</ele>
        <time>2014-11-30T08:22:31Z</time>
      </trkpt>
      <trkpt lat="47.02396" lon="-1.14841">
        <ele>90</ele>
        <time>2014-11-30T08:22:35Z</time>
      </trkpt>
      <trkpt lat="47.02392" lon="-1.1483">
        <ele>90</ele>
        <time>2014-11-30T08:22:39Z</time>
      </trkpt>
      <trkpt lat="47.02387" lon="-1.14817">
        <ele>90</ele>
        <time>2014-11-30T08:22:43Z</time>
      </trkpt>
      <trkpt lat="47.02382" lon="-1.14805">
        <ele>90</ele>
        <time>2014-11-30T08:22:47Z</time>
      </trkpt>
      <trkpt lat="47.02374" lon="-1.14789">
        <ele>90</ele>
        <time>2014-11-30T08:22:52Z</time>
      </trkpt>
      <trkpt lat="47.02369" lon="-1.1478">
        <ele>91</ele>
        <time>2014-11-30T08:23:51Z</time>
      </trkpt>
      <trkpt lat="47.02361" lon="-1.14766">
        <ele>90</ele>
        <time>2014-11-30T08:23:56Z</time>
      </trkpt>
      <trkpt lat="47.02352" lon="-1.14752">
        <ele>89</ele>
        <time>2014-11-30T08:24:00Z</time>
      </trkpt>
      <trkpt lat="47.0234" lon="-1.14733">
        <ele>89</ele>
        <time>2014-11-30T08:24:05Z</time>
      </trkpt>
      <trkpt lat="47.02323" lon="-1.14727">
        <ele>89</ele>
        <time>2014-11-30T08:24:10Z</time>
      </trkpt>
      <trkpt lat="47.02307" lon="-1.14724">
        <ele>90</ele>
        <time>2014-11-30T08:24:14Z</time>
      </trkpt>
      <trkpt lat="47.02286" lon="-1.14724">
        <ele>90</ele>
        <time>2014-11-30T08:24:19Z</time>
      </trkpt>
      <trkpt lat="47.02274" lon="-1.14737">
        <ele>91</ele>
        <time>2014-11-30T08:24:24Z</time>
      </trkpt>
      <trkpt lat="47.02283" lon="-1.14756">
        <ele>91</ele>
        <time>2014-11-30T08:24:28Z</time>
      </trkpt>
      <trkpt lat="47.02276" lon="-1.1478">
        <ele>91</ele>
        <time>2014-11-30T08:24:33Z</time>
      </trkpt>
      <trkpt lat="47.02261" lon="-1.14781">
        <ele>91</ele>
        <time>2014-11-30T08:24:37Z</time>
      </trkpt>
      <trkpt lat="47.02245" lon="-1.14777">
        <ele>91</ele>
        <time>2014-11-30T08:24:41Z</time>
      </trkpt>
      <trkpt lat="47.02229" lon="-1.14777">
        <ele>91</ele>
        <time>2014-11-30T08:24:45Z</time>
      </trkpt>
      <trkpt lat="47.02213" lon="-1.14784">
        <ele>92</ele>
        <time>2014-11-30T08:24:49Z</time>
      </trkpt>
      <trkpt lat="47.02198" lon="-1.14794">
        <ele>91</ele>
        <time>2014-11-30T08:24:53Z</time>
      </trkpt>
      <trkpt lat="47.02181" lon="-1.1481">
        <ele>91</ele>
        <time>2014-11-30T08:24:57Z</time>
      </trkpt>
      <trkpt lat="47.02162" lon="-1.14806">
        <ele>89</ele>
        <time>2014-11-30T08:25:01Z</time>
      </trkpt>
      <trkpt lat="47.02144" lon="-1.14793">
        <ele>90</ele>
        <time>2014-11-30T08:25:05Z</time>
      </trkpt>
      <trkpt lat="47.02126" lon="-1.14776">
        <ele>89</ele>
        <time>2014-11-30T08:25:09Z</time>
      </trkpt>
      <trkpt lat="47.02109" lon="-1.14754">
        <ele>88</ele>
        <time>2014-11-30T08:25:13Z</time>
      </trkpt>
      <trkpt lat="47.0209" lon="-1.14731">
        <ele>87</ele>
        <time>2014-11-30T08:25:17Z</time>
      </trkpt>
      <trkpt lat="47.02068" lon="-1.14712">
        <ele>87</ele>
        <time>2014-11-30T08:25:21Z</time>
      </trkpt>
      <trkpt lat="47.02037" lon="-1.14695">
        <ele>86</ele>
        <time>2014-11-30T08:25:26Z</time>
      </trkpt>
      <trkpt lat="47.02012" lon="-1.14673">
        <ele>85</ele>
        <time>2014-11-30T08:25:30Z</time>
      </trkpt>
      <trkpt lat="47.0199" lon="-1.14649">
        <ele>83</ele>
        <time>2014-11-30T08:25:34Z</time>
      </trkpt>
      <trkpt lat="47.01968" lon="-1.14627">
        <ele>83</ele>
        <time>2014-11-30T08:25:38Z</time>
      </trkpt>
      <trkpt lat="47.0196" lon="-1.14609">
        <ele>83</ele>
        <time>2014-11-30T08:25:43Z</time>
      </trkpt>
      <trkpt lat="47.01965" lon="-1.14597">
        <ele>83</ele>
        <time>2014-11-30T08:25:47Z</time>
      </trkpt>
      <trkpt lat="47.01969" lon="-1.14583">
        <ele>83</ele>
        <time>2014-11-30T08:25:51Z</time>
      </trkpt>
      <trkpt lat="47.01973" lon="-1.14567">
        <ele>83</ele>
        <time>2014-11-30T08:25:55Z</time>
      </trkpt>
      <trkpt lat="47.01976" lon="-1.14552">
        <ele>83</ele>
        <time>2014-11-30T08:25:59Z</time>
      </trkpt>
      <trkpt lat="47.01981" lon="-1.14537">
        <ele>84</ele>
        <time>2014-11-30T08:26:03Z</time>
      </trkpt>
      <trkpt lat="47.01987" lon="-1.1452">
        <ele>85</ele>
        <time>2014-11-30T08:26:08Z</time>
      </trkpt>
      <trkpt lat="47.01993" lon="-1.14506">
        <ele>85</ele>
        <time>2014-11-30T08:26:12Z</time>
      </trkpt>
      <trkpt lat="47.01998" lon="-1.14491">
        <ele>84</ele>
        <time>2014-11-30T08:26:16Z</time>
      </trkpt>
      <trkpt lat="47.02006" lon="-1.1447">
        <ele>84</ele>
        <time>2014-11-30T08:26:21Z</time>
      </trkpt>
      <trkpt lat="47.02016" lon="-1.14444">
        <ele>84</ele>
        <time>2014-11-30T08:26:26Z</time>
      </trkpt>
      <trkpt lat="47.02025" lon="-1.14422">
        <ele>84</ele>
        <time>2014-11-30T08:26:30Z</time>
      </trkpt>
      <trkpt lat="47.02034" lon="-1.14394">
        <ele>84</ele>
        <time>2014-11-30T08:26:35Z</time>
      </trkpt>
      <trkpt lat="47.0204" lon="-1.14372">
        <ele>84</ele>
        <time>2014-11-30T08:26:39Z</time>
      </trkpt>
      <trkpt lat="47.02045" lon="-1.14349">
        <ele>83</ele>
        <time>2014-11-30T08:26:43Z</time>
      </trkpt>
      <trkpt lat="47.02051" lon="-1.14322">
        <ele>83</ele>
        <time>2014-11-30T08:26:47Z</time>
      </trkpt>
      <trkpt lat="47.02055" lon="-1.14297">
        <ele>82</ele>
        <time>2014-11-30T08:26:51Z</time>
      </trkpt>
      <trkpt lat="47.02058" lon="-1.14274">
        <ele>82</ele>
        <time>2014-11-30T08:26:55Z</time>
      </trkpt>
      <trkpt lat="47.02061" lon="-1.1425">
        <ele>82</ele>
        <time>2014-11-30T08:26:59Z</time>
      </trkpt>
      <trkpt lat="47.02064" lon="-1.14226">
        <ele>81</ele>
        <time>2014-11-30T08:27:03Z</time>
      </trkpt>
      <trkpt lat="47.02067" lon="-1.14194">
        <ele>80</ele>
        <time>2014-11-30T08:27:08Z</time>
      </trkpt>
      <trkpt lat="47.02069" lon="-1.14169">
        <ele>80</ele>
        <time>2014-11-30T08:27:12Z</time>
      </trkpt>
      <trkpt lat="47.02073" lon="-1.14143">
        <ele>79</ele>
        <time>2014-11-30T08:27:17Z</time>
      </trkpt>
      <trkpt lat="47.02079" lon="-1.14126">
        <ele>79</ele>
        <time>2014-11-30T08:27:21Z</time>
      </trkpt>
      <trkpt lat="47.02081" lon="-1.14114">
        <ele>78</ele>
        <time>2014-11-30T08:27:25Z</time>
      </trkpt>
      <trkpt lat="47.0208" lon="-1.14105">
        <ele>78</ele>
        <time>2014-11-30T08:27:30Z</time>
      </trkpt>
      <trkpt lat="47.02085" lon="-1.1408">
        <ele>77</ele>
        <time>2014-11-30T08:27:35Z</time>
      </trkpt>
      <trkpt lat="47.02093" lon="-1.14062">
        <ele>78</ele>
        <time>2014-11-30T08:27:39Z</time>
      </trkpt>
      <trkpt lat="47.02103" lon="-1.14043">
        <ele>79</ele>
        <time>2014-11-30T08:27:43Z</time>
      </trkpt>
      <trkpt lat="47.02115" lon="-1.14026">
        <ele>80</ele>
        <time>2014-11-30T08:27:47Z</time>
      </trkpt>
      <trkpt lat="47.02128" lon="-1.1401">
        <ele>80</ele>
        <time>2014-11-30T08:27:51Z</time>
      </trkpt>
      <trkpt lat="47.02143" lon="-1.13989">
        <ele>81</ele>
        <time>2014-11-30T08:27:56Z</time>
      </trkpt>
      <trkpt lat="47.02158" lon="-1.13971">
        <ele>81</ele>
        <time>2014-11-30T08:28:01Z</time>
      </trkpt>
      <trkpt lat="47.0217" lon="-1.13955">
        <ele>81</ele>
        <time>2014-11-30T08:28:05Z</time>
      </trkpt>
      <trkpt lat="47.02184" lon="-1.13934">
        <ele>81</ele>
        <time>2014-11-30T08:28:09Z</time>
      </trkpt>
      <trkpt lat="47.02198" lon="-1.13911">
        <ele>80</ele>
        <time>2014-11-30T08:28:13Z</time>
      </trkpt>
      <trkpt lat="47.02213" lon="-1.13888">
        <ele>80</ele>
        <time>2014-11-30T08:28:17Z</time>
      </trkpt>
      <trkpt lat="47.02227" lon="-1.13864">
        <ele>80</ele>
        <time>2014-11-30T08:28:21Z</time>
      </trkpt>
      <trkpt lat="47.02241" lon="-1.1384">
        <ele>80</ele>
        <time>2014-11-30T08:28:25Z</time>
      </trkpt>
      <trkpt lat="47.02256" lon="-1.1381">
        <ele>78</ele>
        <time>2014-11-30T08:28:30Z</time>
      </trkpt>
      <trkpt lat="47.0227" lon="-1.13805">
        <ele>78</ele>
        <time>2014-11-30T08:28:34Z</time>
      </trkpt>
      <trkpt lat="47.02277" lon="-1.13789">
        <ele>76</ele>
        <time>2014-11-30T08:28:38Z</time>
      </trkpt>
      <trkpt lat="47.02283" lon="-1.13771">
        <ele>76</ele>
        <time>2014-11-30T08:28:43Z</time>
      </trkpt>
      <trkpt lat="47.02288" lon="-1.13763">
        <ele>76</ele>
        <time>2014-11-30T08:28:48Z</time>
      </trkpt>
      <trkpt lat="47.02296" lon="-1.13756">
        <ele>75</ele>
        <time>2014-11-30T08:28:53Z</time>
      </trkpt>
      <trkpt lat="47.02305" lon="-1.13743">
        <ele>70</ele>
        <time>2014-11-30T08:28:58Z</time>
      </trkpt>
      <trkpt lat="47.02314" lon="-1.13727">
        <ele>66</ele>
        <time>2014-11-30T08:29:03Z</time>
      </trkpt>
      <trkpt lat="47.02321" lon="-1.13714">
        <ele>65</ele>
        <time>2014-11-30T08:29:07Z</time>
      </trkpt>
      <trkpt lat="47.02326" lon="-1.13704">
        <ele>64</ele>
        <time>2014-11-30T08:29:11Z</time>
      </trkpt>
      <trkpt lat="47.02331" lon="-1.13692">
        <ele>62</ele>
        <time>2014-11-30T08:29:15Z</time>
      </trkpt>
      <trkpt lat="47.02336" lon="-1.13675">
        <ele>61</ele>
        <time>2014-11-30T08:29:19Z</time>
      </trkpt>
      <trkpt lat="47.02344" lon="-1.1366">
        <ele>57</ele>
        <time>2014-11-30T08:29:23Z</time>
      </trkpt>
      <trkpt lat="47.02351" lon="-1.13646">
        <ele>56</ele>
        <time>2014-11-30T08:29:27Z</time>
      </trkpt>
      <trkpt lat="47.02361" lon="-1.13628">
        <ele>54</ele>
        <time>2014-11-30T08:29:32Z</time>
      </trkpt>
      <trkpt lat="47.02358" lon="-1.13612">
        <ele>57</ele>
        <time>2014-11-30T08:29:36Z</time>
      </trkpt>
      <trkpt lat="47.0235" lon="-1.13597">
        <ele>57</ele>
        <time>2014-11-30T08:29:40Z</time>
      </trkpt>
      <trkpt lat="47.02342" lon="-1.13575">
        <ele>59</ele>
        <time>2014-11-30T08:29:45Z</time>
      </trkpt>
      <trkpt lat="47.02333" lon="-1.13549">
        <ele>58</ele>
        <time>2014-11-30T08:29:49Z</time>
      </trkpt>
      <trkpt lat="47.02328" lon="-1.13519">
        <ele>55</ele>
        <time>2014-11-30T08:29:53Z</time>
      </trkpt>
      <trkpt lat="47.02324" lon="-1.13491">
        <ele>53</ele>
        <time>2014-11-30T08:29:57Z</time>
      </trkpt>
      <trkpt lat="47.02321" lon="-1.13469">
        <ele>51</ele>
        <time>2014-11-30T08:30:01Z</time>
      </trkpt>
      <trkpt lat="47.02316" lon="-1.13445">
        <ele>46</ele>
        <time>2014-11-30T08:30:05Z</time>
      </trkpt>
      <trkpt lat="47.0231" lon="-1.13416">
        <ele>41</ele>
        <time>2014-11-30T08:30:10Z</time>
      </trkpt>
      <trkpt lat="47.02294" lon="-1.13398">
        <ele>41</ele>
        <time>2014-11-30T08:30:14Z</time>
      </trkpt>
      <trkpt lat="47.02287" lon="-1.13382">
        <ele>41</ele>
        <time>2014-11-30T08:30:18Z</time>
      </trkpt>
      <trkpt lat="47.02273" lon="-1.13372">
        <ele>42</ele>
        <time>2014-11-30T08:30:22Z</time>
      </trkpt>
      <trkpt lat="47.02257" lon="-1.13368">
        <ele>43</ele>
        <time>2014-11-30T08:30:26Z</time>
      </trkpt>
      <trkpt lat="47.02238" lon="-1.13375">
        <ele>43</ele>
        <time>2014-11-30T08:30:31Z</time>
      </trkpt>
      <trkpt lat="47.02225" lon="-1.1339">
        <ele>43</ele>
        <time>2014-11-30T08:30:35Z</time>
      </trkpt>
      <trkpt lat="47.02212" lon="-1.13405">
        <ele>44</ele>
        <time>2014-11-30T08:30:39Z</time>
      </trkpt>
      <trkpt lat="47.02193" lon="-1.13414">
        <ele>47</ele>
        <time>2014-11-30T08:30:44Z</time>
      </trkpt>
      <trkpt lat="47.02174" lon="-1.13415">
        <ele>49</ele>
        <time>2014-11-30T08:30:48Z</time>
      </trkpt>
      <trkpt lat="47.02152" lon="-1.13418">
        <ele>51</ele>
        <time>2014-11-30T08:30:53Z</time>
      </trkpt>
      <trkpt lat="47.02134" lon="-1.13421">
        <ele>49</ele>
        <time>2014-11-30T08:30:57Z</time>
      </trkpt>
      <trkpt lat="47.02112" lon="-1.13427">
        <ele>51</ele>
        <time>2014-11-30T08:31:02Z</time>
      </trkpt>
      <trkpt lat="47.02098" lon="-1.13434">
        <ele>52</ele>
        <time>2014-11-30T08:31:06Z</time>
      </trkpt>
      <trkpt lat="47.02081" lon="-1.1343">
        <ele>50</ele>
        <time>2014-11-30T08:31:10Z</time>
      </trkpt>
      <trkpt lat="47.02063" lon="-1.13426">
        <ele>50</ele>
        <time>2014-11-30T08:31:14Z</time>
      </trkpt>
      <trkpt lat="47.02044" lon="-1.13424">
        <ele>51</ele>
        <time>2014-11-30T08:31:18Z</time>
      </trkpt>
      <trkpt lat="47.02025" lon="-1.13426">
        <ele>54</ele>
        <time>2014-11-30T08:31:23Z</time>
      </trkpt>
      <trkpt lat="47.02013" lon="-1.13427">
        <ele>54</ele>
        <time>2014-11-30T08:31:27Z</time>
      </trkpt>
      <trkpt lat="47.02001" lon="-1.1343">
        <ele>57</ele>
        <time>2014-11-30T08:31:32Z</time>
      </trkpt>
      <trkpt lat="47.01989" lon="-1.13433">
        <ele>58</ele>
        <time>2014-11-30T08:31:37Z</time>
      </trkpt>
      <trkpt lat="47.01979" lon="-1.13434">
        <ele>59</ele>
        <time>2014-11-30T08:31:41Z</time>
      </trkpt>
      <trkpt lat="47.01967" lon="-1.13435">
        <ele>60</ele>
        <time>2014-11-30T08:31:46Z</time>
      </trkpt>
      <trkpt lat="47.01958" lon="-1.13435">
        <ele>61</ele>
        <time>2014-11-30T08:31:50Z</time>
      </trkpt>
      <trkpt lat="47.01949" lon="-1.13433">
        <ele>63</ele>
        <time>2014-11-30T08:31:54Z</time>
      </trkpt>
      <trkpt lat="47.01941" lon="-1.1343">
        <ele>64</ele>
        <time>2014-11-30T08:31:58Z</time>
      </trkpt>
      <trkpt lat="47.01931" lon="-1.13425">
        <ele>65</ele>
        <time>2014-11-30T08:32:03Z</time>
      </trkpt>
      <trkpt lat="47.01923" lon="-1.13421">
        <ele>67</ele>
        <time>2014-11-30T08:32:07Z</time>
      </trkpt>
      <trkpt lat="47.01915" lon="-1.13417">
        <ele>68</ele>
        <time>2014-11-30T08:32:11Z</time>
      </trkpt>
      <trkpt lat="47.01907" lon="-1.13413">
        <ele>69</ele>
        <time>2014-11-30T08:32:15Z</time>
      </trkpt>
      <trkpt lat="47.019" lon="-1.13409">
        <ele>69</ele>
        <time>2014-11-30T08:32:19Z</time>
      </trkpt>
      <trkpt lat="47.01891" lon="-1.13401">
        <ele>70</ele>
        <time>2014-11-30T08:32:24Z</time>
      </trkpt>
      <trkpt lat="47.01881" lon="-1.13391">
        <ele>70</ele>
        <time>2014-11-30T08:32:29Z</time>
      </trkpt>
      <trkpt lat="47.01873" lon="-1.1338">
        <ele>70</ele>
        <time>2014-11-30T08:32:33Z</time>
      </trkpt>
      <trkpt lat="47.01861" lon="-1.13363">
        <ele>71</ele>
        <time>2014-11-30T08:32:38Z</time>
      </trkpt>
      <trkpt lat="47.01852" lon="-1.1335">
        <ele>72</ele>
        <time>2014-11-30T08:32:42Z</time>
      </trkpt>
      <trkpt lat="47.01842" lon="-1.13333">
        <ele>72</ele>
        <time>2014-11-30T08:32:47Z</time>
      </trkpt>
      <trkpt lat="47.01832" lon="-1.13317">
        <ele>73</ele>
        <time>2014-11-30T08:32:52Z</time>
      </trkpt>
      <trkpt lat="47.01825" lon="-1.13302">
        <ele>73</ele>
        <time>2014-11-30T08:32:56Z</time>
      </trkpt>
      <trkpt lat="47.01818" lon="-1.13288">
        <ele>74</ele>
        <time>2014-11-30T08:33:00Z</time>
      </trkpt>
      <trkpt lat="47.01808" lon="-1.13269">
        <ele>75</ele>
        <time>2014-11-30T08:33:05Z</time>
      </trkpt>
      <trkpt lat="47.01803" lon="-1.13257">
        <ele>76</ele>
        <time>2014-11-30T08:33:09Z</time>
      </trkpt>
      <trkpt lat="47.01809" lon="-1.13249">
        <ele>74</ele>
        <time>2014-11-30T08:33:57Z</time>
      </trkpt>
      <trkpt lat="47.01828" lon="-1.13246">
        <ele>76</ele>
        <time>2014-11-30T08:34:01Z</time>
      </trkpt>
      <trkpt lat="47.01862" lon="-1.13224">
        <ele>74</ele>
        <time>2014-11-30T08:34:06Z</time>
      </trkpt>
      <trkpt lat="47.01887" lon="-1.13203">
        <ele>74</ele>
        <time>2014-11-30T08:34:10Z</time>
      </trkpt>
      <trkpt lat="47.01909" lon="-1.13171">
        <ele>72</ele>
        <time>2014-11-30T08:34:15Z</time>
      </trkpt>
      <trkpt lat="47.01937" lon="-1.13147">
        <ele>67</ele>
        <time>2014-11-30T08:34:19Z</time>
      </trkpt>
      <trkpt lat="47.01962" lon="-1.13132">
        <ele>66</ele>
        <time>2014-11-30T08:34:23Z</time>
      </trkpt>
      <trkpt lat="47.01967" lon="-1.13108">
        <ele>68</ele>
        <time>2014-11-30T08:34:27Z</time>
      </trkpt>
      <trkpt lat="47.01979" lon="-1.13087">
        <ele>67</ele>
        <time>2014-11-30T08:34:31Z</time>
      </trkpt>
      <trkpt lat="47.01998" lon="-1.13068">
        <ele>64</ele>
        <time>2014-11-30T08:34:35Z</time>
      </trkpt>
      <trkpt lat="47.02022" lon="-1.13037">
        <ele>64</ele>
        <time>2014-11-30T08:34:40Z</time>
      </trkpt>
      <trkpt lat="47.02037" lon="-1.13005">
        <ele>64</ele>
        <time>2014-11-30T08:34:44Z</time>
      </trkpt>
      <trkpt lat="47.02057" lon="-1.12962">
        <ele>59</ele>
        <time>2014-11-30T08:34:49Z</time>
      </trkpt>
      <trkpt lat="47.0207" lon="-1.12917">
        <ele>56</ele>
        <time>2014-11-30T08:34:54Z</time>
      </trkpt>
      <trkpt lat="47.02084" lon="-1.1288">
        <ele>53</ele>
        <time>2014-11-30T08:34:59Z</time>
      </trkpt>
      <trkpt lat="47.02087" lon="-1.12858">
        <ele>54</ele>
        <time>2014-11-30T08:35:03Z</time>
      </trkpt>
      <trkpt lat="47.02086" lon="-1.12836">
        <ele>55</ele>
        <time>2014-11-30T08:35:08Z</time>
      </trkpt>
      <trkpt lat="47.0209" lon="-1.12817">
        <ele>53</ele>
        <time>2014-11-30T08:35:12Z</time>
      </trkpt>
      <trkpt lat="47.02093" lon="-1.12781">
        <ele>53</ele>
        <time>2014-11-30T08:35:17Z</time>
      </trkpt>
      <trkpt lat="47.0209" lon="-1.12757">
        <ele>53</ele>
        <time>2014-11-30T08:35:21Z</time>
      </trkpt>
      <trkpt lat="47.02087" lon="-1.12733">
        <ele>55</ele>
        <time>2014-11-30T08:35:26Z</time>
      </trkpt>
      <trkpt lat="47.02087" lon="-1.1272">
        <ele>55</ele>
        <time>2014-11-30T08:35:30Z</time>
      </trkpt>
      <trkpt lat="47.02088" lon="-1.12709">
        <ele>54</ele>
        <time>2014-11-30T08:35:34Z</time>
      </trkpt>
      <trkpt lat="47.02095" lon="-1.12689">
        <ele>55</ele>
        <time>2014-11-30T08:35:39Z</time>
      </trkpt>
      <trkpt lat="47.02103" lon="-1.12654">
        <ele>53</ele>
        <time>2014-11-30T08:35:44Z</time>
      </trkpt>
      <trkpt lat="47.02105" lon="-1.12623">
        <ele>54</ele>
        <time>2014-11-30T08:35:48Z</time>
      </trkpt>
      <trkpt lat="47.02102" lon="-1.12597">
        <ele>53</ele>
        <time>2014-11-30T08:35:52Z</time>
      </trkpt>
      <trkpt lat="47.02101" lon="-1.12566">
        <ele>52</ele>
        <time>2014-11-30T08:35:57Z</time>
      </trkpt>
      <trkpt lat="47.02107" lon="-1.12554">
        <ele>54</ele>
        <time>2014-11-30T08:36:01Z</time>
      </trkpt>
      <trkpt lat="47.0212" lon="-1.12541">
        <ele>54</ele>
        <time>2014-11-30T08:36:05Z</time>
      </trkpt>
      <trkpt lat="47.0213" lon="-1.1252">
        <ele>55</ele>
        <time>2014-11-30T08:36:09Z</time>
      </trkpt>
      <trkpt lat="47.02137" lon="-1.12485">
        <ele>52</ele>
        <time>2014-11-30T08:36:14Z</time>
      </trkpt>
      <trkpt lat="47.02136" lon="-1.12452">
        <ele>49</ele>
        <time>2014-11-30T08:36:18Z</time>
      </trkpt>
      <trkpt lat="47.02135" lon="-1.12414">
        <ele>49</ele>
        <time>2014-11-30T08:36:23Z</time>
      </trkpt>
      <trkpt lat="47.02135" lon="-1.12384">
        <ele>48</ele>
        <time>2014-11-30T08:36:27Z</time>
      </trkpt>
      <trkpt lat="47.02135" lon="-1.12356">
        <ele>48</ele>
        <time>2014-11-30T08:36:31Z</time>
      </trkpt>
      <trkpt lat="47.02134" lon="-1.12328">
        <ele>48</ele>
        <time>2014-11-30T08:36:35Z</time>
      </trkpt>
      <trkpt lat="47.02132" lon="-1.12301">
        <ele>48</ele>
        <time>2014-11-30T08:36:39Z</time>
      </trkpt>
      <trkpt lat="47.02129" lon="-1.12274">
        <ele>48</ele>
        <time>2014-11-30T08:36:43Z</time>
      </trkpt>
      <trkpt lat="47.02124" lon="-1.12241">
        <ele>49</ele>
        <time>2014-11-30T08:36:48Z</time>
      </trkpt>
      <trkpt lat="47.02118" lon="-1.12215">
        <ele>49</ele>
        <time>2014-11-30T08:36:52Z</time>
      </trkpt>
      <trkpt lat="47.02111" lon="-1.1219">
        <ele>49</ele>
        <time>2014-11-30T08:36:56Z</time>
      </trkpt>
      <trkpt lat="47.02105" lon="-1.12165">
        <ele>49</ele>
        <time>2014-11-30T08:37:00Z</time>
      </trkpt>
      <trkpt lat="47.021" lon="-1.12136">
        <ele>49</ele>
        <time>2014-11-30T08:37:05Z</time>
      </trkpt>
      <trkpt lat="47.02096" lon="-1.12113">
        <ele>49</ele>
        <time>2014-11-30T08:37:09Z</time>
      </trkpt>
      <trkpt lat="47.02095" lon="-1.12088">
        <ele>48</ele>
        <time>2014-11-30T08:37:13Z</time>
      </trkpt>
      <trkpt lat="47.02091" lon="-1.12059">
        <ele>49</ele>
        <time>2014-11-30T08:37:18Z</time>
      </trkpt>
      <trkpt lat="47.02087" lon="-1.12032">
        <ele>49</ele>
        <time>2014-11-30T08:37:23Z</time>
      </trkpt>
      <trkpt lat="47.02085" lon="-1.12008">
        <ele>49</ele>
        <time>2014-11-30T08:37:27Z</time>
      </trkpt>
      <trkpt lat="47.02079" lon="-1.11986">
        <ele>49</ele>
        <time>2014-11-30T08:37:31Z</time>
      </trkpt>
      <trkpt lat="47.02078" lon="-1.11962">
        <ele>48</ele>
        <time>2014-11-30T08:37:35Z</time>
      </trkpt>
      <trkpt lat="47.02073" lon="-1.11929">
        <ele>48</ele>
        <time>2014-11-30T08:37:40Z</time>
      </trkpt>
      <trkpt lat="47.02069" lon="-1.11904">
        <ele>49</ele>
        <time>2014-11-30T08:37:44Z</time>
      </trkpt>
      <trkpt lat="47.02063" lon="-1.11874">
        <ele>51</ele>
        <time>2014-11-30T08:37:49Z</time>
      </trkpt>
      <trkpt lat="47.02056" lon="-1.11846">
        <ele>51</ele>
        <time>2014-11-30T08:37:54Z</time>
      </trkpt>
      <trkpt lat="47.02048" lon="-1.11824">
        <ele>51</ele>
        <time>2014-11-30T08:37:58Z</time>
      </trkpt>
      <trkpt lat="47.02034" lon="-1.11808">
        <ele>51</ele>
        <time>2014-11-30T08:38:02Z</time>
      </trkpt>
      <trkpt lat="47.02025" lon="-1.11789">
        <ele>51</ele>
        <time>2014-11-30T08:38:06Z</time>
      </trkpt>
      <trkpt lat="47.02017" lon="-1.11766">
        <ele>50</ele>
        <time>2014-11-30T08:38:10Z</time>
      </trkpt>
      <trkpt lat="47.02009" lon="-1.11744">
        <ele>50</ele>
        <time>2014-11-30T08:38:14Z</time>
      </trkpt>
      <trkpt lat="47.01996" lon="-1.11719">
        <ele>51</ele>
        <time>2014-11-30T08:38:19Z</time>
      </trkpt>
      <trkpt lat="47.01983" lon="-1.11701">
        <ele>50</ele>
        <time>2014-11-30T08:38:23Z</time>
      </trkpt>
      <trkpt lat="47.01972" lon="-1.11675">
        <ele>49</ele>
        <time>2014-11-30T08:38:28Z</time>
      </trkpt>
      <trkpt lat="47.01961" lon="-1.11656">
        <ele>48</ele>
        <time>2014-11-30T08:38:32Z</time>
      </trkpt>
      <trkpt lat="47.0195" lon="-1.11638">
        <ele>47</ele>
        <time>2014-11-30T08:38:36Z</time>
      </trkpt>
      <trkpt lat="47.01939" lon="-1.11618">
        <ele>48</ele>
        <time>2014-11-30T08:38:40Z</time>
      </trkpt>
      <trkpt lat="47.01925" lon="-1.11603">
        <ele>48</ele>
        <time>2014-11-30T08:38:44Z</time>
      </trkpt>
      <trkpt lat="47.01909" lon="-1.11594">
        <ele>48</ele>
        <time>2014-11-30T08:38:48Z</time>
      </trkpt>
      <trkpt lat="47.01896" lon="-1.11581">
        <ele>48</ele>
        <time>2014-11-30T08:38:52Z</time>
      </trkpt>
      <trkpt lat="47.01886" lon="-1.11565">
        <ele>48</ele>
        <time>2014-11-30T08:38:56Z</time>
      </trkpt>
      <trkpt lat="47.01877" lon="-1.11548">
        <ele>48</ele>
        <time>2014-11-30T08:39:00Z</time>
      </trkpt>
      <trkpt lat="47.01867" lon="-1.11545">
        <ele>50</ele>
        <time>2014-11-30T08:39:04Z</time>
      </trkpt>
      <trkpt lat="47.01865" lon="-1.11555">
        <ele>49</ele>
        <time>2014-11-30T08:40:20Z</time>
      </trkpt>
      <trkpt lat="47.01852" lon="-1.11569">
        <ele>48</ele>
        <time>2014-11-30T08:40:25Z</time>
      </trkpt>
      <trkpt lat="47.0184" lon="-1.11581">
        <ele>48</ele>
        <time>2014-11-30T08:40:29Z</time>
      </trkpt>
      <trkpt lat="47.0183" lon="-1.11595">
        <ele>43</ele>
        <time>2014-11-30T08:40:33Z</time>
      </trkpt>
      <trkpt lat="47.01822" lon="-1.11611">
        <ele>43</ele>
        <time>2014-11-30T08:40:37Z</time>
      </trkpt>
      <trkpt lat="47.01819" lon="-1.11625">
        <ele>45</ele>
        <time>2014-11-30T08:40:42Z</time>
      </trkpt>
      <trkpt lat="47.01818" lon="-1.11635">
        <ele>51</ele>
        <time>2014-11-30T08:41:11Z</time>
      </trkpt>
      <trkpt lat="47.01815" lon="-1.11653">
        <ele>53</ele>
        <time>2014-11-30T08:41:16Z</time>
      </trkpt>
      <trkpt lat="47.01813" lon="-1.11664">
        <ele>53</ele>
        <time>2014-11-30T08:41:21Z</time>
      </trkpt>
      <trkpt lat="47.01809" lon="-1.11676">
        <ele>53</ele>
        <time>2014-11-30T08:41:31Z</time>
      </trkpt>
      <trkpt lat="47.01806" lon="-1.11688">
        <ele>56</ele>
        <time>2014-11-30T08:41:49Z</time>
      </trkpt>
      <trkpt lat="47.01801" lon="-1.11698">
        <ele>59</ele>
        <time>2014-11-30T08:42:00Z</time>
      </trkpt>
      <trkpt lat="47.01797" lon="-1.11709">
        <ele>61</ele>
        <time>2014-11-30T08:42:09Z</time>
      </trkpt>
      <trkpt lat="47.0179" lon="-1.11717">
        <ele>65</ele>
        <time>2014-11-30T08:42:21Z</time>
      </trkpt>
      <trkpt lat="47.01783" lon="-1.11724">
        <ele>67</ele>
        <time>2014-11-30T08:42:31Z</time>
      </trkpt>
      <trkpt lat="47.01776" lon="-1.11731">
        <ele>67</ele>
        <time>2014-11-30T08:42:41Z</time>
      </trkpt>
      <trkpt lat="47.01768" lon="-1.11736">
        <ele>69</ele>
        <time>2014-11-30T08:42:50Z</time>
      </trkpt>
      <trkpt lat="47.0176" lon="-1.11739">
        <ele>74</ele>
        <time>2014-11-30T08:43:02Z</time>
      </trkpt>
      <trkpt lat="47.01751" lon="-1.11743">
        <ele>74</ele>
        <time>2014-11-30T08:43:12Z</time>
      </trkpt>
      <trkpt lat="47.01744" lon="-1.11748">
        <ele>73</ele>
        <time>2014-11-30T08:43:20Z</time>
      </trkpt>
      <trkpt lat="47.01735" lon="-1.11749">
        <ele>77</ele>
        <time>2014-11-30T08:43:28Z</time>
      </trkpt>
      <trkpt lat="47.01727" lon="-1.11752">
        <ele>80</ele>
        <time>2014-11-30T08:43:37Z</time>
      </trkpt>
      <trkpt lat="47.01719" lon="-1.11754">
        <ele>82</ele>
        <time>2014-11-30T08:43:46Z</time>
      </trkpt>
      <trkpt lat="47.0171" lon="-1.11758">
        <ele>85</ele>
        <time>2014-11-30T08:43:57Z</time>
      </trkpt>
      <trkpt lat="47.01703" lon="-1.11764">
        <ele>79</ele>
        <time>2014-11-30T08:44:13Z</time>
      </trkpt>
      <trkpt lat="47.01693" lon="-1.11765">
        <ele>78</ele>
        <time>2014-11-30T08:44:18Z</time>
      </trkpt>
      <trkpt lat="47.01684" lon="-1.11764">
        <ele>77</ele>
        <time>2014-11-30T08:44:23Z</time>
      </trkpt>
      <trkpt lat="47.01673" lon="-1.11762">
        <ele>76</ele>
        <time>2014-11-30T08:44:27Z</time>
      </trkpt>
      <trkpt lat="47.01653" lon="-1.11763">
        <ele>76</ele>
        <time>2014-11-30T08:44:32Z</time>
      </trkpt>
      <trkpt lat="47.01636" lon="-1.11767">
        <ele>77</ele>
        <time>2014-11-30T08:44:36Z</time>
      </trkpt>
      <trkpt lat="47.01619" lon="-1.11773">
        <ele>77</ele>
        <time>2014-11-30T08:44:40Z</time>
      </trkpt>
      <trkpt lat="47.01604" lon="-1.11783">
        <ele>77</ele>
        <time>2014-11-30T08:44:44Z</time>
      </trkpt>
      <trkpt lat="47.01599" lon="-1.11801">
        <ele>78</ele>
        <time>2014-11-30T08:44:48Z</time>
      </trkpt>
      <trkpt lat="47.01597" lon="-1.11825">
        <ele>78</ele>
        <time>2014-11-30T08:44:53Z</time>
      </trkpt>
      <trkpt lat="47.01594" lon="-1.11843">
        <ele>79</ele>
        <time>2014-11-30T08:44:57Z</time>
      </trkpt>
      <trkpt lat="47.01593" lon="-1.11863">
        <ele>77</ele>
        <time>2014-11-30T08:45:01Z</time>
      </trkpt>
      <trkpt lat="47.01591" lon="-1.11886">
        <ele>77</ele>
        <time>2014-11-30T08:45:06Z</time>
      </trkpt>
      <trkpt lat="47.01589" lon="-1.11906">
        <ele>76</ele>
        <time>2014-11-30T08:45:11Z</time>
      </trkpt>
      <trkpt lat="47.01577" lon="-1.11903">
        <ele>77</ele>
        <time>2014-11-30T08:45:15Z</time>
      </trkpt>
      <trkpt lat="47.01554" lon="-1.11881">
        <ele>75</ele>
        <time>2014-11-30T08:45:20Z</time>
      </trkpt>
      <trkpt lat="47.0153" lon="-1.1187">
        <ele>72</ele>
        <time>2014-11-30T08:45:24Z</time>
      </trkpt>
      <trkpt lat="47.01507" lon="-1.11859">
        <ele>69</ele>
        <time>2014-11-30T08:45:28Z</time>
      </trkpt>
      <trkpt lat="47.01499" lon="-1.11845">
        <ele>68</ele>
        <time>2014-11-30T08:45:33Z</time>
      </trkpt>
      <trkpt lat="47.01504" lon="-1.11829">
        <ele>69</ele>
        <time>2014-11-30T08:45:37Z</time>
      </trkpt>
      <trkpt lat="47.01512" lon="-1.11814">
        <ele>69</ele>
        <time>2014-11-30T08:45:41Z</time>
      </trkpt>
      <trkpt lat="47.01519" lon="-1.11801">
        <ele>69</ele>
        <time>2014-11-30T08:45:45Z</time>
      </trkpt>
      <trkpt lat="47.01525" lon="-1.11782">
        <ele>69</ele>
        <time>2014-11-30T08:45:50Z</time>
      </trkpt>
      <trkpt lat="47.01529" lon="-1.11759">
        <ele>67</ele>
        <time>2014-11-30T08:45:55Z</time>
      </trkpt>
      <trkpt lat="47.01536" lon="-1.11739">
        <ele>66</ele>
        <time>2014-11-30T08:45:59Z</time>
      </trkpt>
      <trkpt lat="47.01545" lon="-1.11712">
        <ele>65</ele>
        <time>2014-11-30T08:46:04Z</time>
      </trkpt>
      <trkpt lat="47.01561" lon="-1.11686">
        <ele>62</ele>
        <time>2014-11-30T08:46:09Z</time>
      </trkpt>
      <trkpt lat="47.01574" lon="-1.11669">
        <ele>59</ele>
        <time>2014-11-30T08:46:13Z</time>
      </trkpt>
      <trkpt lat="47.0158" lon="-1.11665">
        <ele>57</ele>
        <time>2014-11-30T08:46:19Z</time>
      </trkpt>
      <trkpt lat="47.01588" lon="-1.11662">
        <ele>57</ele>
        <time>2014-11-30T08:46:25Z</time>
      </trkpt>
      <trkpt lat="47.01597" lon="-1.11672">
        <ele>55</ele>
        <time>2014-11-30T08:46:30Z</time>
      </trkpt>
      <trkpt lat="47.01606" lon="-1.11684">
        <ele>57</ele>
        <time>2014-11-30T08:46:34Z</time>
      </trkpt>
      <trkpt lat="47.01613" lon="-1.11694">
        <ele>57</ele>
        <time>2014-11-30T08:46:38Z</time>
      </trkpt>
      <trkpt lat="47.0162" lon="-1.11705">
        <ele>58</ele>
        <time>2014-11-30T08:46:42Z</time>
      </trkpt>
      <trkpt lat="47.01627" lon="-1.1171">
        <ele>60</ele>
        <time>2014-11-30T08:46:46Z</time>
      </trkpt>
      <trkpt lat="47.01637" lon="-1.11717">
        <ele>61</ele>
        <time>2014-11-30T08:46:50Z</time>
      </trkpt>
      <trkpt lat="47.01648" lon="-1.11719">
        <ele>58</ele>
        <time>2014-11-30T08:46:55Z</time>
      </trkpt>
      <trkpt lat="47.01661" lon="-1.11716">
        <ele>59</ele>
        <time>2014-11-30T08:46:59Z</time>
      </trkpt>
      <trkpt lat="47.01677" lon="-1.11718">
        <ele>58</ele>
        <time>2014-11-30T08:47:04Z</time>
      </trkpt>
      <trkpt lat="47.01685" lon="-1.11723">
        <ele>58</ele>
        <time>2014-11-30T08:47:08Z</time>
      </trkpt>
      <trkpt lat="47.01694" lon="-1.11725">
        <ele>55</ele>
        <time>2014-11-30T08:47:14Z</time>
      </trkpt>
      <trkpt lat="47.01703" lon="-1.11722">
        <ele>55</ele>
        <time>2014-11-30T08:47:18Z</time>
      </trkpt>
      <trkpt lat="47.01712" lon="-1.11724">
        <ele>57</ele>
        <time>2014-11-30T08:47:22Z</time>
      </trkpt>
      <trkpt lat="47.01725" lon="-1.11724">
        <ele>56</ele>
        <time>2014-11-30T08:47:27Z</time>
      </trkpt>
      <trkpt lat="47.01733" lon="-1.11724">
        <ele>62</ele>
        <time>2014-11-30T08:47:48Z</time>
      </trkpt>
      <trkpt lat="47.01741" lon="-1.11723">
        <ele>64</ele>
        <time>2014-11-30T08:47:55Z</time>
      </trkpt>
      <trkpt lat="47.0175" lon="-1.11723">
        <ele>71</ele>
        <time>2014-11-30T08:48:01Z</time>
      </trkpt>
      <trkpt lat="47.01758" lon="-1.11723">
        <ele>65</ele>
        <time>2014-11-30T08:48:05Z</time>
      </trkpt>
      <trkpt lat="47.01769" lon="-1.11718">
        <ele>62</ele>
        <time>2014-11-30T08:48:10Z</time>
      </trkpt>
      <trkpt lat="47.01777" lon="-1.11721">
        <ele>66</ele>
        <time>2014-11-30T08:48:14Z</time>
      </trkpt>
      <trkpt lat="47.01784" lon="-1.11723">
        <ele>64</ele>
        <time>2014-11-30T08:48:18Z</time>
      </trkpt>
      <trkpt lat="47.01793" lon="-1.11719">
        <ele>61</ele>
        <time>2014-11-30T08:48:23Z</time>
      </trkpt>
      <trkpt lat="47.01797" lon="-1.11708">
        <ele>57</ele>
        <time>2014-11-30T08:48:28Z</time>
      </trkpt>
      <trkpt lat="47.01789" lon="-1.11705">
        <ele>55</ele>
        <time>2014-11-30T08:48:37Z</time>
      </trkpt>
      <trkpt lat="47.01781" lon="-1.117">
        <ele>56</ele>
        <time>2014-11-30T08:48:51Z</time>
      </trkpt>
      <trkpt lat="47.01773" lon="-1.117">
        <ele>56</ele>
        <time>2014-11-30T08:48:56Z</time>
      </trkpt>
      <trkpt lat="47.01757" lon="-1.11702">
        <ele>51</ele>
        <time>2014-11-30T08:49:01Z</time>
      </trkpt>
      <trkpt lat="47.01746" lon="-1.11702">
        <ele>51</ele>
        <time>2014-11-30T08:49:05Z</time>
      </trkpt>
      <trkpt lat="47.01732" lon="-1.11704">
        <ele>51</ele>
        <time>2014-11-30T08:49:09Z</time>
      </trkpt>
      <trkpt lat="47.01713" lon="-1.11701">
        <ele>51</ele>
        <time>2014-11-30T08:49:14Z</time>
      </trkpt>
      <trkpt lat="47.01698" lon="-1.11701">
        <ele>52</ele>
        <time>2014-11-30T08:49:18Z</time>
      </trkpt>
      <trkpt lat="47.01683" lon="-1.117">
        <ele>52</ele>
        <time>2014-11-30T08:49:22Z</time>
      </trkpt>
      <trkpt lat="47.01668" lon="-1.11695">
        <ele>50</ele>
        <time>2014-11-30T08:49:26Z</time>
      </trkpt>
      <trkpt lat="47.0165" lon="-1.11693">
        <ele>48</ele>
        <time>2014-11-30T08:49:30Z</time>
      </trkpt>
      <trkpt lat="47.01629" lon="-1.11687">
        <ele>47</ele>
        <time>2014-11-30T08:49:35Z</time>
      </trkpt>
      <trkpt lat="47.01614" lon="-1.11675">
        <ele>46</ele>
        <time>2014-11-30T08:49:39Z</time>
      </trkpt>
      <trkpt lat="47.01602" lon="-1.11657">
        <ele>48</ele>
        <time>2014-11-30T08:49:43Z</time>
      </trkpt>
      <trkpt lat="47.01587" lon="-1.11635">
        <ele>50</ele>
        <time>2014-11-30T08:49:48Z</time>
      </trkpt>
      <trkpt lat="47.01563" lon="-1.11635">
        <ele>51</ele>
        <time>2014-11-30T08:49:53Z</time>
      </trkpt>
      <trkpt lat="47.01546" lon="-1.11641">
        <ele>50</ele>
        <time>2014-11-30T08:49:57Z</time>
      </trkpt>
      <trkpt lat="47.01531" lon="-1.11655">
        <ele>50</ele>
        <time>2014-11-30T08:50:01Z</time>
      </trkpt>
      <trkpt lat="47.01518" lon="-1.11675">
        <ele>50</ele>
        <time>2014-11-30T08:50:05Z</time>
      </trkpt>
      <trkpt lat="47.01504" lon="-1.11701">
        <ele>49</ele>
        <time>2014-11-30T08:50:10Z</time>
      </trkpt>
      <trkpt lat="47.01494" lon="-1.11725">
        <ele>48</ele>
        <time>2014-11-30T08:50:14Z</time>
      </trkpt>
      <trkpt lat="47.01485" lon="-1.11749">
        <ele>50</ele>
        <time>2014-11-30T08:50:18Z</time>
      </trkpt>
      <trkpt lat="47.01474" lon="-1.11779">
        <ele>51</ele>
        <time>2014-11-30T08:50:23Z</time>
      </trkpt>
      <trkpt lat="47.01463" lon="-1.118">
        <ele>50</ele>
        <time>2014-11-30T08:50:27Z</time>
      </trkpt>
      <trkpt lat="47.0145" lon="-1.11821">
        <ele>52</ele>
        <time>2014-11-30T08:50:31Z</time>
      </trkpt>
      <trkpt lat="47.01436" lon="-1.1184">
        <ele>51</ele>
        <time>2014-11-30T08:50:35Z</time>
      </trkpt>
      <trkpt lat="47.01423" lon="-1.11851">
        <ele>51</ele>
        <time>2014-11-30T08:50:39Z</time>
      </trkpt>
      <trkpt lat="47.01419" lon="-1.11842">
        <ele>51</ele>
        <time>2014-11-30T08:50:44Z</time>
      </trkpt>
      <trkpt lat="47.01416" lon="-1.11823">
        <ele>51</ele>
        <time>2014-11-30T08:50:49Z</time>
      </trkpt>
      <trkpt lat="47.01406" lon="-1.11815">
        <ele>54</ele>
        <time>2014-11-30T08:50:54Z</time>
      </trkpt>
      <trkpt lat="47.01394" lon="-1.11813">
        <ele>53</ele>
        <time>2014-11-30T08:50:58Z</time>
      </trkpt>
      <trkpt lat="47.0138" lon="-1.11819">
        <ele>53</ele>
        <time>2014-11-30T08:51:02Z</time>
      </trkpt>
      <trkpt lat="47.01365" lon="-1.11818">
        <ele>54</ele>
        <time>2014-11-30T08:51:06Z</time>
      </trkpt>
      <trkpt lat="47.01351" lon="-1.11815">
        <ele>55</ele>
        <time>2014-11-30T08:51:11Z</time>
      </trkpt>
      <trkpt lat="47.01341" lon="-1.11813">
        <ele>55</ele>
        <time>2014-11-30T08:51:15Z</time>
      </trkpt>
      <trkpt lat="47.01332" lon="-1.11814">
        <ele>56</ele>
        <time>2014-11-30T08:51:21Z</time>
      </trkpt>
      <trkpt lat="47.01332" lon="-1.11827">
        <ele>55</ele>
        <time>2014-11-30T08:53:12Z</time>
      </trkpt>
      <trkpt lat="47.01323" lon="-1.11824">
        <ele>55</ele>
        <time>2014-11-30T08:54:07Z</time>
      </trkpt>
      <trkpt lat="47.01328" lon="-1.11813">
        <ele>53</ele>
        <time>2014-11-30T08:56:16Z</time>
      </trkpt>
      <trkpt lat="47.01323" lon="-1.11821">
        <ele>55</ele>
        <time>2014-11-30T08:57:27Z</time>
      </trkpt>
      <trkpt lat="47.01314" lon="-1.11822">
        <ele>57</ele>
        <time>2014-11-30T08:57:32Z</time>
      </trkpt>
      <trkpt lat="47.01307" lon="-1.11824">
        <ele>57</ele>
        <time>2014-11-30T08:57:37Z</time>
      </trkpt>
      <trkpt lat="47.01304" lon="-1.11844">
        <ele>54</ele>
        <time>2014-11-30T08:57:42Z</time>
      </trkpt>
      <trkpt lat="47.01308" lon="-1.11873">
        <ele>54</ele>
        <time>2014-11-30T08:57:47Z</time>
      </trkpt>
      <trkpt lat="47.01311" lon="-1.11894">
        <ele>53</ele>
        <time>2014-11-30T08:57:51Z</time>
      </trkpt>
      <trkpt lat="47.01309" lon="-1.11915">
        <ele>54</ele>
        <time>2014-11-30T08:57:56Z</time>
      </trkpt>
      <trkpt lat="47.01288" lon="-1.11914">
        <ele>52</ele>
        <time>2014-11-30T08:58:00Z</time>
      </trkpt>
      <trkpt lat="47.01261" lon="-1.11927">
        <ele>52</ele>
        <time>2014-11-30T08:58:05Z</time>
      </trkpt>
      <trkpt lat="47.01241" lon="-1.11934">
        <ele>52</ele>
        <time>2014-11-30T08:58:09Z</time>
      </trkpt>
      <trkpt lat="47.01217" lon="-1.11939">
        <ele>51</ele>
        <time>2014-11-30T08:58:14Z</time>
      </trkpt>
      <trkpt lat="47.01193" lon="-1.11935">
        <ele>51</ele>
        <time>2014-11-30T08:58:19Z</time>
      </trkpt>
      <trkpt lat="47.01171" lon="-1.11931">
        <ele>51</ele>
        <time>2014-11-30T08:58:24Z</time>
      </trkpt>
      <trkpt lat="47.01152" lon="-1.11929">
        <ele>52</ele>
        <time>2014-11-30T08:58:28Z</time>
      </trkpt>
      <trkpt lat="47.01139" lon="-1.11921">
        <ele>59</ele>
        <time>2014-11-30T08:58:32Z</time>
      </trkpt>
      <trkpt lat="47.01123" lon="-1.11911">
        <ele>58</ele>
        <time>2014-11-30T08:58:36Z</time>
      </trkpt>
      <trkpt lat="47.01106" lon="-1.11899">
        <ele>63</ele>
        <time>2014-11-30T08:58:40Z</time>
      </trkpt>
      <trkpt lat="47.01091" lon="-1.1189">
        <ele>61</ele>
        <time>2014-11-30T08:58:44Z</time>
      </trkpt>
      <trkpt lat="47.01073" lon="-1.11873">
        <ele>63</ele>
        <time>2014-11-30T08:58:49Z</time>
      </trkpt>
      <trkpt lat="47.01056" lon="-1.11858">
        <ele>65</ele>
        <time>2014-11-30T08:58:53Z</time>
      </trkpt>
      <trkpt lat="47.01044" lon="-1.11846">
        <ele>62</ele>
        <time>2014-11-30T08:58:57Z</time>
      </trkpt>
      <trkpt lat="47.01024" lon="-1.11831">
        <ele>58</ele>
        <time>2014-11-30T08:59:01Z</time>
      </trkpt>
      <trkpt lat="47.01013" lon="-1.11815">
        <ele>57</ele>
        <time>2014-11-30T08:59:05Z</time>
      </trkpt>
      <trkpt lat="47.01008" lon="-1.11799">
        <ele>56</ele>
        <time>2014-11-30T08:59:10Z</time>
      </trkpt>
      <trkpt lat="47.01011" lon="-1.11789">
        <ele>61</ele>
        <time>2014-11-30T08:59:16Z</time>
      </trkpt>
      <trkpt lat="47.01019" lon="-1.11784">
        <ele>62</ele>
        <time>2014-11-30T08:59:22Z</time>
      </trkpt>
      <trkpt lat="47.01026" lon="-1.11788">
        <ele>63</ele>
        <time>2014-11-30T08:59:27Z</time>
      </trkpt>
      <trkpt lat="47.01035" lon="-1.11784">
        <ele>63</ele>
        <time>2014-11-30T08:59:33Z</time>
      </trkpt>
      <trkpt lat="47.01041" lon="-1.11776">
        <ele>62</ele>
        <time>2014-11-30T08:59:39Z</time>
      </trkpt>
      <trkpt lat="47.01048" lon="-1.11769">
        <ele>60</ele>
        <time>2014-11-30T08:59:44Z</time>
      </trkpt>
      <trkpt lat="47.01054" lon="-1.1176">
        <ele>64</ele>
        <time>2014-11-30T08:59:50Z</time>
      </trkpt>
      <trkpt lat="47.01058" lon="-1.11748">
        <ele>67</ele>
        <time>2014-11-30T08:59:57Z</time>
      </trkpt>
      <trkpt lat="47.0106" lon="-1.11737">
        <ele>69</ele>
        <time>2014-11-30T09:00:03Z</time>
      </trkpt>
      <trkpt lat="47.01061" lon="-1.11725">
        <ele>70</ele>
        <time>2014-11-30T09:00:09Z</time>
      </trkpt>
      <trkpt lat="47.01065" lon="-1.11715">
        <ele>72</ele>
        <time>2014-11-30T09:00:16Z</time>
      </trkpt>
      <trkpt lat="47.01071" lon="-1.11705">
        <ele>77</ele>
        <time>2014-11-30T09:00:23Z</time>
      </trkpt>
      <trkpt lat="47.01076" lon="-1.11697">
        <ele>78</ele>
        <time>2014-11-30T09:00:29Z</time>
      </trkpt>
      <trkpt lat="47.01083" lon="-1.11689">
        <ele>77</ele>
        <time>2014-11-30T09:00:34Z</time>
      </trkpt>
      <trkpt lat="47.01087" lon="-1.11681">
        <ele>76</ele>
        <time>2014-11-30T09:00:38Z</time>
      </trkpt>
      <trkpt lat="47.01092" lon="-1.11673">
        <ele>77</ele>
        <time>2014-11-30T09:00:42Z</time>
      </trkpt>
      <trkpt lat="47.01097" lon="-1.11663">
        <ele>69</ele>
        <time>2014-11-30T09:00:46Z</time>
      </trkpt>
      <trkpt lat="47.01101" lon="-1.11652">
        <ele>68</ele>
        <time>2014-11-30T09:00:50Z</time>
      </trkpt>
      <trkpt lat="47.0111" lon="-1.11639">
        <ele>67</ele>
        <time>2014-11-30T09:00:55Z</time>
      </trkpt>
      <trkpt lat="47.01115" lon="-1.11631">
        <ele>70</ele>
        <time>2014-11-30T09:00:59Z</time>
      </trkpt>
      <trkpt lat="47.0112" lon="-1.11621">
        <ele>69</ele>
        <time>2014-11-30T09:01:03Z</time>
      </trkpt>
      <trkpt lat="47.01124" lon="-1.1161">
        <ele>67</ele>
        <time>2014-11-30T09:01:07Z</time>
      </trkpt>
      <trkpt lat="47.01127" lon="-1.11595">
        <ele>70</ele>
        <time>2014-11-30T09:01:12Z</time>
      </trkpt>
      <trkpt lat="47.01124" lon="-1.11581">
        <ele>74</ele>
        <time>2014-11-30T09:01:17Z</time>
      </trkpt>
      <trkpt lat="47.01119" lon="-1.11571">
        <ele>76</ele>
        <time>2014-11-30T09:01:22Z</time>
      </trkpt>
      <trkpt lat="47.01116" lon="-1.1156">
        <ele>78</ele>
        <time>2014-11-30T09:01:27Z</time>
      </trkpt>
      <trkpt lat="47.01112" lon="-1.11549">
        <ele>78</ele>
        <time>2014-11-30T09:01:32Z</time>
      </trkpt>
      <trkpt lat="47.01114" lon="-1.11537">
        <ele>81</ele>
        <time>2014-11-30T09:01:38Z</time>
      </trkpt>
      <trkpt lat="47.01121" lon="-1.11528">
        <ele>79</ele>
        <time>2014-11-30T09:01:43Z</time>
      </trkpt>
      <trkpt lat="47.01135" lon="-1.11523">
        <ele>79</ele>
        <time>2014-11-30T09:01:47Z</time>
      </trkpt>
      <trkpt lat="47.01149" lon="-1.11518">
        <ele>79</ele>
        <time>2014-11-30T09:01:51Z</time>
      </trkpt>
      <trkpt lat="47.01171" lon="-1.11514">
        <ele>79</ele>
        <time>2014-11-30T09:01:56Z</time>
      </trkpt>
      <trkpt lat="47.01193" lon="-1.11514">
        <ele>79</ele>
        <time>2014-11-30T09:02:00Z</time>
      </trkpt>
      <trkpt lat="47.01219" lon="-1.11516">
        <ele>78</ele>
        <time>2014-11-30T09:02:05Z</time>
      </trkpt>
      <trkpt lat="47.01237" lon="-1.11494">
        <ele>77</ele>
        <time>2014-11-30T09:02:10Z</time>
      </trkpt>
      <trkpt lat="47.01234" lon="-1.11465">
        <ele>80</ele>
        <time>2014-11-30T09:02:14Z</time>
      </trkpt>
      <trkpt lat="47.01237" lon="-1.11443">
        <ele>81</ele>
        <time>2014-11-30T09:02:18Z</time>
      </trkpt>
      <trkpt lat="47.01238" lon="-1.11424">
        <ele>82</ele>
        <time>2014-11-30T09:02:22Z</time>
      </trkpt>
      <trkpt lat="47.01241" lon="-1.11406">
        <ele>83</ele>
        <time>2014-11-30T09:02:26Z</time>
      </trkpt>
      <trkpt lat="47.01245" lon="-1.11387">
        <ele>84</ele>
        <time>2014-11-30T09:02:30Z</time>
      </trkpt>
      <trkpt lat="47.01249" lon="-1.11368">
        <ele>85</ele>
        <time>2014-11-30T09:02:34Z</time>
      </trkpt>
      <trkpt lat="47.01253" lon="-1.11351">
        <ele>85</ele>
        <time>2014-11-30T09:02:38Z</time>
      </trkpt>
      <trkpt lat="47.01257" lon="-1.1133">
        <ele>86</ele>
        <time>2014-11-30T09:02:43Z</time>
      </trkpt>
      <trkpt lat="47.01261" lon="-1.11309">
        <ele>82</ele>
        <time>2014-11-30T09:02:48Z</time>
      </trkpt>
      <trkpt lat="47.01263" lon="-1.11292">
        <ele>77</ele>
        <time>2014-11-30T09:02:52Z</time>
      </trkpt>
      <trkpt lat="47.01266" lon="-1.11274">
        <ele>77</ele>
        <time>2014-11-30T09:02:56Z</time>
      </trkpt>
      <trkpt lat="47.01269" lon="-1.11252">
        <ele>78</ele>
        <time>2014-11-30T09:03:01Z</time>
      </trkpt>
      <trkpt lat="47.01272" lon="-1.11234">
        <ele>79</ele>
        <time>2014-11-30T09:03:05Z</time>
      </trkpt>
      <trkpt lat="47.01276" lon="-1.11211">
        <ele>79</ele>
        <time>2014-11-30T09:03:10Z</time>
      </trkpt>
      <trkpt lat="47.0128" lon="-1.11193">
        <ele>80</ele>
        <time>2014-11-30T09:03:14Z</time>
      </trkpt>
      <trkpt lat="47.01286" lon="-1.11173">
        <ele>85</ele>
        <time>2014-11-30T09:03:19Z</time>
      </trkpt>
      <trkpt lat="47.013" lon="-1.11169">
        <ele>91</ele>
        <time>2014-11-30T09:03:23Z</time>
      </trkpt>
      <trkpt lat="47.01317" lon="-1.11158">
        <ele>92</ele>
        <time>2014-11-30T09:03:27Z</time>
      </trkpt>
      <trkpt lat="47.01326" lon="-1.11133">
        <ele>92</ele>
        <time>2014-11-30T09:03:32Z</time>
      </trkpt>
      <trkpt lat="47.01337" lon="-1.11109">
        <ele>94</ele>
        <time>2014-11-30T09:03:37Z</time>
      </trkpt>
      <trkpt lat="47.01349" lon="-1.11096">
        <ele>95</ele>
        <time>2014-11-30T09:03:41Z</time>
      </trkpt>
      <trkpt lat="47.01353" lon="-1.11069">
        <ele>96</ele>
        <time>2014-11-30T09:03:46Z</time>
      </trkpt>
      <trkpt lat="47.01343" lon="-1.11041">
        <ele>96</ele>
        <time>2014-11-30T09:03:50Z</time>
      </trkpt>
      <trkpt lat="47.01334" lon="-1.11011">
        <ele>97</ele>
        <time>2014-11-30T09:03:55Z</time>
      </trkpt>
      <trkpt lat="47.0133" lon="-1.10977">
        <ele>96</ele>
        <time>2014-11-30T09:04:00Z</time>
      </trkpt>
      <trkpt lat="47.01326" lon="-1.10948">
        <ele>96</ele>
        <time>2014-11-30T09:04:04Z</time>
      </trkpt>
      <trkpt lat="47.01323" lon="-1.1092">
        <ele>96</ele>
        <time>2014-11-30T09:04:08Z</time>
      </trkpt>
      <trkpt lat="47.0132" lon="-1.10886">
        <ele>88</ele>
        <time>2014-11-30T09:04:13Z</time>
      </trkpt>
      <trkpt lat="47.01312" lon="-1.10854">
        <ele>90</ele>
        <time>2014-11-30T09:04:18Z</time>
      </trkpt>
      <trkpt lat="47.01305" lon="-1.10828">
        <ele>93</ele>
        <time>2014-11-30T09:04:22Z</time>
      </trkpt>
      <trkpt lat="47.013" lon="-1.10803">
        <ele>98</ele>
        <time>2014-11-30T09:04:26Z</time>
      </trkpt>
      <trkpt lat="47.01292" lon="-1.1077">
        <ele>98</ele>
        <time>2014-11-30T09:04:31Z</time>
      </trkpt>
      <trkpt lat="47.01288" lon="-1.10746">
        <ele>99</ele>
        <time>2014-11-30T09:04:35Z</time>
      </trkpt>
      <trkpt lat="47.01288" lon="-1.10734">
        <ele>99</ele>
        <time>2014-11-30T09:04:41Z</time>
      </trkpt>
      <trkpt lat="47.01287" lon="-1.10709">
        <ele>99</ele>
        <time>2014-11-30T09:04:41Z</time>
      </trkpt>
      <trkpt lat="47.01306" lon="-1.10545">
        <ele>95</ele>
        <time>2014-11-30T09:05:12Z</time>
      </trkpt>
      <trkpt lat="47.01349" lon="-1.10501">
        <ele>96</ele>
        <time>2014-11-30T09:05:16Z</time>
      </trkpt>
      <trkpt lat="47.01357" lon="-1.10476">
        <ele>95</ele>
        <time>2014-11-30T09:05:20Z</time>
      </trkpt>
      <trkpt lat="47.0137" lon="-1.10465">
        <ele>93</ele>
        <time>2014-11-30T09:05:25Z</time>
      </trkpt>
      <trkpt lat="47.01371" lon="-1.10458">
        <ele>91</ele>
        <time>2014-11-30T09:06:00Z</time>
      </trkpt>
      <trkpt lat="47.014" lon="-1.1045">
        <ele>88</ele>
        <time>2014-11-30T09:06:03Z</time>
      </trkpt>
      <trkpt lat="47.01409" lon="-1.10448">
        <ele>88</ele>
        <time>2014-11-30T09:06:06Z</time>
      </trkpt>
      <trkpt lat="47.01412" lon="-1.10447">
        <ele>88</ele>
        <time>2014-11-30T09:06:08Z</time>
      </trkpt>
      <trkpt lat="47.01418" lon="-1.10443">
        <ele>85</ele>
        <time>2014-11-30T09:06:13Z</time>
      </trkpt>
      <trkpt lat="47.01429" lon="-1.1043">
        <ele>78</ele>
        <time>2014-11-30T09:06:18Z</time>
      </trkpt>
      <trkpt lat="47.01435" lon="-1.10419">
        <ele>73</ele>
        <time>2014-11-30T09:06:23Z</time>
      </trkpt>
      <trkpt lat="47.01441" lon="-1.10414">
        <ele>76</ele>
        <time>2014-11-30T09:06:34Z</time>
      </trkpt>
      <trkpt lat="47.01448" lon="-1.10407">
        <ele>75</ele>
        <time>2014-11-30T09:06:40Z</time>
      </trkpt>
      <trkpt lat="47.01454" lon="-1.10402">
        <ele>76</ele>
        <time>2014-11-30T09:06:43Z</time>
      </trkpt>
      <trkpt lat="47.01463" lon="-1.10387">
        <ele>74</ele>
        <time>2014-11-30T09:06:48Z</time>
      </trkpt>
      <trkpt lat="47.01469" lon="-1.10356">
        <ele>72</ele>
        <time>2014-11-30T09:06:53Z</time>
      </trkpt>
      <trkpt lat="47.01469" lon="-1.10319">
        <ele>69</ele>
        <time>2014-11-30T09:07:14Z</time>
      </trkpt>
      <trkpt lat="47.01455" lon="-1.10192">
        <ele>62</ele>
        <time>2014-11-30T09:08:10Z</time>
      </trkpt>
      <trkpt lat="47.01408" lon="-1.09982">
        <ele>64</ele>
        <time>2014-11-30T09:08:45Z</time>
      </trkpt>
      <trkpt lat="47.01358" lon="-1.09863">
        <ele>62</ele>
        <time>2014-11-30T09:08:45Z</time>
      </trkpt>
      <trkpt lat="47.01342" lon="-1.09826">
        <ele>65</ele>
        <time>2014-11-30T09:09:00Z</time>
      </trkpt>
      <trkpt lat="47.01335" lon="-1.09818">
        <ele>67</ele>
        <time>2014-11-30T09:11:56Z</time>
      </trkpt>
      <trkpt lat="47.01333" lon="-1.09802">
        <ele>68</ele>
        <time>2014-11-30T09:12:00Z</time>
      </trkpt>
      <trkpt lat="47.01333" lon="-1.09779">
        <ele>68</ele>
        <time>2014-11-30T09:12:05Z</time>
      </trkpt>
      <trkpt lat="47.01331" lon="-1.09758">
        <ele>69</ele>
        <time>2014-11-30T09:12:09Z</time>
      </trkpt>
      <trkpt lat="47.01326" lon="-1.09739">
        <ele>69</ele>
        <time>2014-11-30T09:12:13Z</time>
      </trkpt>
      <trkpt lat="47.01322" lon="-1.09722">
        <ele>69</ele>
        <time>2014-11-30T09:12:17Z</time>
      </trkpt>
      <trkpt lat="47.01321" lon="-1.09711">
        <ele>69</ele>
        <time>2014-11-30T09:12:19Z</time>
      </trkpt>
      <trkpt lat="47.01321" lon="-1.09706">
        <ele>69</ele>
        <time>2014-11-30T09:12:44Z</time>
      </trkpt>
      <trkpt lat="47.01316" lon="-1.0963">
        <ele>70</ele>
        <time>2014-11-30T09:12:44Z</time>
      </trkpt>
      <trkpt lat="47.01317" lon="-1.09621">
        <ele>71</ele>
        <time>2014-11-30T09:12:50Z</time>
      </trkpt>
      <trkpt lat="47.0132" lon="-1.09609">
        <ele>72</ele>
        <time>2014-11-30T09:12:54Z</time>
      </trkpt>
      <trkpt lat="47.0132" lon="-1.09598">
        <ele>74</ele>
        <time>2014-11-30T09:13:00Z</time>
      </trkpt>
      <trkpt lat="47.01317" lon="-1.09586">
        <ele>75</ele>
        <time>2014-11-30T09:13:07Z</time>
      </trkpt>
      <trkpt lat="47.01308" lon="-1.09587">
        <ele>76</ele>
        <time>2014-11-30T09:13:14Z</time>
      </trkpt>
      <trkpt lat="47.01304" lon="-1.09588">
        <ele>78</ele>
        <time>2014-11-30T09:13:24Z</time>
      </trkpt>
      <trkpt lat="47.01296" lon="-1.0959">
        <ele>79</ele>
        <time>2014-11-30T09:13:52Z</time>
      </trkpt>
      <trkpt lat="47.01277" lon="-1.09591">
        <ele>79</ele>
        <time>2014-11-30T09:13:52Z</time>
      </trkpt>
      <trkpt lat="47.0127" lon="-1.09592">
        <ele>77</ele>
        <time>2014-11-30T09:14:23Z</time>
      </trkpt>
      <trkpt lat="47.01247" lon="-1.09604">
        <ele>80</ele>
        <time>2014-11-30T09:14:23Z</time>
      </trkpt>
      <trkpt lat="47.01235" lon="-1.09621">
        <ele>84</ele>
        <time>2014-11-30T09:14:54Z</time>
      </trkpt>
      <trkpt lat="47.01229" lon="-1.09624">
        <ele>83</ele>
        <time>2014-11-30T09:15:00Z</time>
      </trkpt>
      <trkpt lat="47.01213" lon="-1.09637">
        <ele>82</ele>
        <time>2014-11-30T09:15:23Z</time>
      </trkpt>
      <trkpt lat="47.01209" lon="-1.09641">
        <ele>84</ele>
        <time>2014-11-30T09:15:55Z</time>
      </trkpt>
      <trkpt lat="47.01185" lon="-1.09659">
        <ele>81</ele>
        <time>2014-11-30T09:15:57Z</time>
      </trkpt>
      <trkpt lat="47.01177" lon="-1.09663">
        <ele>78</ele>
        <time>2014-11-30T09:16:06Z</time>
      </trkpt>
      <trkpt lat="47.01169" lon="-1.09669">
        <ele>79</ele>
        <time>2014-11-30T09:16:16Z</time>
      </trkpt>
      <trkpt lat="47.01162" lon="-1.09675">
        <ele>78</ele>
        <time>2014-11-30T09:16:26Z</time>
      </trkpt>
      <trkpt lat="47.0116" lon="-1.09676">
        <ele>77</ele>
        <time>2014-11-30T09:16:57Z</time>
      </trkpt>
      <trkpt lat="47.01096" lon="-1.09663">
        <ele>95</ele>
        <time>2014-11-30T09:17:58Z</time>
      </trkpt>
      <trkpt lat="47.01092" lon="-1.09652">
        <ele>96</ele>
        <time>2014-11-30T09:18:11Z</time>
      </trkpt>
      <trkpt lat="47.01091" lon="-1.0964">
        <ele>100</ele>
        <time>2014-11-30T09:18:24Z</time>
      </trkpt>
      <trkpt lat="47.01092" lon="-1.09627">
        <ele>102</ele>
        <time>2014-11-30T09:18:38Z</time>
      </trkpt>
      <trkpt lat="47.01093" lon="-1.09615">
        <ele>102</ele>
        <time>2014-11-30T09:18:47Z</time>
      </trkpt>
      <trkpt lat="47.01095" lon="-1.09605">
        <ele>103</ele>
        <time>2014-11-30T09:18:55Z</time>
      </trkpt>
      <trkpt lat="47.01097" lon="-1.09593">
        <ele>104</ele>
        <time>2014-11-30T09:19:02Z</time>
      </trkpt>
      <trkpt lat="47.01092" lon="-1.09582">
        <ele>106</ele>
        <time>2014-11-30T09:19:12Z</time>
      </trkpt>
      <trkpt lat="47.01085" lon="-1.09579">
        <ele>102</ele>
        <time>2014-11-30T09:19:22Z</time>
      </trkpt>
      <trkpt lat="47.01076" lon="-1.09576">
        <ele>104</ele>
        <time>2014-11-30T09:19:27Z</time>
      </trkpt>
      <trkpt lat="47.01068" lon="-1.09576">
        <ele>105</ele>
        <time>2014-11-30T09:19:32Z</time>
      </trkpt>
      <trkpt lat="47.0106" lon="-1.09577">
        <ele>107</ele>
        <time>2014-11-30T09:19:37Z</time>
      </trkpt>
      <trkpt lat="47.01052" lon="-1.09581">
        <ele>108</ele>
        <time>2014-11-30T09:19:42Z</time>
      </trkpt>
      <trkpt lat="47.01043" lon="-1.09587">
        <ele>108</ele>
        <time>2014-11-30T09:19:47Z</time>
      </trkpt>
      <trkpt lat="47.01035" lon="-1.09593">
        <ele>106</ele>
        <time>2014-11-30T09:19:51Z</time>
      </trkpt>
      <trkpt lat="47.01026" lon="-1.09599">
        <ele>106</ele>
        <time>2014-11-30T09:19:56Z</time>
      </trkpt>
      <trkpt lat="47.01019" lon="-1.09603">
        <ele>108</ele>
        <time>2014-11-30T09:20:00Z</time>
      </trkpt>
      <trkpt lat="47.01013" lon="-1.09597">
        <ele>107</ele>
        <time>2014-11-30T09:20:04Z</time>
      </trkpt>
      <trkpt lat="47.0101" lon="-1.09584">
        <ele>108</ele>
        <time>2014-11-30T09:20:08Z</time>
      </trkpt>
      <trkpt lat="47.01004" lon="-1.09569">
        <ele>109</ele>
        <time>2014-11-30T09:20:13Z</time>
      </trkpt>
      <trkpt lat="47.00996" lon="-1.09553">
        <ele>110</ele>
        <time>2014-11-30T09:20:18Z</time>
      </trkpt>
      <trkpt lat="47.00989" lon="-1.0954">
        <ele>111</ele>
        <time>2014-11-30T09:20:22Z</time>
      </trkpt>
      <trkpt lat="47.00983" lon="-1.09526">
        <ele>111</ele>
        <time>2014-11-30T09:20:27Z</time>
      </trkpt>
      <trkpt lat="47.00976" lon="-1.09512">
        <ele>112</ele>
        <time>2014-11-30T09:20:30Z</time>
      </trkpt>
      <trkpt lat="47.00968" lon="-1.09495">
        <ele>112</ele>
        <time>2014-11-30T09:20:59Z</time>
      </trkpt>
      <trkpt lat="47.00903" lon="-1.09346">
        <ele>105</ele>
        <time>2014-11-30T09:21:53Z</time>
      </trkpt>
      <trkpt lat="47.00903" lon="-1.09346">
        <ele>105</ele>
        <time>2014-11-30T09:22:01Z</time>
      </trkpt>
      <trkpt lat="47.01043" lon="-1.08646">
        <ele>86</ele>
        <time>2014-11-30T09:22:32Z</time>
      </trkpt>
      <trkpt lat="47.01043" lon="-1.08646">
        <ele>86</ele>
        <time>2014-11-30T09:23:03Z</time>
      </trkpt>
      <trkpt lat="47.01015" lon="-1.08127">
        <ele>58</ele>
        <time>2014-11-30T09:23:08Z</time>
      </trkpt>
      <trkpt lat="47.01019" lon="-1.08104">
        <ele>59</ele>
        <time>2014-11-30T09:23:13Z</time>
      </trkpt>
      <trkpt lat="47.01022" lon="-1.08087">
        <ele>61</ele>
        <time>2014-11-30T09:23:17Z</time>
      </trkpt>
      <trkpt lat="47.01021" lon="-1.08067">
        <ele>58</ele>
        <time>2014-11-30T09:23:22Z</time>
      </trkpt>
      <trkpt lat="47.01021" lon="-1.08052">
        <ele>57</ele>
        <time>2014-11-30T09:23:26Z</time>
      </trkpt>
      <trkpt lat="47.01021" lon="-1.08039">
        <ele>57</ele>
        <time>2014-11-30T09:23:32Z</time>
      </trkpt>
      <trkpt lat="47.01021" lon="-1.08028">
        <ele>58</ele>
        <time>2014-11-30T09:23:37Z</time>
      </trkpt>
      <trkpt lat="47.01021" lon="-1.08016">
        <ele>61</ele>
        <time>2014-11-30T09:23:42Z</time>
      </trkpt>
      <trkpt lat="47.01018" lon="-1.08006">
        <ele>63</ele>
        <time>2014-11-30T09:23:46Z</time>
      </trkpt>
      <trkpt lat="47.01014" lon="-1.07995">
        <ele>65</ele>
        <time>2014-11-30T09:23:51Z</time>
      </trkpt>
      <trkpt lat="47.01009" lon="-1.07986">
        <ele>66</ele>
        <time>2014-11-30T09:23:56Z</time>
      </trkpt>
      <trkpt lat="47.01005" lon="-1.07976">
        <ele>67</ele>
        <time>2014-11-30T09:24:01Z</time>
      </trkpt>
      <trkpt lat="47.01" lon="-1.07967">
        <ele>69</ele>
        <time>2014-11-30T09:24:06Z</time>
      </trkpt>
      <trkpt lat="47.00994" lon="-1.07958">
        <ele>71</ele>
        <time>2014-11-30T09:24:14Z</time>
      </trkpt>
      <trkpt lat="47.00987" lon="-1.07947">
        <ele>72</ele>
        <time>2014-11-30T09:24:19Z</time>
      </trkpt>
      <trkpt lat="47.00984" lon="-1.07935">
        <ele>72</ele>
        <time>2014-11-30T09:24:25Z</time>
      </trkpt>
      <trkpt lat="47.00981" lon="-1.07925">
        <ele>72</ele>
        <time>2014-11-30T09:24:30Z</time>
      </trkpt>
      <trkpt lat="47.00978" lon="-1.07913">
        <ele>74</ele>
        <time>2014-11-30T09:24:35Z</time>
      </trkpt>
      <trkpt lat="47.00976" lon="-1.07903">
        <ele>73</ele>
        <time>2014-11-30T09:24:55Z</time>
      </trkpt>
      <trkpt lat="47.00965" lon="-1.07857">
        <ele>73</ele>
        <time>2014-11-30T09:25:00Z</time>
      </trkpt>
      <trkpt lat="47.0096" lon="-1.07842">
        <ele>74</ele>
        <time>2014-11-30T09:25:05Z</time>
      </trkpt>
      <trkpt lat="47.00956" lon="-1.07829">
        <ele>75</ele>
        <time>2014-11-30T09:25:09Z</time>
      </trkpt>
      <trkpt lat="47.00953" lon="-1.07819">
        <ele>76</ele>
        <time>2014-11-30T09:25:12Z</time>
      </trkpt>
      <trkpt lat="47.00952" lon="-1.07816">
        <ele>75</ele>
        <time>2014-11-30T09:25:35Z</time>
      </trkpt>
      <trkpt lat="47.00919" lon="-1.0773">
        <ele>80</ele>
        <time>2014-11-30T09:25:40Z</time>
      </trkpt>
      <trkpt lat="47.0091" lon="-1.07721">
        <ele>80</ele>
        <time>2014-11-30T09:25:45Z</time>
      </trkpt>
      <trkpt lat="47.00896" lon="-1.07695">
        <ele>81</ele>
        <time>2014-11-30T09:25:49Z</time>
      </trkpt>
      <trkpt lat="47.00887" lon="-1.07668">
        <ele>80</ele>
        <time>2014-11-30T09:25:54Z</time>
      </trkpt>
      <trkpt lat="47.00875" lon="-1.07644">
        <ele>81</ele>
        <time>2014-11-30T09:25:57Z</time>
      </trkpt>
      <trkpt lat="47.00859" lon="-1.07626">
        <ele>82</ele>
        <time>2014-11-30T09:26:01Z</time>
      </trkpt>
      <trkpt lat="47.00844" lon="-1.07615">
        <ele>81</ele>
        <time>2014-11-30T09:26:04Z</time>
      </trkpt>
      <trkpt lat="47.0083" lon="-1.07603">
        <ele>83</ele>
        <time>2014-11-30T09:26:08Z</time>
      </trkpt>
      <trkpt lat="47.00821" lon="-1.07582">
        <ele>82</ele>
        <time>2014-11-30T09:26:12Z</time>
      </trkpt>
      <trkpt lat="47.00814" lon="-1.07556">
        <ele>82</ele>
        <time>2014-11-30T09:26:17Z</time>
      </trkpt>
      <trkpt lat="47.00811" lon="-1.07536">
        <ele>83</ele>
        <time>2014-11-30T09:26:21Z</time>
      </trkpt>
      <trkpt lat="47.00801" lon="-1.07511">
        <ele>86</ele>
        <time>2014-11-30T09:26:26Z</time>
      </trkpt>
      <trkpt lat="47.00786" lon="-1.07485">
        <ele>87</ele>
        <time>2014-11-30T09:26:31Z</time>
      </trkpt>
      <trkpt lat="47.00772" lon="-1.07459">
        <ele>87</ele>
        <time>2014-11-30T09:26:36Z</time>
      </trkpt>
      <trkpt lat="47.00768" lon="-1.07441">
        <ele>88</ele>
        <time>2014-11-30T09:26:39Z</time>
      </trkpt>
      <trkpt lat="47.00758" lon="-1.07413">
        <ele>84</ele>
        <time>2014-11-30T09:26:44Z</time>
      </trkpt>
      <trkpt lat="47.00742" lon="-1.07383">
        <ele>88</ele>
        <time>2014-11-30T09:26:49Z</time>
      </trkpt>
      <trkpt lat="47.00734" lon="-1.07361">
        <ele>88</ele>
        <time>2014-11-30T09:26:52Z</time>
      </trkpt>
      <trkpt lat="47.00721" lon="-1.07323">
        <ele>89</ele>
        <time>2014-11-30T09:26:57Z</time>
      </trkpt>
      <trkpt lat="47.00713" lon="-1.07299">
        <ele>92</ele>
        <time>2014-11-30T09:27:00Z</time>
      </trkpt>
      <trkpt lat="47.00699" lon="-1.07259">
        <ele>92</ele>
        <time>2014-11-30T09:27:05Z</time>
      </trkpt>
      <trkpt lat="47.0069" lon="-1.07228">
        <ele>90</ele>
        <time>2014-11-30T09:27:10Z</time>
      </trkpt>
      <trkpt lat="47.00684" lon="-1.07194">
        <ele>89</ele>
        <time>2014-11-30T09:27:14Z</time>
      </trkpt>
      <trkpt lat="47.00681" lon="-1.07167">
        <ele>90</ele>
        <time>2014-11-30T09:27:19Z</time>
      </trkpt>
      <trkpt lat="47.00676" lon="-1.07136">
        <ele>90</ele>
        <time>2014-11-30T09:27:24Z</time>
      </trkpt>
      <trkpt lat="47.00671" lon="-1.07103">
        <ele>92</ele>
        <time>2014-11-30T09:27:29Z</time>
      </trkpt>
      <trkpt lat="47.00669" lon="-1.07067">
        <ele>91</ele>
        <time>2014-11-30T09:27:34Z</time>
      </trkpt>
      <trkpt lat="47.00669" lon="-1.07034">
        <ele>91</ele>
        <time>2014-11-30T09:27:39Z</time>
      </trkpt>
      <trkpt lat="47.00664" lon="-1.07009">
        <ele>91</ele>
        <time>2014-11-30T09:27:43Z</time>
      </trkpt>
      <trkpt lat="47.00657" lon="-1.06991">
        <ele>92</ele>
        <time>2014-11-30T09:27:47Z</time>
      </trkpt>
      <trkpt lat="47.00647" lon="-1.07006">
        <ele>90</ele>
        <time>2014-11-30T09:27:52Z</time>
      </trkpt>
      <trkpt lat="47.0063" lon="-1.07032">
        <ele>89</ele>
        <time>2014-11-30T09:27:56Z</time>
      </trkpt>
      <trkpt lat="47.00607" lon="-1.07055">
        <ele>88</ele>
        <time>2014-11-30T09:28:01Z</time>
      </trkpt>
      <trkpt lat="47.00587" lon="-1.07075">
        <ele>86</ele>
        <time>2014-11-30T09:28:05Z</time>
      </trkpt>
      <trkpt lat="47.00562" lon="-1.07106">
        <ele>84</ele>
        <time>2014-11-30T09:28:10Z</time>
      </trkpt>
      <trkpt lat="47.00556" lon="-1.07113">
        <ele>82</ele>
        <time>2014-11-30T09:28:11Z</time>
      </trkpt>
      <trkpt lat="47.00544" lon="-1.07127">
        <ele>80</ele>
        <time>2014-11-30T09:28:35Z</time>
      </trkpt>
      <trkpt lat="47.00544" lon="-1.07127">
        <ele>80</ele>
        <time>2014-11-30T09:29:03Z</time>
      </trkpt>
      <trkpt lat="47.00169" lon="-1.07311">
        <ele>78</ele>
        <time>2014-11-30T09:29:03Z</time>
      </trkpt>
      <trkpt lat="47.00118" lon="-1.07357">
        <ele>74</ele>
        <time>2014-11-30T09:29:13Z</time>
      </trkpt>
      <trkpt lat="47.00116" lon="-1.07362">
        <ele>74</ele>
        <time>2014-11-30T09:29:37Z</time>
      </trkpt>
      <trkpt lat="47.00091" lon="-1.07392">
        <ele>68</ele>
        <time>2014-11-30T09:29:37Z</time>
      </trkpt>
      <trkpt lat="47.00087" lon="-1.07386">
        <ele>74</ele>
        <time>2014-11-30T09:32:42Z</time>
      </trkpt>
      <trkpt lat="47.00121" lon="-1.07344">
        <ele>76</ele>
        <time>2014-11-30T09:32:47Z</time>
      </trkpt>
      <trkpt lat="47.00125" lon="-1.0733">
        <ele>77</ele>
        <time>2014-11-30T09:32:52Z</time>
      </trkpt>
      <trkpt lat="47.00117" lon="-1.07333">
        <ele>76</ele>
        <time>2014-11-30T09:33:05Z</time>
      </trkpt>
      <trkpt lat="47.00109" lon="-1.07338">
        <ele>76</ele>
        <time>2014-11-30T09:33:09Z</time>
      </trkpt>
      <trkpt lat="47.00098" lon="-1.07344">
        <ele>78</ele>
        <time>2014-11-30T09:33:14Z</time>
      </trkpt>
      <trkpt lat="47.00087" lon="-1.0735">
        <ele>76</ele>
        <time>2014-11-30T09:33:18Z</time>
      </trkpt>
      <trkpt lat="47.0007" lon="-1.07361">
        <ele>74</ele>
        <time>2014-11-30T09:33:23Z</time>
      </trkpt>
      <trkpt lat="47.00059" lon="-1.07369">
        <ele>73</ele>
        <time>2014-11-30T09:33:27Z</time>
      </trkpt>
      <trkpt lat="47.00052" lon="-1.07374">
        <ele>72</ele>
        <time>2014-11-30T09:33:30Z</time>
      </trkpt>
      <trkpt lat="47.00049" lon="-1.07379">
        <ele>74</ele>
        <time>2014-11-30T09:34:00Z</time>
      </trkpt>
      <trkpt lat="47.00024" lon="-1.07397">
        <ele>73</ele>
        <time>2014-11-30T09:34:00Z</time>
      </trkpt>
      <trkpt lat="47.00014" lon="-1.07405">
        <ele>72</ele>
        <time>2014-11-30T09:34:20Z</time>
      </trkpt>
      <trkpt lat="46.99893" lon="-1.07403">
        <ele>73</ele>
        <time>2014-11-30T09:35:21Z</time>
      </trkpt>
      <trkpt lat="46.99893" lon="-1.07403">
        <ele>73</ele>
        <time>2014-11-30T09:35:52Z</time>
      </trkpt>
      <trkpt lat="46.99816" lon="-1.07018">
        <ele>79</ele>
        <time>2014-11-30T09:35:57Z</time>
      </trkpt>
      <trkpt lat="46.99801" lon="-1.07013">
        <ele>79</ele>
        <time>2014-11-30T09:36:01Z</time>
      </trkpt>
      <trkpt lat="46.99787" lon="-1.07009">
        <ele>80</ele>
        <time>2014-11-30T09:36:05Z</time>
      </trkpt>
      <trkpt lat="46.99771" lon="-1.06998">
        <ele>81</ele>
        <time>2014-11-30T09:36:10Z</time>
      </trkpt>
      <trkpt lat="46.9976" lon="-1.06983">
        <ele>81</ele>
        <time>2014-11-30T09:36:14Z</time>
      </trkpt>
      <trkpt lat="46.99755" lon="-1.06968">
        <ele>82</ele>
        <time>2014-11-30T09:36:17Z</time>
      </trkpt>
      <trkpt lat="46.99752" lon="-1.06939">
        <ele>81</ele>
        <time>2014-11-30T09:36:22Z</time>
      </trkpt>
      <trkpt lat="46.99753" lon="-1.06922">
        <ele>81</ele>
        <time>2014-11-30T09:36:24Z</time>
      </trkpt>
      <trkpt lat="46.99754" lon="-1.06915">
        <ele>81</ele>
        <time>2014-11-30T09:37:00Z</time>
      </trkpt>
      <trkpt lat="46.99888" lon="-1.06825">
        <ele>78</ele>
        <time>2014-11-30T09:37:05Z</time>
      </trkpt>
      <trkpt lat="46.99887" lon="-1.06799">
        <ele>79</ele>
        <time>2014-11-30T09:37:09Z</time>
      </trkpt>
      <trkpt lat="46.99889" lon="-1.06764">
        <ele>81</ele>
        <time>2014-11-30T09:37:14Z</time>
      </trkpt>
      <trkpt lat="46.99891" lon="-1.0674">
        <ele>81</ele>
        <time>2014-11-30T09:37:18Z</time>
      </trkpt>
      <trkpt lat="46.99894" lon="-1.06717">
        <ele>82</ele>
        <time>2014-11-30T09:37:22Z</time>
      </trkpt>
      <trkpt lat="46.99897" lon="-1.06695">
        <ele>81</ele>
        <time>2014-11-30T09:37:26Z</time>
      </trkpt>
      <trkpt lat="46.99904" lon="-1.06676">
        <ele>82</ele>
        <time>2014-11-30T09:37:30Z</time>
      </trkpt>
      <trkpt lat="46.99913" lon="-1.06656">
        <ele>82</ele>
        <time>2014-11-30T09:37:34Z</time>
      </trkpt>
      <trkpt lat="46.99922" lon="-1.06638">
        <ele>83</ele>
        <time>2014-11-30T09:37:38Z</time>
      </trkpt>
      <trkpt lat="46.99935" lon="-1.06617">
        <ele>82</ele>
        <time>2014-11-30T09:37:43Z</time>
      </trkpt>
      <trkpt lat="46.9995" lon="-1.06596">
        <ele>83</ele>
        <time>2014-11-30T09:37:48Z</time>
      </trkpt>
      <trkpt lat="46.99962" lon="-1.06579">
        <ele>82</ele>
        <time>2014-11-30T09:37:52Z</time>
      </trkpt>
      <trkpt lat="46.99973" lon="-1.06561">
        <ele>81</ele>
        <time>2014-11-30T09:37:57Z</time>
      </trkpt>
      <trkpt lat="46.99982" lon="-1.06529">
        <ele>84</ele>
        <time>2014-11-30T09:38:02Z</time>
      </trkpt>
      <trkpt lat="46.99988" lon="-1.06503">
        <ele>83</ele>
        <time>2014-11-30T09:38:07Z</time>
      </trkpt>
      <trkpt lat="46.99992" lon="-1.06488">
        <ele>84</ele>
        <time>2014-11-30T09:38:10Z</time>
      </trkpt>
      <trkpt lat="46.99997" lon="-1.06467">
        <ele>84</ele>
        <time>2014-11-30T09:38:14Z</time>
      </trkpt>
      <trkpt lat="47.00003" lon="-1.06447">
        <ele>85</ele>
        <time>2014-11-30T09:38:18Z</time>
      </trkpt>
      <trkpt lat="47.00007" lon="-1.06425">
        <ele>86</ele>
        <time>2014-11-30T09:38:23Z</time>
      </trkpt>
      <trkpt lat="47.00007" lon="-1.06414">
        <ele>86</ele>
        <time>2014-11-30T09:38:25Z</time>
      </trkpt>
      <trkpt lat="47.00006" lon="-1.06398">
        <ele>86</ele>
        <time>2014-11-30T09:38:28Z</time>
      </trkpt>
      <trkpt lat="47.00005" lon="-1.0637">
        <ele>86</ele>
        <time>2014-11-30T09:38:33Z</time>
      </trkpt>
      <trkpt lat="47.00004" lon="-1.06359">
        <ele>86</ele>
        <time>2014-11-30T09:38:35Z</time>
      </trkpt>
      <trkpt lat="47.00003" lon="-1.06353">
        <ele>87</ele>
        <time>2014-11-30T09:38:42Z</time>
      </trkpt>
      <trkpt lat="46.99995" lon="-1.063">
        <ele>87</ele>
        <time>2014-11-30T09:38:47Z</time>
      </trkpt>
      <trkpt lat="46.99985" lon="-1.06271">
        <ele>88</ele>
        <time>2014-11-30T09:38:52Z</time>
      </trkpt>
      <trkpt lat="46.99975" lon="-1.06252">
        <ele>87</ele>
        <time>2014-11-30T09:38:56Z</time>
      </trkpt>
      <trkpt lat="46.99965" lon="-1.06235">
        <ele>86</ele>
        <time>2014-11-30T09:39:00Z</time>
      </trkpt>
      <trkpt lat="46.99955" lon="-1.06217">
        <ele>88</ele>
        <time>2014-11-30T09:39:04Z</time>
      </trkpt>
      <trkpt lat="46.99945" lon="-1.06193">
        <ele>87</ele>
        <time>2014-11-30T09:39:09Z</time>
      </trkpt>
      <trkpt lat="46.99937" lon="-1.06172">
        <ele>88</ele>
        <time>2014-11-30T09:39:13Z</time>
      </trkpt>
      <trkpt lat="46.99929" lon="-1.06152">
        <ele>91</ele>
        <time>2014-11-30T09:39:17Z</time>
      </trkpt>
      <trkpt lat="46.99922" lon="-1.06131">
        <ele>92</ele>
        <time>2014-11-30T09:39:21Z</time>
      </trkpt>
      <trkpt lat="46.99911" lon="-1.06104">
        <ele>89</ele>
        <time>2014-11-30T09:39:26Z</time>
      </trkpt>
      <trkpt lat="46.99903" lon="-1.0609">
        <ele>89</ele>
        <time>2014-11-30T09:39:57Z</time>
      </trkpt>
      <trkpt lat="46.99828" lon="-1.05936">
        <ele>94</ele>
        <time>2014-11-30T09:39:57Z</time>
      </trkpt>
      <trkpt lat="46.99823" lon="-1.05919">
        <ele>91</ele>
        <time>2014-11-30T09:40:23Z</time>
      </trkpt>
      <trkpt lat="46.99759" lon="-1.05761">
        <ele>90</ele>
        <time>2014-11-30T09:40:28Z</time>
      </trkpt>
      <trkpt lat="46.99749" lon="-1.05749">
        <ele>88</ele>
        <time>2014-11-30T09:40:31Z</time>
      </trkpt>
      <trkpt lat="46.99746" lon="-1.05719">
        <ele>93</ele>
        <time>2014-11-30T09:40:36Z</time>
      </trkpt>
      <trkpt lat="46.99758" lon="-1.0568">
        <ele>94</ele>
        <time>2014-11-30T09:40:47Z</time>
      </trkpt>
      <trkpt lat="46.99776" lon="-1.05618">
        <ele>92</ele>
        <time>2014-11-30T09:40:51Z</time>
      </trkpt>
      <trkpt lat="46.99786" lon="-1.05581">
        <ele>90</ele>
        <time>2014-11-30T09:40:55Z</time>
      </trkpt>
      <trkpt lat="46.99797" lon="-1.05551">
        <ele>92</ele>
        <time>2014-11-30T09:41:00Z</time>
      </trkpt>
      <trkpt lat="46.99802" lon="-1.05528">
        <ele>93</ele>
        <time>2014-11-30T09:41:02Z</time>
      </trkpt>
      <trkpt lat="46.99805" lon="-1.05504">
        <ele>94</ele>
        <time>2014-11-30T09:41:05Z</time>
      </trkpt>
      <trkpt lat="46.9981" lon="-1.05477">
        <ele>95</ele>
        <time>2014-11-30T09:41:09Z</time>
      </trkpt>
      <trkpt lat="46.99814" lon="-1.05445">
        <ele>95</ele>
        <time>2014-11-30T09:41:14Z</time>
      </trkpt>
      <trkpt lat="46.99813" lon="-1.0542">
        <ele>93</ele>
        <time>2014-11-30T09:41:18Z</time>
      </trkpt>
      <trkpt lat="46.99813" lon="-1.05388">
        <ele>94</ele>
        <time>2014-11-30T09:41:23Z</time>
      </trkpt>
      <trkpt lat="46.99811" lon="-1.05357">
        <ele>96</ele>
        <time>2014-11-30T09:41:28Z</time>
      </trkpt>
      <trkpt lat="46.99808" lon="-1.05333">
        <ele>96</ele>
        <time>2014-11-30T09:41:32Z</time>
      </trkpt>
      <trkpt lat="46.99804" lon="-1.05305">
        <ele>97</ele>
        <time>2014-11-30T09:41:37Z</time>
      </trkpt>
      <trkpt lat="46.998" lon="-1.05282">
        <ele>98</ele>
        <time>2014-11-30T09:41:42Z</time>
      </trkpt>
      <trkpt lat="46.99792" lon="-1.05249">
        <ele>97</ele>
        <time>2014-11-30T09:41:47Z</time>
      </trkpt>
      <trkpt lat="46.99787" lon="-1.05225">
        <ele>97</ele>
        <time>2014-11-30T09:41:51Z</time>
      </trkpt>
      <trkpt lat="46.99782" lon="-1.05202">
        <ele>95</ele>
        <time>2014-11-30T09:41:55Z</time>
      </trkpt>
      <trkpt lat="46.99775" lon="-1.05172">
        <ele>97</ele>
        <time>2014-11-30T09:42:00Z</time>
      </trkpt>
      <trkpt lat="46.99768" lon="-1.05148">
        <ele>97</ele>
        <time>2014-11-30T09:42:04Z</time>
      </trkpt>
      <trkpt lat="46.9976" lon="-1.05125">
        <ele>95</ele>
        <time>2014-11-30T09:42:08Z</time>
      </trkpt>
      <trkpt lat="46.99756" lon="-1.05101">
        <ele>95</ele>
        <time>2014-11-30T09:42:12Z</time>
      </trkpt>
      <trkpt lat="46.99756" lon="-1.05076">
        <ele>94</ele>
        <time>2014-11-30T09:42:16Z</time>
      </trkpt>
      <trkpt lat="46.99751" lon="-1.05046">
        <ele>98</ele>
        <time>2014-11-30T09:42:21Z</time>
      </trkpt>
      <trkpt lat="46.99751" lon="-1.05022">
        <ele>95</ele>
        <time>2014-11-30T09:42:25Z</time>
      </trkpt>
      <trkpt lat="46.99749" lon="-1.04999">
        <ele>93</ele>
        <time>2014-11-30T09:42:29Z</time>
      </trkpt>
      <trkpt lat="46.99751" lon="-1.04977">
        <ele>93</ele>
        <time>2014-11-30T09:42:33Z</time>
      </trkpt>
      <trkpt lat="46.9975" lon="-1.04956">
        <ele>96</ele>
        <time>2014-11-30T09:42:37Z</time>
      </trkpt>
      <trkpt lat="46.99738" lon="-1.04937">
        <ele>97</ele>
        <time>2014-11-30T09:42:42Z</time>
      </trkpt>
      <trkpt lat="46.99726" lon="-1.04924">
        <ele>94</ele>
        <time>2014-11-30T09:42:46Z</time>
      </trkpt>
      <trkpt lat="46.99712" lon="-1.04916">
        <ele>95</ele>
        <time>2014-11-30T09:42:50Z</time>
      </trkpt>
      <trkpt lat="46.99698" lon="-1.04922">
        <ele>90</ele>
        <time>2014-11-30T09:42:54Z</time>
      </trkpt>
      <trkpt lat="46.99679" lon="-1.04923">
        <ele>91</ele>
        <time>2014-11-30T09:42:59Z</time>
      </trkpt>
      <trkpt lat="46.99664" lon="-1.04921">
        <ele>95</ele>
        <time>2014-11-30T09:43:03Z</time>
      </trkpt>
      <trkpt lat="46.99644" lon="-1.04917">
        <ele>92</ele>
        <time>2014-11-30T09:43:08Z</time>
      </trkpt>
      <trkpt lat="46.99636" lon="-1.04917">
        <ele>91</ele>
        <time>2014-11-30T09:43:10Z</time>
      </trkpt>
      <trkpt lat="46.99632" lon="-1.04918">
        <ele>90</ele>
        <time>2014-11-30T09:43:15Z</time>
      </trkpt>
      <trkpt lat="46.99592" lon="-1.04916">
        <ele>89</ele>
        <time>2014-11-30T09:43:20Z</time>
      </trkpt>
      <trkpt lat="46.99571" lon="-1.04918">
        <ele>90</ele>
        <time>2014-11-30T09:43:24Z</time>
      </trkpt>
      <trkpt lat="46.99548" lon="-1.04911">
        <ele>90</ele>
        <time>2014-11-30T09:43:29Z</time>
      </trkpt>
      <trkpt lat="46.99532" lon="-1.049">
        <ele>97</ele>
        <time>2014-11-30T09:43:33Z</time>
      </trkpt>
      <trkpt lat="46.99516" lon="-1.04895">
        <ele>94</ele>
        <time>2014-11-30T09:43:37Z</time>
      </trkpt>
      <trkpt lat="46.99502" lon="-1.04892">
        <ele>92</ele>
        <time>2014-11-30T09:43:41Z</time>
      </trkpt>
      <trkpt lat="46.99483" lon="-1.04885">
        <ele>94</ele>
        <time>2014-11-30T09:43:46Z</time>
      </trkpt>
      <trkpt lat="46.99469" lon="-1.04874">
        <ele>93</ele>
        <time>2014-11-30T09:43:50Z</time>
      </trkpt>
      <trkpt lat="46.99455" lon="-1.04867">
        <ele>97</ele>
        <time>2014-11-30T09:43:54Z</time>
      </trkpt>
      <trkpt lat="46.99441" lon="-1.04863">
        <ele>104</ele>
        <time>2014-11-30T09:43:58Z</time>
      </trkpt>
      <trkpt lat="46.99428" lon="-1.04864">
        <ele>102</ele>
        <time>2014-11-30T09:44:02Z</time>
      </trkpt>
      <trkpt lat="46.99413" lon="-1.0487">
        <ele>105</ele>
        <time>2014-11-30T09:44:07Z</time>
      </trkpt>
      <trkpt lat="46.99407" lon="-1.04874">
        <ele>105</ele>
        <time>2014-11-30T09:44:09Z</time>
      </trkpt>
      <trkpt lat="46.99404" lon="-1.04875">
        <ele>106</ele>
        <time>2014-11-30T09:44:44Z</time>
      </trkpt>
      <trkpt lat="46.99384" lon="-1.04857">
        <ele>103</ele>
        <time>2014-11-30T09:44:44Z</time>
      </trkpt>
      <trkpt lat="46.99377" lon="-1.04861">
        <ele>124</ele>
        <time>2014-11-30T09:47:37Z</time>
      </trkpt>
      <trkpt lat="46.99374" lon="-1.04861">
        <ele>124</ele>
        <time>2014-11-30T09:47:49Z</time>
      </trkpt>
      <trkpt lat="46.99313" lon="-1.04865">
        <ele>112</ele>
        <time>2014-11-30T09:47:50Z</time>
      </trkpt>
      <trkpt lat="46.99307" lon="-1.0487">
        <ele>111</ele>
        <time>2014-11-30T09:47:59Z</time>
      </trkpt>
      <trkpt lat="46.99262" lon="-1.04886">
        <ele>122</ele>
        <time>2014-11-30T09:48:00Z</time>
      </trkpt>
      <trkpt lat="46.99259" lon="-1.04885">
        <ele>121</ele>
        <time>2014-11-30T09:48:05Z</time>
      </trkpt>
      <trkpt lat="46.99232" lon="-1.04894">
        <ele>120</ele>
        <time>2014-11-30T09:48:36Z</time>
      </trkpt>
      <trkpt lat="46.9919" lon="-1.04844">
        <ele>125</ele>
        <time>2014-11-30T09:48:41Z</time>
      </trkpt>
      <trkpt lat="46.99189" lon="-1.0484">
        <ele>124</ele>
        <time>2014-11-30T09:48:42Z</time>
      </trkpt>
      <trkpt lat="46.99189" lon="-1.04831">
        <ele>125</ele>
        <time>2014-11-30T09:49:00Z</time>
      </trkpt>
      <trkpt lat="46.99178" lon="-1.04757">
        <ele>115</ele>
        <time>2014-11-30T09:49:01Z</time>
      </trkpt>
      <trkpt lat="46.99176" lon="-1.04749">
        <ele>116</ele>
        <time>2014-11-30T09:49:07Z</time>
      </trkpt>
      <trkpt lat="46.99169" lon="-1.04721">
        <ele>119</ele>
        <time>2014-11-30T09:49:38Z</time>
      </trkpt>
      <trkpt lat="46.99164" lon="-1.04527">
        <ele>116</ele>
        <time>2014-11-30T09:50:09Z</time>
      </trkpt>
      <trkpt lat="46.99164" lon="-1.04527">
        <ele>116</ele>
        <time>2014-11-30T09:51:57Z</time>
      </trkpt>
      <trkpt lat="46.99275" lon="-1.04267">
        <ele>130</ele>
        <time>2014-11-30T09:52:02Z</time>
      </trkpt>
      <trkpt lat="46.9927" lon="-1.04258">
        <ele>134</ele>
        <time>2014-11-30T09:54:44Z</time>
      </trkpt>
      <trkpt lat="46.99261" lon="-1.04251">
        <ele>135</ele>
        <time>2014-11-30T09:55:06Z</time>
      </trkpt>
      <trkpt lat="46.99234" lon="-1.042">
        <ele>132</ele>
        <time>2014-11-30T09:55:09Z</time>
      </trkpt>
      <trkpt lat="46.99222" lon="-1.04181">
        <ele>132</ele>
        <time>2014-11-30T09:55:25Z</time>
      </trkpt>
      <trkpt lat="46.99214" lon="-1.04164">
        <ele>131</ele>
        <time>2014-11-30T09:55:30Z</time>
      </trkpt>
      <trkpt lat="46.99209" lon="-1.04154">
        <ele>132</ele>
        <time>2014-11-30T09:55:35Z</time>
      </trkpt>
      <trkpt lat="46.99199" lon="-1.04132">
        <ele>133</ele>
        <time>2014-11-30T09:55:40Z</time>
      </trkpt>
      <trkpt lat="46.99197" lon="-1.04118">
        <ele>134</ele>
        <time>2014-11-30T09:55:43Z</time>
      </trkpt>
      <trkpt lat="46.99198" lon="-1.04112">
        <ele>134</ele>
        <time>2014-11-30T09:55:53Z</time>
      </trkpt>
      <trkpt lat="46.99215" lon="-1.04064">
        <ele>136</ele>
        <time>2014-11-30T09:56:14Z</time>
      </trkpt>
      <trkpt lat="46.99224" lon="-1.03944">
        <ele>137</ele>
        <time>2014-11-30T09:56:19Z</time>
      </trkpt>
      <trkpt lat="46.99223" lon="-1.03932">
        <ele>138</ele>
        <time>2014-11-30T09:56:25Z</time>
      </trkpt>
      <trkpt lat="46.99226" lon="-1.03919">
        <ele>139</ele>
        <time>2014-11-30T09:56:29Z</time>
      </trkpt>
      <trkpt lat="46.99228" lon="-1.03899">
        <ele>140</ele>
        <time>2014-11-30T09:56:33Z</time>
      </trkpt>
      <trkpt lat="46.99232" lon="-1.03878">
        <ele>142</ele>
        <time>2014-11-30T09:56:37Z</time>
      </trkpt>
      <trkpt lat="46.99236" lon="-1.03849">
        <ele>142</ele>
        <time>2014-11-30T09:56:42Z</time>
      </trkpt>
      <trkpt lat="46.9924" lon="-1.03824">
        <ele>143</ele>
        <time>2014-11-30T09:56:46Z</time>
      </trkpt>
      <trkpt lat="46.99243" lon="-1.03805">
        <ele>146</ele>
        <time>2014-11-30T09:56:49Z</time>
      </trkpt>
      <trkpt lat="46.99247" lon="-1.03777">
        <ele>146</ele>
        <time>2014-11-30T09:56:53Z</time>
      </trkpt>
      <trkpt lat="46.99251" lon="-1.03752">
        <ele>147</ele>
        <time>2014-11-30T09:56:57Z</time>
      </trkpt>
      <trkpt lat="46.99255" lon="-1.03722">
        <ele>146</ele>
        <time>2014-11-30T09:57:02Z</time>
      </trkpt>
      <trkpt lat="46.99258" lon="-1.03699">
        <ele>146</ele>
        <time>2014-11-30T09:57:06Z</time>
      </trkpt>
      <trkpt lat="46.99262" lon="-1.03675">
        <ele>145</ele>
        <time>2014-11-30T09:57:10Z</time>
      </trkpt>
      <trkpt lat="46.99269" lon="-1.03644">
        <ele>147</ele>
        <time>2014-11-30T09:57:15Z</time>
      </trkpt>
      <trkpt lat="46.99273" lon="-1.03618">
        <ele>147</ele>
        <time>2014-11-30T09:57:19Z</time>
      </trkpt>
      <trkpt lat="46.99274" lon="-1.03592">
        <ele>147</ele>
        <time>2014-11-30T09:57:26Z</time>
      </trkpt>
      <trkpt lat="46.9928" lon="-1.03538">
        <ele>147</ele>
        <time>2014-11-30T09:57:31Z</time>
      </trkpt>
      <trkpt lat="46.99281" lon="-1.03511">
        <ele>147</ele>
        <time>2014-11-30T09:57:35Z</time>
      </trkpt>
      <trkpt lat="46.99282" lon="-1.03478">
        <ele>146</ele>
        <time>2014-11-30T09:57:40Z</time>
      </trkpt>
      <trkpt lat="46.99286" lon="-1.03448">
        <ele>147</ele>
        <time>2014-11-30T09:57:45Z</time>
      </trkpt>
      <trkpt lat="46.99292" lon="-1.03424">
        <ele>146</ele>
        <time>2014-11-30T09:57:49Z</time>
      </trkpt>
      <trkpt lat="46.99299" lon="-1.03395">
        <ele>146</ele>
        <time>2014-11-30T09:57:54Z</time>
      </trkpt>
      <trkpt lat="46.99308" lon="-1.03368">
        <ele>147</ele>
        <time>2014-11-30T09:57:59Z</time>
      </trkpt>
      <trkpt lat="46.9932" lon="-1.03341">
        <ele>148</ele>
        <time>2014-11-30T09:58:04Z</time>
      </trkpt>
      <trkpt lat="46.99329" lon="-1.03322">
        <ele>147</ele>
        <time>2014-11-30T09:58:08Z</time>
      </trkpt>
      <trkpt lat="46.99338" lon="-1.033">
        <ele>147</ele>
        <time>2014-11-30T09:58:12Z</time>
      </trkpt>
      <trkpt lat="46.99348" lon="-1.03278">
        <ele>146</ele>
        <time>2014-11-30T09:58:16Z</time>
      </trkpt>
      <trkpt lat="46.99364" lon="-1.03242">
        <ele>146</ele>
        <time>2014-11-30T09:58:21Z</time>
      </trkpt>
      <trkpt lat="46.99385" lon="-1.03192">
        <ele>143</ele>
        <time>2014-11-30T09:58:26Z</time>
      </trkpt>
      <trkpt lat="46.99399" lon="-1.03163">
        <ele>143</ele>
        <time>2014-11-30T09:58:30Z</time>
      </trkpt>
      <trkpt lat="46.99411" lon="-1.03138">
        <ele>141</ele>
        <time>2014-11-30T09:58:34Z</time>
      </trkpt>
      <trkpt lat="46.99433" lon="-1.03101">
        <ele>140</ele>
        <time>2014-11-30T09:58:39Z</time>
      </trkpt>
      <trkpt lat="46.99453" lon="-1.03073">
        <ele>139</ele>
        <time>2014-11-30T09:58:43Z</time>
      </trkpt>
      <trkpt lat="46.99476" lon="-1.03037">
        <ele>138</ele>
        <time>2014-11-30T09:58:48Z</time>
      </trkpt>
      <trkpt lat="46.9949" lon="-1.03003">
        <ele>136</ele>
        <time>2014-11-30T09:58:52Z</time>
      </trkpt>
      <trkpt lat="46.99495" lon="-1.02965">
        <ele>137</ele>
        <time>2014-11-30T09:58:56Z</time>
      </trkpt>
      <trkpt lat="46.99499" lon="-1.02928">
        <ele>137</ele>
        <time>2014-11-30T09:59:00Z</time>
      </trkpt>
      <trkpt lat="46.99504" lon="-1.0288">
        <ele>137</ele>
        <time>2014-11-30T09:59:05Z</time>
      </trkpt>
      <trkpt lat="46.99513" lon="-1.02846">
        <ele>136</ele>
        <time>2014-11-30T09:59:09Z</time>
      </trkpt>
      <trkpt lat="46.99521" lon="-1.02813">
        <ele>136</ele>
        <time>2014-11-30T09:59:13Z</time>
      </trkpt>
      <trkpt lat="46.99544" lon="-1.02795">
        <ele>135</ele>
        <time>2014-11-30T09:59:17Z</time>
      </trkpt>
      <trkpt lat="46.99572" lon="-1.0278">
        <ele>135</ele>
        <time>2014-11-30T09:59:21Z</time>
      </trkpt>
      <trkpt lat="46.99601" lon="-1.02763">
        <ele>135</ele>
        <time>2014-11-30T09:59:25Z</time>
      </trkpt>
      <trkpt lat="46.99633" lon="-1.02746">
        <ele>136</ele>
        <time>2014-11-30T09:59:29Z</time>
      </trkpt>
      <trkpt lat="46.99641" lon="-1.02744">
        <ele>133</ele>
        <time>2014-11-30T09:59:30Z</time>
      </trkpt>
      <trkpt lat="46.99649" lon="-1.02741">
        <ele>134</ele>
        <time>2014-11-30T09:59:41Z</time>
      </trkpt>
      <trkpt lat="46.99754" lon="-1.02654">
        <ele>121</ele>
        <time>2014-11-30T09:59:47Z</time>
      </trkpt>
      <trkpt lat="46.99782" lon="-1.02633">
        <ele>119</ele>
        <time>2014-11-30T10:00:16Z</time>
      </trkpt>
      <trkpt lat="46.99974" lon="-1.02527">
        <ele>106</ele>
        <time>2014-11-30T10:00:20Z</time>
      </trkpt>
      <trkpt lat="46.9998" lon="-1.02524">
        <ele>107</ele>
        <time>2014-11-30T10:00:23Z</time>
      </trkpt>
      <trkpt lat="47.00099" lon="-1.02497">
        <ele>104</ele>
        <time>2014-11-30T10:00:40Z</time>
      </trkpt>
      <trkpt lat="47.00117" lon="-1.02503">
        <ele>103</ele>
        <time>2014-11-30T10:00:48Z</time>
      </trkpt>
      <trkpt lat="47.0017" lon="-1.02502">
        <ele>101</ele>
        <time>2014-11-30T10:00:48Z</time>
      </trkpt>
      <trkpt lat="47.00242" lon="-1.02461">
        <ele>95</ele>
        <time>2014-11-30T10:01:19Z</time>
      </trkpt>
      <trkpt lat="47.00371" lon="-1.02418">
        <ele>77</ele>
        <time>2014-11-30T10:01:23Z</time>
      </trkpt>
      <trkpt lat="47.00373" lon="-1.02423">
        <ele>78</ele>
        <time>2014-11-30T10:01:29Z</time>
      </trkpt>
      <trkpt lat="47.00381" lon="-1.02514">
        <ele>70</ele>
        <time>2014-11-30T10:01:34Z</time>
      </trkpt>
      <trkpt lat="47.0038" lon="-1.02562">
        <ele>70</ele>
        <time>2014-11-30T10:01:38Z</time>
      </trkpt>
      <trkpt lat="47.00381" lon="-1.02604">
        <ele>71</ele>
        <time>2014-11-30T10:01:42Z</time>
      </trkpt>
      <trkpt lat="47.00378" lon="-1.02623">
        <ele>69</ele>
        <time>2014-11-30T10:01:44Z</time>
      </trkpt>
      <trkpt lat="47.00377" lon="-1.02653">
        <ele>70</ele>
        <time>2014-11-30T10:01:47Z</time>
      </trkpt>
      <trkpt lat="47.00376" lon="-1.0268">
        <ele>70</ele>
        <time>2014-11-30T10:01:50Z</time>
      </trkpt>
      <trkpt lat="47.00379" lon="-1.02772">
        <ele>65</ele>
        <time>2014-11-30T10:02:20Z</time>
      </trkpt>
      <trkpt lat="47.00394" lon="-1.02933">
        <ele>69</ele>
        <time>2014-11-30T10:02:25Z</time>
      </trkpt>
      <trkpt lat="47.00395" lon="-1.02939">
        <ele>70</ele>
        <time>2014-11-30T10:02:26Z</time>
      </trkpt>
      <trkpt lat="47.00397" lon="-1.02973">
        <ele>71</ele>
        <time>2014-11-30T10:02:33Z</time>
      </trkpt>
      <trkpt lat="47.00394" lon="-1.03003">
        <ele>73</ele>
        <time>2014-11-30T10:02:38Z</time>
      </trkpt>
      <trkpt lat="47.00396" lon="-1.03032">
        <ele>73</ele>
        <time>2014-11-30T10:02:43Z</time>
      </trkpt>
      <trkpt lat="47.00398" lon="-1.03055">
        <ele>73</ele>
        <time>2014-11-30T10:02:47Z</time>
      </trkpt>
      <trkpt lat="47.00399" lon="-1.03078">
        <ele>72</ele>
        <time>2014-11-30T10:02:51Z</time>
      </trkpt>
      <trkpt lat="47.00399" lon="-1.031">
        <ele>68</ele>
        <time>2014-11-30T10:02:55Z</time>
      </trkpt>
      <trkpt lat="47.00404" lon="-1.03138">
        <ele>66</ele>
        <time>2014-11-30T10:03:00Z</time>
      </trkpt>
      <trkpt lat="47.00409" lon="-1.03173">
        <ele>67</ele>
        <time>2014-11-30T10:03:05Z</time>
      </trkpt>
      <trkpt lat="47.00408" lon="-1.03203">
        <ele>64</ele>
        <time>2014-11-30T10:03:09Z</time>
      </trkpt>
      <trkpt lat="47.00399" lon="-1.03241">
        <ele>63</ele>
        <time>2014-11-30T10:03:14Z</time>
      </trkpt>
      <trkpt lat="47.00391" lon="-1.03266">
        <ele>64</ele>
        <time>2014-11-30T10:03:18Z</time>
      </trkpt>
      <trkpt lat="47.00381" lon="-1.03286">
        <ele>65</ele>
        <time>2014-11-30T10:03:23Z</time>
      </trkpt>
      <trkpt lat="47.00377" lon="-1.03298">
        <ele>67</ele>
        <time>2014-11-30T10:03:24Z</time>
      </trkpt>
      <trkpt lat="47.00359" lon="-1.03349">
        <ele>67</ele>
        <time>2014-11-30T10:03:43Z</time>
      </trkpt>
      <trkpt lat="47.0034" lon="-1.03399">
        <ele>69</ele>
        <time>2014-11-30T10:03:43Z</time>
      </trkpt>
      <trkpt lat="47.00331" lon="-1.03436">
        <ele>72</ele>
        <time>2014-11-30T10:03:55Z</time>
      </trkpt>
      <trkpt lat="47.00335" lon="-1.03471">
        <ele>71</ele>
        <time>2014-11-30T10:04:00Z</time>
      </trkpt>
      <trkpt lat="47.00338" lon="-1.03487">
        <ele>72</ele>
        <time>2014-11-30T10:04:02Z</time>
      </trkpt>
      <trkpt lat="47.0034" lon="-1.03495">
        <ele>72</ele>
        <time>2014-11-30T10:04:07Z</time>
      </trkpt>
      <trkpt lat="47.00348" lon="-1.03555">
        <ele>71</ele>
        <time>2014-11-30T10:04:12Z</time>
      </trkpt>
      <trkpt lat="47.0035" lon="-1.03581">
        <ele>70</ele>
        <time>2014-11-30T10:04:16Z</time>
      </trkpt>
      <trkpt lat="47.0035" lon="-1.03606">
        <ele>71</ele>
        <time>2014-11-30T10:04:20Z</time>
      </trkpt>
      <trkpt lat="47.00349" lon="-1.03635">
        <ele>72</ele>
        <time>2014-11-30T10:04:25Z</time>
      </trkpt>
      <trkpt lat="47.0035" lon="-1.0365">
        <ele>72</ele>
        <time>2014-11-30T10:04:28Z</time>
      </trkpt>
      <trkpt lat="47.00352" lon="-1.03661">
        <ele>73</ele>
        <time>2014-11-30T10:04:33Z</time>
      </trkpt>
      <trkpt lat="47.00356" lon="-1.03675">
        <ele>76</ele>
        <time>2014-11-30T10:04:37Z</time>
      </trkpt>
      <trkpt lat="47.00359" lon="-1.03688">
        <ele>76</ele>
        <time>2014-11-30T10:04:41Z</time>
      </trkpt>
      <trkpt lat="47.00363" lon="-1.03701">
        <ele>77</ele>
        <time>2014-11-30T10:04:45Z</time>
      </trkpt>
      <trkpt lat="47.00369" lon="-1.03712">
        <ele>77</ele>
        <time>2014-11-30T10:04:49Z</time>
      </trkpt>
      <trkpt lat="47.00378" lon="-1.03727">
        <ele>78</ele>
        <time>2014-11-30T10:04:54Z</time>
      </trkpt>
      <trkpt lat="47.00385" lon="-1.03739">
        <ele>78</ele>
        <time>2014-11-30T10:04:58Z</time>
      </trkpt>
      <trkpt lat="47.00393" lon="-1.0375">
        <ele>78</ele>
        <time>2014-11-30T10:05:02Z</time>
      </trkpt>
      <trkpt lat="47.00396" lon="-1.03764">
        <ele>79</ele>
        <time>2014-11-30T10:05:06Z</time>
      </trkpt>
      <trkpt lat="47.00396" lon="-1.03768">
        <ele>79</ele>
        <time>2014-11-30T10:05:11Z</time>
      </trkpt>
      <trkpt lat="47.00403" lon="-1.03796">
        <ele>82</ele>
        <time>2014-11-30T10:05:15Z</time>
      </trkpt>
      <trkpt lat="47.00406" lon="-1.03816">
        <ele>83</ele>
        <time>2014-11-30T10:05:20Z</time>
      </trkpt>
      <trkpt lat="47.00408" lon="-1.03832">
        <ele>85</ele>
        <time>2014-11-30T10:05:24Z</time>
      </trkpt>
      <trkpt lat="47.00411" lon="-1.03852">
        <ele>85</ele>
        <time>2014-11-30T10:05:29Z</time>
      </trkpt>
      <trkpt lat="47.00412" lon="-1.03867">
        <ele>85</ele>
        <time>2014-11-30T10:05:33Z</time>
      </trkpt>
      <trkpt lat="47.00412" lon="-1.03882">
        <ele>86</ele>
        <time>2014-11-30T10:05:38Z</time>
      </trkpt>
      <trkpt lat="47.00413" lon="-1.03893">
        <ele>86</ele>
        <time>2014-11-30T10:05:43Z</time>
      </trkpt>
      <trkpt lat="47.00409" lon="-1.03904">
        <ele>84</ele>
        <time>2014-11-30T10:07:55Z</time>
      </trkpt>
      <trkpt lat="47.00416" lon="-1.03919">
        <ele>81</ele>
        <time>2014-11-30T10:08:00Z</time>
      </trkpt>
      <trkpt lat="47.00425" lon="-1.03928">
        <ele>79</ele>
        <time>2014-11-30T10:08:01Z</time>
      </trkpt>
      <trkpt lat="47.00441" lon="-1.0396">
        <ele>76</ele>
        <time>2014-11-30T10:08:05Z</time>
      </trkpt>
      <trkpt lat="47.00411" lon="-1.04147">
        <ele>66</ele>
        <time>2014-11-30T10:08:32Z</time>
      </trkpt>
      <trkpt lat="47.00441" lon="-1.0422">
        <ele>61</ele>
        <time>2014-11-30T10:08:36Z</time>
      </trkpt>
      <trkpt lat="47.00449" lon="-1.04226">
        <ele>76</ele>
        <time>2014-11-30T10:09:00Z</time>
      </trkpt>
      <trkpt lat="47.00457" lon="-1.04232">
        <ele>75</ele>
        <time>2014-11-30T10:09:00Z</time>
      </trkpt>
      <trkpt lat="47.00467" lon="-1.0424">
        <ele>74</ele>
        <time>2014-11-30T10:09:33Z</time>
      </trkpt>
      <trkpt lat="47.00568" lon="-1.04288">
        <ele>60</ele>
        <time>2014-11-30T10:09:38Z</time>
      </trkpt>
      <trkpt lat="47.00577" lon="-1.04289">
        <ele>57</ele>
        <time>2014-11-30T10:09:42Z</time>
      </trkpt>
      <trkpt lat="47.00585" lon="-1.04288">
        <ele>58</ele>
        <time>2014-11-30T10:09:46Z</time>
      </trkpt>
      <trkpt lat="47.00593" lon="-1.0429">
        <ele>61</ele>
        <time>2014-11-30T10:09:50Z</time>
      </trkpt>
      <trkpt lat="47.00601" lon="-1.04292">
        <ele>63</ele>
        <time>2014-11-30T10:09:54Z</time>
      </trkpt>
      <trkpt lat="47.00609" lon="-1.04295">
        <ele>64</ele>
        <time>2014-11-30T10:09:58Z</time>
      </trkpt>
      <trkpt lat="47.00618" lon="-1.04303">
        <ele>64</ele>
        <time>2014-11-30T10:10:03Z</time>
      </trkpt>
      <trkpt lat="47.00625" lon="-1.04314">
        <ele>66</ele>
        <time>2014-11-30T10:10:07Z</time>
      </trkpt>
      <trkpt lat="47.00637" lon="-1.04339">
        <ele>66</ele>
        <time>2014-11-30T10:10:35Z</time>
      </trkpt>
      <trkpt lat="47.00719" lon="-1.04395">
        <ele>70</ele>
        <time>2014-11-30T10:10:38Z</time>
      </trkpt>
      <trkpt lat="47.0073" lon="-1.04385">
        <ele>72</ele>
        <time>2014-11-30T10:10:42Z</time>
      </trkpt>
      <trkpt lat="47.00741" lon="-1.04372">
        <ele>73</ele>
        <time>2014-11-30T10:10:47Z</time>
      </trkpt>
      <trkpt lat="47.00749" lon="-1.04361">
        <ele>74</ele>
        <time>2014-11-30T10:10:52Z</time>
      </trkpt>
      <trkpt lat="47.00756" lon="-1.04353">
        <ele>74</ele>
        <time>2014-11-30T10:10:56Z</time>
      </trkpt>
      <trkpt lat="47.00763" lon="-1.04347">
        <ele>75</ele>
        <time>2014-11-30T10:11:00Z</time>
      </trkpt>
      <trkpt lat="47.0077" lon="-1.04341">
        <ele>76</ele>
        <time>2014-11-30T10:11:04Z</time>
      </trkpt>
      <trkpt lat="47.0078" lon="-1.04335">
        <ele>77</ele>
        <time>2014-11-30T10:11:09Z</time>
      </trkpt>
      <trkpt lat="47.00788" lon="-1.0433">
        <ele>78</ele>
        <time>2014-11-30T10:11:13Z</time>
      </trkpt>
      <trkpt lat="47.00797" lon="-1.04325">
        <ele>79</ele>
        <time>2014-11-30T10:11:17Z</time>
      </trkpt>
      <trkpt lat="47.00801" lon="-1.04323">
        <ele>79</ele>
        <time>2014-11-30T10:11:22Z</time>
      </trkpt>
      <trkpt lat="47.00816" lon="-1.04313">
        <ele>80</ele>
        <time>2014-11-30T10:11:26Z</time>
      </trkpt>
      <trkpt lat="47.00826" lon="-1.04307">
        <ele>83</ele>
        <time>2014-11-30T10:11:31Z</time>
      </trkpt>
      <trkpt lat="47.00834" lon="-1.043">
        <ele>84</ele>
        <time>2014-11-30T10:11:36Z</time>
      </trkpt>
      <trkpt lat="47.00842" lon="-1.04293">
        <ele>85</ele>
        <time>2014-11-30T10:11:40Z</time>
      </trkpt>
      <trkpt lat="47.00844" lon="-1.04292">
        <ele>85</ele>
        <time>2014-11-30T10:11:47Z</time>
      </trkpt>
      <trkpt lat="47.00869" lon="-1.0427">
        <ele>88</ele>
        <time>2014-11-30T10:11:52Z</time>
      </trkpt>
      <trkpt lat="47.00879" lon="-1.04259">
        <ele>87</ele>
        <time>2014-11-30T10:11:57Z</time>
      </trkpt>
      <trkpt lat="47.00888" lon="-1.04253">
        <ele>88</ele>
        <time>2014-11-30T10:12:01Z</time>
      </trkpt>
      <trkpt lat="47.00897" lon="-1.04249">
        <ele>89</ele>
        <time>2014-11-30T10:12:05Z</time>
      </trkpt>
      <trkpt lat="47.00905" lon="-1.04243">
        <ele>90</ele>
        <time>2014-11-30T10:12:10Z</time>
      </trkpt>
      <trkpt lat="47.00918" lon="-1.04237">
        <ele>88</ele>
        <time>2014-11-30T10:12:15Z</time>
      </trkpt>
      <trkpt lat="47.00928" lon="-1.04234">
        <ele>90</ele>
        <time>2014-11-30T10:12:19Z</time>
      </trkpt>
      <trkpt lat="47.00938" lon="-1.04232">
        <ele>90</ele>
        <time>2014-11-30T10:12:24Z</time>
      </trkpt>
      <trkpt lat="47.00949" lon="-1.04229">
        <ele>92</ele>
        <time>2014-11-30T10:12:29Z</time>
      </trkpt>
      <trkpt lat="47.00958" lon="-1.04227">
        <ele>92</ele>
        <time>2014-11-30T10:12:33Z</time>
      </trkpt>
      <trkpt lat="47.00969" lon="-1.04223">
        <ele>92</ele>
        <time>2014-11-30T10:12:38Z</time>
      </trkpt>
      <trkpt lat="47.00977" lon="-1.04218">
        <ele>91</ele>
        <time>2014-11-30T10:12:42Z</time>
      </trkpt>
      <trkpt lat="47.00986" lon="-1.04213">
        <ele>93</ele>
        <time>2014-11-30T10:12:46Z</time>
      </trkpt>
      <trkpt lat="47.00997" lon="-1.04206">
        <ele>94</ele>
        <time>2014-11-30T10:12:51Z</time>
      </trkpt>
      <trkpt lat="47.01003" lon="-1.04201">
        <ele>95</ele>
        <time>2014-11-30T10:13:00Z</time>
      </trkpt>
      <trkpt lat="47.01027" lon="-1.0418">
        <ele>99</ele>
        <time>2014-11-30T10:13:05Z</time>
      </trkpt>
      <trkpt lat="47.0104" lon="-1.04172">
        <ele>100</ele>
        <time>2014-11-30T10:13:10Z</time>
      </trkpt>
      <trkpt lat="47.0105" lon="-1.04165">
        <ele>100</ele>
        <time>2014-11-30T10:13:14Z</time>
      </trkpt>
      <trkpt lat="47.01061" lon="-1.04162">
        <ele>102</ele>
        <time>2014-11-30T10:13:18Z</time>
      </trkpt>
      <trkpt lat="47.01072" lon="-1.04164">
        <ele>104</ele>
        <time>2014-11-30T10:13:22Z</time>
      </trkpt>
      <trkpt lat="47.01084" lon="-1.04176">
        <ele>104</ele>
        <time>2014-11-30T10:13:27Z</time>
      </trkpt>
      <trkpt lat="47.01089" lon="-1.04193">
        <ele>104</ele>
        <time>2014-11-30T10:13:32Z</time>
      </trkpt>
      <trkpt lat="47.01094" lon="-1.04213">
        <ele>106</ele>
        <time>2014-11-30T10:13:36Z</time>
      </trkpt>
      <trkpt lat="47.01099" lon="-1.04235">
        <ele>108</ele>
        <time>2014-11-30T10:13:41Z</time>
      </trkpt>
      <trkpt lat="47.01103" lon="-1.04251">
        <ele>108</ele>
        <time>2014-11-30T10:13:45Z</time>
      </trkpt>
      <trkpt lat="47.01107" lon="-1.04267">
        <ele>109</ele>
        <time>2014-11-30T10:13:49Z</time>
      </trkpt>
      <trkpt lat="47.01111" lon="-1.04283">
        <ele>94</ele>
        <time>2014-11-30T10:13:53Z</time>
      </trkpt>
      <trkpt lat="47.01115" lon="-1.04298">
        <ele>94</ele>
        <time>2014-11-30T10:13:58Z</time>
      </trkpt>
      <trkpt lat="47.0112" lon="-1.04318">
        <ele>97</ele>
        <time>2014-11-30T10:14:02Z</time>
      </trkpt>
      <trkpt lat="47.01126" lon="-1.04341">
        <ele>94</ele>
        <time>2014-11-30T10:14:07Z</time>
      </trkpt>
      <trkpt lat="47.0113" lon="-1.04367">
        <ele>94</ele>
        <time>2014-11-30T10:14:12Z</time>
      </trkpt>
      <trkpt lat="47.01134" lon="-1.04387">
        <ele>94</ele>
        <time>2014-11-30T10:14:16Z</time>
      </trkpt>
      <trkpt lat="47.01135" lon="-1.04423">
        <ele>93</ele>
        <time>2014-11-30T10:14:21Z</time>
      </trkpt>
      <trkpt lat="47.01138" lon="-1.04459">
        <ele>93</ele>
        <time>2014-11-30T10:14:26Z</time>
      </trkpt>
      <trkpt lat="47.01149" lon="-1.04513">
        <ele>90</ele>
        <time>2014-11-30T10:14:30Z</time>
      </trkpt>
      <trkpt lat="47.01162" lon="-1.04557">
        <ele>90</ele>
        <time>2014-11-30T10:14:35Z</time>
      </trkpt>
      <trkpt lat="47.01171" lon="-1.04581">
        <ele>90</ele>
        <time>2014-11-30T10:14:39Z</time>
      </trkpt>
      <trkpt lat="47.01174" lon="-1.04591">
        <ele>91</ele>
        <time>2014-11-30T10:14:41Z</time>
      </trkpt>
      <trkpt lat="47.01178" lon="-1.04603">
        <ele>92</ele>
        <time>2014-11-30T10:14:45Z</time>
      </trkpt>
      <trkpt lat="47.01191" lon="-1.04639">
        <ele>126</ele>
        <time>2014-11-30T10:14:50Z</time>
      </trkpt>
      <trkpt lat="47.01198" lon="-1.04666">
        <ele>127</ele>
        <time>2014-11-30T10:14:55Z</time>
      </trkpt>
      <trkpt lat="47.01204" lon="-1.04686">
        <ele>127</ele>
        <time>2014-11-30T10:14:59Z</time>
      </trkpt>
      <trkpt lat="47.01208" lon="-1.047">
        <ele>125</ele>
        <time>2014-11-30T10:15:12Z</time>
      </trkpt>
      <trkpt lat="47.0114" lon="-1.04729">
        <ele>126</ele>
        <time>2014-11-30T10:15:17Z</time>
      </trkpt>
      <trkpt lat="47.01112" lon="-1.04734">
        <ele>125</ele>
        <time>2014-11-30T10:15:22Z</time>
      </trkpt>
      <trkpt lat="47.01076" lon="-1.04735">
        <ele>116</ele>
        <time>2014-11-30T10:15:26Z</time>
      </trkpt>
      <trkpt lat="47.01048" lon="-1.04738">
        <ele>111</ele>
        <time>2014-11-30T10:15:30Z</time>
      </trkpt>
      <trkpt lat="47.01018" lon="-1.04764">
        <ele>112</ele>
        <time>2014-11-30T10:15:35Z</time>
      </trkpt>
      <trkpt lat="47.00993" lon="-1.04784">
        <ele>117</ele>
        <time>2014-11-30T10:15:39Z</time>
      </trkpt>
      <trkpt lat="47.0098" lon="-1.04816">
        <ele>116</ele>
        <time>2014-11-30T10:15:43Z</time>
      </trkpt>
      <trkpt lat="47.00981" lon="-1.04825">
        <ele>116</ele>
        <time>2014-11-30T10:15:44Z</time>
      </trkpt>
      <trkpt lat="47.00983" lon="-1.04835">
        <ele>116</ele>
        <time>2014-11-30T10:15:50Z</time>
      </trkpt>
      <trkpt lat="47.00993" lon="-1.0494">
        <ele>116</ele>
        <time>2014-11-30T10:15:55Z</time>
      </trkpt>
      <trkpt lat="47.01001" lon="-1.04978">
        <ele>116</ele>
        <time>2014-11-30T10:15:59Z</time>
      </trkpt>
      <trkpt lat="47.01008" lon="-1.05013">
        <ele>116</ele>
        <time>2014-11-30T10:16:04Z</time>
      </trkpt>
      <trkpt lat="47.01019" lon="-1.05056">
        <ele>115</ele>
        <time>2014-11-30T10:16:08Z</time>
      </trkpt>
      <trkpt lat="47.01029" lon="-1.05092">
        <ele>115</ele>
        <time>2014-11-30T10:16:12Z</time>
      </trkpt>
      <trkpt lat="47.01034" lon="-1.05129">
        <ele>116</ele>
        <time>2014-11-30T10:16:16Z</time>
      </trkpt>
      <trkpt lat="47.01034" lon="-1.05136">
        <ele>116</ele>
        <time>2014-11-30T10:16:17Z</time>
      </trkpt>
      <trkpt lat="47.01043" lon="-1.05197">
        <ele>116</ele>
        <time>2014-11-30T10:16:45Z</time>
      </trkpt>
      <trkpt lat="47.00981" lon="-1.05313">
        <ele>117</ele>
        <time>2014-11-30T10:16:45Z</time>
      </trkpt>
      <trkpt lat="47.00977" lon="-1.05319">
        <ele>117</ele>
        <time>2014-11-30T10:17:00Z</time>
      </trkpt>
      <trkpt lat="47.0098" lon="-1.05411">
        <ele>116</ele>
        <time>2014-11-30T10:17:00Z</time>
      </trkpt>
      <trkpt lat="47.01017" lon="-1.05529">
        <ele>113</ele>
        <time>2014-11-30T10:17:39Z</time>
      </trkpt>
      <trkpt lat="47.00933" lon="-1.05731">
        <ele>113</ele>
        <time>2014-11-30T10:17:44Z</time>
      </trkpt>
      <trkpt lat="47.00923" lon="-1.05741">
        <ele>108</ele>
        <time>2014-11-30T10:17:49Z</time>
      </trkpt>
      <trkpt lat="47.00911" lon="-1.05751">
        <ele>72</ele>
        <time>2014-11-30T10:17:52Z</time>
      </trkpt>
      <trkpt lat="47.00908" lon="-1.05762">
        <ele>72</ele>
        <time>2014-11-30T10:17:57Z</time>
      </trkpt>
      <trkpt lat="47.00903" lon="-1.05771">
        <ele>66</ele>
        <time>2014-11-30T10:22:25Z</time>
      </trkpt>
      <trkpt lat="47.00902" lon="-1.05788">
        <ele>65</ele>
        <time>2014-11-30T10:22:30Z</time>
      </trkpt>
      <trkpt lat="47.00906" lon="-1.05813">
        <ele>66</ele>
        <time>2014-11-30T10:22:34Z</time>
      </trkpt>
      <trkpt lat="47.00908" lon="-1.05832">
        <ele>64</ele>
        <time>2014-11-30T10:22:39Z</time>
      </trkpt>
      <trkpt lat="47.00902" lon="-1.0585">
        <ele>63</ele>
        <time>2014-11-30T10:22:44Z</time>
      </trkpt>
      <trkpt lat="47.00909" lon="-1.05876">
        <ele>62</ele>
        <time>2014-11-30T10:22:48Z</time>
      </trkpt>
      <trkpt lat="47.00912" lon="-1.05892">
        <ele>61</ele>
        <time>2014-11-30T10:22:52Z</time>
      </trkpt>
      <trkpt lat="47.00915" lon="-1.05903">
        <ele>62</ele>
        <time>2014-11-30T10:23:03Z</time>
      </trkpt>
      <trkpt lat="47.00914" lon="-1.05915">
        <ele>64</ele>
        <time>2014-11-30T10:23:10Z</time>
      </trkpt>
      <trkpt lat="47.00916" lon="-1.05925">
        <ele>61</ele>
        <time>2014-11-30T10:23:18Z</time>
      </trkpt>
      <trkpt lat="47.00919" lon="-1.05942">
        <ele>60</ele>
        <time>2014-11-30T10:23:22Z</time>
      </trkpt>
      <trkpt lat="47.00923" lon="-1.05954">
        <ele>59</ele>
        <time>2014-11-30T10:23:27Z</time>
      </trkpt>
      <trkpt lat="47.00926" lon="-1.05973">
        <ele>63</ele>
        <time>2014-11-30T10:23:31Z</time>
      </trkpt>
      <trkpt lat="47.00928" lon="-1.05989">
        <ele>62</ele>
        <time>2014-11-30T10:23:35Z</time>
      </trkpt>
      <trkpt lat="47.00928" lon="-1.06001">
        <ele>62</ele>
        <time>2014-11-30T10:23:47Z</time>
      </trkpt>
      <trkpt lat="47.0093" lon="-1.06017">
        <ele>61</ele>
        <time>2014-11-30T10:23:51Z</time>
      </trkpt>
      <trkpt lat="47.00928" lon="-1.06033">
        <ele>62</ele>
        <time>2014-11-30T10:23:54Z</time>
      </trkpt>
      <trkpt lat="47.00931" lon="-1.06051">
        <ele>64</ele>
        <time>2014-11-30T10:23:58Z</time>
      </trkpt>
      <trkpt lat="47.00938" lon="-1.06067">
        <ele>64</ele>
        <time>2014-11-30T10:24:03Z</time>
      </trkpt>
      <trkpt lat="47.00941" lon="-1.06079">
        <ele>63</ele>
        <time>2014-11-30T10:24:07Z</time>
      </trkpt>
      <trkpt lat="47.00945" lon="-1.06091">
        <ele>64</ele>
        <time>2014-11-30T10:24:12Z</time>
      </trkpt>
      <trkpt lat="47.00945" lon="-1.06104">
        <ele>65</ele>
        <time>2014-11-30T10:24:48Z</time>
      </trkpt>
      <trkpt lat="47.00949" lon="-1.06114">
        <ele>66</ele>
        <time>2014-11-30T10:24:57Z</time>
      </trkpt>
      <trkpt lat="47.00955" lon="-1.06124">
        <ele>66</ele>
        <time>2014-11-30T10:25:03Z</time>
      </trkpt>
      <trkpt lat="47.00963" lon="-1.06129">
        <ele>66</ele>
        <time>2014-11-30T10:25:29Z</time>
      </trkpt>
      <trkpt lat="47.0097" lon="-1.06137">
        <ele>66</ele>
        <time>2014-11-30T10:25:34Z</time>
      </trkpt>
      <trkpt lat="47.00981" lon="-1.06145">
        <ele>66</ele>
        <time>2014-11-30T10:25:39Z</time>
      </trkpt>
      <trkpt lat="47.00992" lon="-1.0615">
        <ele>65</ele>
        <time>2014-11-30T10:25:44Z</time>
      </trkpt>
      <trkpt lat="47.01006" lon="-1.06154">
        <ele>64</ele>
        <time>2014-11-30T10:25:49Z</time>
      </trkpt>
      <trkpt lat="47.01013" lon="-1.06154">
        <ele>64</ele>
        <time>2014-11-30T10:25:52Z</time>
      </trkpt>
      <trkpt lat="47.01021" lon="-1.06154">
        <ele>63</ele>
        <time>2014-11-30T10:25:55Z</time>
      </trkpt>
      <trkpt lat="47.01032" lon="-1.06154">
        <ele>63</ele>
        <time>2014-11-30T10:26:00Z</time>
      </trkpt>
      <trkpt lat="47.01038" lon="-1.06162">
        <ele>61</ele>
        <time>2014-11-30T10:26:31Z</time>
      </trkpt>
      <trkpt lat="47.01043" lon="-1.06171">
        <ele>61</ele>
        <time>2014-11-30T10:26:38Z</time>
      </trkpt>
      <trkpt lat="47.0105" lon="-1.06185">
        <ele>64</ele>
        <time>2014-11-30T10:26:42Z</time>
      </trkpt>
      <trkpt lat="47.01058" lon="-1.06197">
        <ele>62</ele>
        <time>2014-11-30T10:26:47Z</time>
      </trkpt>
      <trkpt lat="47.0106" lon="-1.062">
        <ele>63</ele>
        <time>2014-11-30T10:26:48Z</time>
      </trkpt>
      <trkpt lat="47.01065" lon="-1.0621">
        <ele>65</ele>
        <time>2014-11-30T10:26:59Z</time>
      </trkpt>
      <trkpt lat="47.01085" lon="-1.06249">
        <ele>66</ele>
        <time>2014-11-30T10:27:03Z</time>
      </trkpt>
      <trkpt lat="47.01091" lon="-1.06261">
        <ele>69</ele>
        <time>2014-11-30T10:27:07Z</time>
      </trkpt>
      <trkpt lat="47.01097" lon="-1.06273">
        <ele>70</ele>
        <time>2014-11-30T10:27:11Z</time>
      </trkpt>
      <trkpt lat="47.01105" lon="-1.06282">
        <ele>66</ele>
        <time>2014-11-30T10:27:15Z</time>
      </trkpt>
      <trkpt lat="47.01115" lon="-1.06294">
        <ele>68</ele>
        <time>2014-11-30T10:27:20Z</time>
      </trkpt>
      <trkpt lat="47.01124" lon="-1.06304">
        <ele>68</ele>
        <time>2014-11-30T10:27:24Z</time>
      </trkpt>
      <trkpt lat="47.01136" lon="-1.06315">
        <ele>69</ele>
        <time>2014-11-30T10:27:29Z</time>
      </trkpt>
      <trkpt lat="47.01147" lon="-1.06323">
        <ele>68</ele>
        <time>2014-11-30T10:27:33Z</time>
      </trkpt>
      <trkpt lat="47.01159" lon="-1.06333">
        <ele>71</ele>
        <time>2014-11-30T10:27:38Z</time>
      </trkpt>
      <trkpt lat="47.01172" lon="-1.06343">
        <ele>73</ele>
        <time>2014-11-30T10:27:43Z</time>
      </trkpt>
      <trkpt lat="47.01184" lon="-1.06351">
        <ele>74</ele>
        <time>2014-11-30T10:27:48Z</time>
      </trkpt>
      <trkpt lat="47.01193" lon="-1.06357">
        <ele>75</ele>
        <time>2014-11-30T10:27:52Z</time>
      </trkpt>
      <trkpt lat="47.01202" lon="-1.06362">
        <ele>75</ele>
        <time>2014-11-30T10:27:56Z</time>
      </trkpt>
      <trkpt lat="47.01211" lon="-1.06363">
        <ele>75</ele>
        <time>2014-11-30T10:28:00Z</time>
      </trkpt>
      <trkpt lat="47.01222" lon="-1.06362">
        <ele>77</ele>
        <time>2014-11-30T10:28:05Z</time>
      </trkpt>
      <trkpt lat="47.01232" lon="-1.06364">
        <ele>77</ele>
        <time>2014-11-30T10:28:10Z</time>
      </trkpt>
      <trkpt lat="47.01236" lon="-1.06374">
        <ele>92</ele>
        <time>2014-11-30T10:28:15Z</time>
      </trkpt>
      <trkpt lat="47.01241" lon="-1.06383">
        <ele>97</ele>
        <time>2014-11-30T10:28:20Z</time>
      </trkpt>
      <trkpt lat="47.01246" lon="-1.0639">
        <ele>100</ele>
        <time>2014-11-30T10:28:24Z</time>
      </trkpt>
      <trkpt lat="47.0125" lon="-1.06397">
        <ele>97</ele>
        <time>2014-11-30T10:29:00Z</time>
      </trkpt>
      <trkpt lat="47.01324" lon="-1.06513">
        <ele>96</ele>
        <time>2014-11-30T10:29:02Z</time>
      </trkpt>
      <trkpt lat="47.01331" lon="-1.06556">
        <ele>99</ele>
        <time>2014-11-30T10:29:07Z</time>
      </trkpt>
      <trkpt lat="47.01344" lon="-1.06563">
        <ele>102</ele>
        <time>2014-11-30T10:29:11Z</time>
      </trkpt>
      <trkpt lat="47.01363" lon="-1.06561">
        <ele>101</ele>
        <time>2014-11-30T10:29:16Z</time>
      </trkpt>
      <trkpt lat="47.01386" lon="-1.06562">
        <ele>104</ele>
        <time>2014-11-30T10:29:20Z</time>
      </trkpt>
      <trkpt lat="47.01393" lon="-1.06571">
        <ele>109</ele>
        <time>2014-11-30T10:29:40Z</time>
      </trkpt>
      <trkpt lat="47.01386" lon="-1.06578">
        <ele>93</ele>
        <time>2014-11-30T10:30:02Z</time>
      </trkpt>
      <trkpt lat="47.01373" lon="-1.06579">
        <ele>96</ele>
        <time>2014-11-30T10:30:06Z</time>
      </trkpt>
      <trkpt lat="47.01369" lon="-1.06589">
        <ele>72</ele>
        <time>2014-11-30T10:30:58Z</time>
      </trkpt>
      <trkpt lat="47.01367" lon="-1.06601">
        <ele>76</ele>
        <time>2014-11-30T10:31:04Z</time>
      </trkpt>
      <trkpt lat="47.01353" lon="-1.06639">
        <ele>76</ele>
        <time>2014-11-30T10:31:08Z</time>
      </trkpt>
      <trkpt lat="47.01353" lon="-1.06668">
        <ele>72</ele>
        <time>2014-11-30T10:31:12Z</time>
      </trkpt>
      <trkpt lat="47.01345" lon="-1.06693">
        <ele>70</ele>
        <time>2014-11-30T10:31:16Z</time>
      </trkpt>
      <trkpt lat="47.01335" lon="-1.06729">
        <ele>70</ele>
        <time>2014-11-30T10:31:21Z</time>
      </trkpt>
      <trkpt lat="47.01331" lon="-1.06752">
        <ele>68</ele>
        <time>2014-11-30T10:31:26Z</time>
      </trkpt>
      <trkpt lat="47.01329" lon="-1.06763">
        <ele>67</ele>
        <time>2014-11-30T10:31:28Z</time>
      </trkpt>
      <trkpt lat="47.01329" lon="-1.06767">
        <ele>67</ele>
        <time>2014-11-30T10:31:33Z</time>
      </trkpt>
      <trkpt lat="47.01326" lon="-1.06792">
        <ele>66</ele>
        <time>2014-11-30T10:31:33Z</time>
      </trkpt>
      <trkpt lat="47.01321" lon="-1.06824">
        <ele>66</ele>
        <time>2014-11-30T10:31:50Z</time>
      </trkpt>
      <trkpt lat="47.01283" lon="-1.06936">
        <ele>63</ele>
        <time>2014-11-30T10:31:55Z</time>
      </trkpt>
      <trkpt lat="47.01272" lon="-1.0696">
        <ele>63</ele>
        <time>2014-11-30T10:31:59Z</time>
      </trkpt>
      <trkpt lat="47.01256" lon="-1.06992">
        <ele>65</ele>
        <time>2014-11-30T10:32:04Z</time>
      </trkpt>
      <trkpt lat="47.01243" lon="-1.07013">
        <ele>65</ele>
        <time>2014-11-30T10:32:08Z</time>
      </trkpt>
      <trkpt lat="47.01224" lon="-1.07041">
        <ele>65</ele>
        <time>2014-11-30T10:32:13Z</time>
      </trkpt>
      <trkpt lat="47.01206" lon="-1.07066">
        <ele>64</ele>
        <time>2014-11-30T10:32:18Z</time>
      </trkpt>
      <trkpt lat="47.0119" lon="-1.07087">
        <ele>66</ele>
        <time>2014-11-30T10:32:22Z</time>
      </trkpt>
      <trkpt lat="47.01177" lon="-1.07111">
        <ele>67</ele>
        <time>2014-11-30T10:32:26Z</time>
      </trkpt>
      <trkpt lat="47.01165" lon="-1.07135">
        <ele>67</ele>
        <time>2014-11-30T10:32:30Z</time>
      </trkpt>
      <trkpt lat="47.01148" lon="-1.07165">
        <ele>66</ele>
        <time>2014-11-30T10:32:35Z</time>
      </trkpt>
      <trkpt lat="47.01135" lon="-1.07186">
        <ele>67</ele>
        <time>2014-11-30T10:32:39Z</time>
      </trkpt>
      <trkpt lat="47.01126" lon="-1.07209">
        <ele>69</ele>
        <time>2014-11-30T10:32:43Z</time>
      </trkpt>
      <trkpt lat="47.01116" lon="-1.07232">
        <ele>69</ele>
        <time>2014-11-30T10:32:47Z</time>
      </trkpt>
      <trkpt lat="47.01107" lon="-1.07249">
        <ele>69</ele>
        <time>2014-11-30T10:32:51Z</time>
      </trkpt>
      <trkpt lat="47.01099" lon="-1.07269">
        <ele>68</ele>
        <time>2014-11-30T10:32:55Z</time>
      </trkpt>
      <trkpt lat="47.01098" lon="-1.07293">
        <ele>67</ele>
        <time>2014-11-30T10:33:00Z</time>
      </trkpt>
      <trkpt lat="47.01102" lon="-1.07316">
        <ele>65</ele>
        <time>2014-11-30T10:33:05Z</time>
      </trkpt>
      <trkpt lat="47.01106" lon="-1.07339">
        <ele>73</ele>
        <time>2014-11-30T10:33:10Z</time>
      </trkpt>
      <trkpt lat="47.01109" lon="-1.07356">
        <ele>83</ele>
        <time>2014-11-30T10:33:14Z</time>
      </trkpt>
      <trkpt lat="47.01105" lon="-1.07393">
        <ele>83</ele>
        <time>2014-11-30T10:33:36Z</time>
      </trkpt>
      <trkpt lat="47.01103" lon="-1.0741">
        <ele>82</ele>
        <time>2014-11-30T10:33:36Z</time>
      </trkpt>
      <trkpt lat="47.01103" lon="-1.07407">
        <ele>82</ele>
        <time>2014-11-30T10:34:00Z</time>
      </trkpt>
      <trkpt lat="47.01055" lon="-1.07314">
        <ele>78</ele>
        <time>2014-11-30T10:34:00Z</time>
      </trkpt>
      <trkpt lat="47.01052" lon="-1.07302">
        <ele>60</ele>
        <time>2014-11-30T10:35:18Z</time>
      </trkpt>
      <trkpt lat="47.01055" lon="-1.0731">
        <ele>57</ele>
        <time>2014-11-30T10:37:17Z</time>
      </trkpt>
      <trkpt lat="47.01058" lon="-1.07319">
        <ele>55</ele>
        <time>2014-11-30T10:37:19Z</time>
      </trkpt>
      <trkpt lat="47.01063" lon="-1.07331">
        <ele>57</ele>
        <time>2014-11-30T10:37:22Z</time>
      </trkpt>
      <trkpt lat="47.01073" lon="-1.07348">
        <ele>55</ele>
        <time>2014-11-30T10:37:27Z</time>
      </trkpt>
      <trkpt lat="47.01079" lon="-1.07356">
        <ele>56</ele>
        <time>2014-11-30T10:37:30Z</time>
      </trkpt>
      <trkpt lat="47.01089" lon="-1.07369">
        <ele>55</ele>
        <time>2014-11-30T10:37:35Z</time>
      </trkpt>
      <trkpt lat="47.01097" lon="-1.07374">
        <ele>57</ele>
        <time>2014-11-30T10:37:40Z</time>
      </trkpt>
      <trkpt lat="47.01106" lon="-1.07379">
        <ele>58</ele>
        <time>2014-11-30T10:37:44Z</time>
      </trkpt>
      <trkpt lat="47.01114" lon="-1.0738">
        <ele>59</ele>
        <time>2014-11-30T10:37:50Z</time>
      </trkpt>
      <trkpt lat="47.01121" lon="-1.07387">
        <ele>58</ele>
        <time>2014-11-30T10:37:55Z</time>
      </trkpt>
      <trkpt lat="47.01122" lon="-1.074">
        <ele>59</ele>
        <time>2014-11-30T10:38:00Z</time>
      </trkpt>
      <trkpt lat="47.01124" lon="-1.07411">
        <ele>59</ele>
        <time>2014-11-30T10:38:04Z</time>
      </trkpt>
      <trkpt lat="47.01126" lon="-1.07423">
        <ele>58</ele>
        <time>2014-11-30T10:38:08Z</time>
      </trkpt>
      <trkpt lat="47.01128" lon="-1.07438">
        <ele>57</ele>
        <time>2014-11-30T10:38:13Z</time>
      </trkpt>
      <trkpt lat="47.01131" lon="-1.07453">
        <ele>59</ele>
        <time>2014-11-30T10:38:18Z</time>
      </trkpt>
      <trkpt lat="47.01134" lon="-1.07465">
        <ele>59</ele>
        <time>2014-11-30T10:38:22Z</time>
      </trkpt>
      <trkpt lat="47.01137" lon="-1.07477">
        <ele>59</ele>
        <time>2014-11-30T10:38:26Z</time>
      </trkpt>
      <trkpt lat="47.01141" lon="-1.07492">
        <ele>62</ele>
        <time>2014-11-30T10:38:31Z</time>
      </trkpt>
      <trkpt lat="47.01143" lon="-1.07504">
        <ele>64</ele>
        <time>2014-11-30T10:38:36Z</time>
      </trkpt>
      <trkpt lat="47.01143" lon="-1.07515">
        <ele>66</ele>
        <time>2014-11-30T10:38:41Z</time>
      </trkpt>
      <trkpt lat="47.01139" lon="-1.07548">
        <ele>63</ele>
        <time>2014-11-30T10:38:46Z</time>
      </trkpt>
      <trkpt lat="47.01139" lon="-1.07569">
        <ele>65</ele>
        <time>2014-11-30T10:38:50Z</time>
      </trkpt>
      <trkpt lat="47.01138" lon="-1.07579">
        <ele>64</ele>
        <time>2014-11-30T10:39:09Z</time>
      </trkpt>
      <trkpt lat="47.01148" lon="-1.07674">
        <ele>56</ele>
        <time>2014-11-30T10:39:09Z</time>
      </trkpt>
      <trkpt lat="47.01148" lon="-1.07676">
        <ele>55</ele>
        <time>2014-11-30T10:39:17Z</time>
      </trkpt>
      <trkpt lat="47.01168" lon="-1.07686">
        <ele>55</ele>
        <time>2014-11-30T10:39:22Z</time>
      </trkpt>
      <trkpt lat="47.01173" lon="-1.07702">
        <ele>53</ele>
        <time>2014-11-30T10:39:26Z</time>
      </trkpt>
      <trkpt lat="47.01171" lon="-1.07719">
        <ele>53</ele>
        <time>2014-11-30T10:39:30Z</time>
      </trkpt>
      <trkpt lat="47.01165" lon="-1.07728">
        <ele>50</ele>
        <time>2014-11-30T10:39:46Z</time>
      </trkpt>
      <trkpt lat="47.01152" lon="-1.07756">
        <ele>51</ele>
        <time>2014-11-30T10:39:50Z</time>
      </trkpt>
      <trkpt lat="47.01153" lon="-1.07792">
        <ele>51</ele>
        <time>2014-11-30T10:39:54Z</time>
      </trkpt>
      <trkpt lat="47.01162" lon="-1.07826">
        <ele>52</ele>
        <time>2014-11-30T10:39:58Z</time>
      </trkpt>
      <trkpt lat="47.01179" lon="-1.07856">
        <ele>52</ele>
        <time>2014-11-30T10:40:03Z</time>
      </trkpt>
      <trkpt lat="47.01192" lon="-1.07868">
        <ele>53</ele>
        <time>2014-11-30T10:40:06Z</time>
      </trkpt>
      <trkpt lat="47.01204" lon="-1.07879">
        <ele>51</ele>
        <time>2014-11-30T10:40:11Z</time>
      </trkpt>
      <trkpt lat="47.01218" lon="-1.07894">
        <ele>49</ele>
        <time>2014-11-30T10:40:16Z</time>
      </trkpt>
      <trkpt lat="47.01229" lon="-1.07925">
        <ele>48</ele>
        <time>2014-11-30T10:40:20Z</time>
      </trkpt>
      <trkpt lat="47.01243" lon="-1.07947">
        <ele>47</ele>
        <time>2014-11-30T10:40:24Z</time>
      </trkpt>
      <trkpt lat="47.01256" lon="-1.07968">
        <ele>50</ele>
        <time>2014-11-30T10:40:28Z</time>
      </trkpt>
      <trkpt lat="47.01269" lon="-1.08">
        <ele>51</ele>
        <time>2014-11-30T10:40:33Z</time>
      </trkpt>
      <trkpt lat="47.01281" lon="-1.08022">
        <ele>52</ele>
        <time>2014-11-30T10:40:38Z</time>
      </trkpt>
      <trkpt lat="47.01294" lon="-1.08039">
        <ele>50</ele>
        <time>2014-11-30T10:40:41Z</time>
      </trkpt>
      <trkpt lat="47.01309" lon="-1.08062">
        <ele>51</ele>
        <time>2014-11-30T10:40:46Z</time>
      </trkpt>
      <trkpt lat="47.01326" lon="-1.08082">
        <ele>55</ele>
        <time>2014-11-30T10:40:51Z</time>
      </trkpt>
      <trkpt lat="47.0134" lon="-1.08107">
        <ele>53</ele>
        <time>2014-11-30T10:40:56Z</time>
      </trkpt>
      <trkpt lat="47.01348" lon="-1.0812">
        <ele>52</ele>
        <time>2014-11-30T10:40:59Z</time>
      </trkpt>
      <trkpt lat="47.01355" lon="-1.0813">
        <ele>55</ele>
        <time>2014-11-30T10:41:09Z</time>
      </trkpt>
      <trkpt lat="47.01356" lon="-1.08136">
        <ele>56</ele>
        <time>2014-11-30T10:41:57Z</time>
      </trkpt>
      <trkpt lat="47.01351" lon="-1.08239">
        <ele>51</ele>
        <time>2014-11-30T10:42:02Z</time>
      </trkpt>
      <trkpt lat="47.01342" lon="-1.08263">
        <ele>53</ele>
        <time>2014-11-30T10:42:06Z</time>
      </trkpt>
      <trkpt lat="47.01333" lon="-1.08285">
        <ele>56</ele>
        <time>2014-11-30T10:42:10Z</time>
      </trkpt>
      <trkpt lat="47.01318" lon="-1.08309">
        <ele>56</ele>
        <time>2014-11-30T10:42:14Z</time>
      </trkpt>
      <trkpt lat="47.01313" lon="-1.08323">
        <ele>60</ele>
        <time>2014-11-30T10:42:18Z</time>
      </trkpt>
      <trkpt lat="47.0131" lon="-1.08336">
        <ele>68</ele>
        <time>2014-11-30T10:47:23Z</time>
      </trkpt>
      <trkpt lat="47.01692" lon="-1.08935">
        <ele>60</ele>
        <time>2014-11-30T10:47:27Z</time>
      </trkpt>
      <trkpt lat="47.01701" lon="-1.08934">
        <ele>59</ele>
        <time>2014-11-30T10:47:33Z</time>
      </trkpt>
      <trkpt lat="47.01708" lon="-1.08937">
        <ele>60</ele>
        <time>2014-11-30T10:47:39Z</time>
      </trkpt>
      <trkpt lat="47.01716" lon="-1.08941">
        <ele>62</ele>
        <time>2014-11-30T10:47:46Z</time>
      </trkpt>
      <trkpt lat="47.01724" lon="-1.08947">
        <ele>62</ele>
        <time>2014-11-30T10:47:52Z</time>
      </trkpt>
      <trkpt lat="47.01728" lon="-1.08949">
        <ele>62</ele>
        <time>2014-11-30T10:48:00Z</time>
      </trkpt>
      <trkpt lat="47.01733" lon="-1.08953">
        <ele>63</ele>
        <time>2014-11-30T10:48:00Z</time>
      </trkpt>
      <trkpt lat="47.01737" lon="-1.08955">
        <ele>64</ele>
        <time>2014-11-30T10:48:25Z</time>
      </trkpt>
      <trkpt lat="47.01768" lon="-1.08964">
        <ele>74</ele>
        <time>2014-11-30T10:48:30Z</time>
      </trkpt>
      <trkpt lat="47.01777" lon="-1.08965">
        <ele>73</ele>
        <time>2014-11-30T10:48:38Z</time>
      </trkpt>
      <trkpt lat="47.01785" lon="-1.08966">
        <ele>75</ele>
        <time>2014-11-30T10:48:45Z</time>
      </trkpt>
      <trkpt lat="47.01793" lon="-1.08966">
        <ele>74</ele>
        <time>2014-11-30T10:48:52Z</time>
      </trkpt>
      <trkpt lat="47.01801" lon="-1.08969">
        <ele>73</ele>
        <time>2014-11-30T10:49:00Z</time>
      </trkpt>
      <trkpt lat="47.0181" lon="-1.08969">
        <ele>73</ele>
        <time>2014-11-30T10:49:05Z</time>
      </trkpt>
      <trkpt lat="47.01818" lon="-1.08971">
        <ele>76</ele>
        <time>2014-11-30T10:49:12Z</time>
      </trkpt>
      <trkpt lat="47.01827" lon="-1.08972">
        <ele>75</ele>
        <time>2014-11-30T10:49:19Z</time>
      </trkpt>
      <trkpt lat="47.01835" lon="-1.08974">
        <ele>79</ele>
        <time>2014-11-30T10:49:26Z</time>
      </trkpt>
      <trkpt lat="47.01836" lon="-1.08974">
        <ele>80</ele>
        <time>2014-11-30T10:49:27Z</time>
      </trkpt>
      <trkpt lat="47.01871" lon="-1.08988">
        <ele>85</ele>
        <time>2014-11-30T10:50:00Z</time>
      </trkpt>
      <trkpt lat="47.01873" lon="-1.0899">
        <ele>86</ele>
        <time>2014-11-30T10:50:24Z</time>
      </trkpt>
      <trkpt lat="47.01845" lon="-1.09013">
        <ele>85</ele>
        <time>2014-11-30T10:50:29Z</time>
      </trkpt>
      <trkpt lat="47.01834" lon="-1.09024">
        <ele>86</ele>
        <time>2014-11-30T10:50:34Z</time>
      </trkpt>
      <trkpt lat="47.01826" lon="-1.09036">
        <ele>88</ele>
        <time>2014-11-30T10:50:38Z</time>
      </trkpt>
      <trkpt lat="47.01816" lon="-1.09049">
        <ele>87</ele>
        <time>2014-11-30T10:50:43Z</time>
      </trkpt>
      <trkpt lat="47.01808" lon="-1.09057">
        <ele>84</ele>
        <time>2014-11-30T10:50:48Z</time>
      </trkpt>
      <trkpt lat="47.01802" lon="-1.09066">
        <ele>84</ele>
        <time>2014-11-30T10:50:51Z</time>
      </trkpt>
      <trkpt lat="47.018" lon="-1.09069">
        <ele>84</ele>
        <time>2014-11-30T10:50:59Z</time>
      </trkpt>
      <trkpt lat="47.0179" lon="-1.09103">
        <ele>85</ele>
        <time>2014-11-30T10:51:04Z</time>
      </trkpt>
      <trkpt lat="47.01786" lon="-1.09114">
        <ele>86</ele>
        <time>2014-11-30T10:51:08Z</time>
      </trkpt>
      <trkpt lat="47.01782" lon="-1.09127">
        <ele>86</ele>
        <time>2014-11-30T10:51:13Z</time>
      </trkpt>
      <trkpt lat="47.01779" lon="-1.0914">
        <ele>87</ele>
        <time>2014-11-30T10:51:17Z</time>
      </trkpt>
      <trkpt lat="47.01779" lon="-1.0915">
        <ele>88</ele>
        <time>2014-11-30T10:51:20Z</time>
      </trkpt>
      <trkpt lat="47.01776" lon="-1.09164">
        <ele>88</ele>
        <time>2014-11-30T10:51:24Z</time>
      </trkpt>
      <trkpt lat="47.01772" lon="-1.09189">
        <ele>89</ele>
        <time>2014-11-30T10:51:29Z</time>
      </trkpt>
      <trkpt lat="47.01771" lon="-1.09211">
        <ele>91</ele>
        <time>2014-11-30T10:51:33Z</time>
      </trkpt>
      <trkpt lat="47.0177" lon="-1.09236">
        <ele>90</ele>
        <time>2014-11-30T10:51:38Z</time>
      </trkpt>
      <trkpt lat="47.01771" lon="-1.0927">
        <ele>90</ele>
        <time>2014-11-30T10:51:42Z</time>
      </trkpt>
      <trkpt lat="47.01772" lon="-1.09278">
        <ele>89</ele>
        <time>2014-11-30T10:51:48Z</time>
      </trkpt>
      <trkpt lat="47.01787" lon="-1.09352">
        <ele>85</ele>
        <time>2014-11-30T10:51:52Z</time>
      </trkpt>
      <trkpt lat="47.01803" lon="-1.09385">
        <ele>83</ele>
        <time>2014-11-30T10:51:57Z</time>
      </trkpt>
      <trkpt lat="47.01794" lon="-1.09403">
        <ele>83</ele>
        <time>2014-11-30T10:52:01Z</time>
      </trkpt>
      <trkpt lat="47.01785" lon="-1.09412">
        <ele>84</ele>
        <time>2014-11-30T10:52:05Z</time>
      </trkpt>
      <trkpt lat="47.01765" lon="-1.09451">
        <ele>84</ele>
        <time>2014-11-30T10:52:12Z</time>
      </trkpt>
      <trkpt lat="47.01765" lon="-1.09464">
        <ele>83</ele>
        <time>2014-11-30T10:52:32Z</time>
      </trkpt>
      <trkpt lat="47.01775" lon="-1.09564">
        <ele>85</ele>
        <time>2014-11-30T10:52:32Z</time>
      </trkpt>
      <trkpt lat="47.01784" lon="-1.09621">
        <ele>88</ele>
        <time>2014-11-30T10:53:32Z</time>
      </trkpt>
      <trkpt lat="47.01784" lon="-1.09621">
        <ele>88</ele>
        <time>2014-11-30T10:53:41Z</time>
      </trkpt>
      <trkpt lat="47.0181" lon="-1.09821">
        <ele>92</ele>
        <time>2014-11-30T10:53:42Z</time>
      </trkpt>
      <trkpt lat="47.01802" lon="-1.09824">
        <ele>82</ele>
        <time>2014-11-30T10:56:34Z</time>
      </trkpt>
      <trkpt lat="47.01791" lon="-1.09832">
        <ele>83</ele>
        <time>2014-11-30T10:56:38Z</time>
      </trkpt>
      <trkpt lat="47.01789" lon="-1.09836">
        <ele>82</ele>
        <time>2014-11-30T10:56:53Z</time>
      </trkpt>
      <trkpt lat="47.01794" lon="-1.09951">
        <ele>90</ele>
        <time>2014-11-30T10:56:57Z</time>
      </trkpt>
      <trkpt lat="47.01798" lon="-1.09975">
        <ele>90</ele>
        <time>2014-11-30T10:57:09Z</time>
      </trkpt>
      <trkpt lat="47.01806" lon="-1.10048">
        <ele>90</ele>
        <time>2014-11-30T10:57:23Z</time>
      </trkpt>
      <trkpt lat="47.01765" lon="-1.10112">
        <ele>87</ele>
        <time>2014-11-30T10:57:28Z</time>
      </trkpt>
      <trkpt lat="47.01748" lon="-1.10109">
        <ele>88</ele>
        <time>2014-11-30T10:57:31Z</time>
      </trkpt>
      <trkpt lat="47.01725" lon="-1.10109">
        <ele>87</ele>
        <time>2014-11-30T10:57:35Z</time>
      </trkpt>
      <trkpt lat="47.01707" lon="-1.10092">
        <ele>87</ele>
        <time>2014-11-30T10:57:40Z</time>
      </trkpt>
      <trkpt lat="47.01687" lon="-1.10086">
        <ele>86</ele>
        <time>2014-11-30T10:57:44Z</time>
      </trkpt>
      <trkpt lat="47.01658" lon="-1.10097">
        <ele>86</ele>
        <time>2014-11-30T10:57:49Z</time>
      </trkpt>
      <trkpt lat="47.01645" lon="-1.10099">
        <ele>79</ele>
        <time>2014-11-30T10:57:53Z</time>
      </trkpt>
      <trkpt lat="47.01628" lon="-1.10099">
        <ele>77</ele>
        <time>2014-11-30T10:57:58Z</time>
      </trkpt>
      <trkpt lat="47.01613" lon="-1.10101">
        <ele>77</ele>
        <time>2014-11-30T10:58:02Z</time>
      </trkpt>
      <trkpt lat="47.01595" lon="-1.10107">
        <ele>74</ele>
        <time>2014-11-30T10:58:07Z</time>
      </trkpt>
      <trkpt lat="47.01582" lon="-1.10114">
        <ele>70</ele>
        <time>2014-11-30T10:58:12Z</time>
      </trkpt>
      <trkpt lat="47.01576" lon="-1.10128">
        <ele>66</ele>
        <time>2014-11-30T10:58:16Z</time>
      </trkpt>
      <trkpt lat="47.01571" lon="-1.10145">
        <ele>64</ele>
        <time>2014-11-30T10:58:20Z</time>
      </trkpt>
      <trkpt lat="47.01567" lon="-1.10158">
        <ele>64</ele>
        <time>2014-11-30T10:58:23Z</time>
      </trkpt>
      <trkpt lat="47.01558" lon="-1.10183">
        <ele>62</ele>
        <time>2014-11-30T10:58:28Z</time>
      </trkpt>
      <trkpt lat="47.01557" lon="-1.10207">
        <ele>62</ele>
        <time>2014-11-30T10:58:33Z</time>
      </trkpt>
      <trkpt lat="47.01563" lon="-1.10235">
        <ele>61</ele>
        <time>2014-11-30T10:58:37Z</time>
      </trkpt>
      <trkpt lat="47.01565" lon="-1.10247">
        <ele>62</ele>
        <time>2014-11-30T10:58:51Z</time>
      </trkpt>
      <trkpt lat="47.01565" lon="-1.1026">
        <ele>62</ele>
        <time>2014-11-30T10:59:02Z</time>
      </trkpt>
      <trkpt lat="47.01568" lon="-1.10283">
        <ele>63</ele>
        <time>2014-11-30T10:59:07Z</time>
      </trkpt>
      <trkpt lat="47.01569" lon="-1.10317">
        <ele>62</ele>
        <time>2014-11-30T10:59:12Z</time>
      </trkpt>
      <trkpt lat="47.01561" lon="-1.10365">
        <ele>61</ele>
        <time>2014-11-30T11:00:00Z</time>
      </trkpt>
      <trkpt lat="47.01584" lon="-1.10701">
        <ele>54</ele>
        <time>2014-11-30T11:00:05Z</time>
      </trkpt>
      <trkpt lat="47.01588" lon="-1.10726">
        <ele>53</ele>
        <time>2014-11-30T11:00:08Z</time>
      </trkpt>
      <trkpt lat="47.01596" lon="-1.10766">
        <ele>49</ele>
        <time>2014-11-30T11:00:13Z</time>
      </trkpt>
      <trkpt lat="47.01601" lon="-1.108">
        <ele>51</ele>
        <time>2014-11-30T11:00:18Z</time>
      </trkpt>
      <trkpt lat="47.01609" lon="-1.10827">
        <ele>55</ele>
        <time>2014-11-30T11:00:22Z</time>
      </trkpt>
      <trkpt lat="47.01615" lon="-1.10856">
        <ele>53</ele>
        <time>2014-11-30T11:00:27Z</time>
      </trkpt>
      <trkpt lat="47.01617" lon="-1.10881">
        <ele>53</ele>
        <time>2014-11-30T11:00:31Z</time>
      </trkpt>
      <trkpt lat="47.01615" lon="-1.10907">
        <ele>50</ele>
        <time>2014-11-30T11:00:35Z</time>
      </trkpt>
      <trkpt lat="47.0161" lon="-1.10927">
        <ele>50</ele>
        <time>2014-11-30T11:00:39Z</time>
      </trkpt>
      <trkpt lat="47.0161" lon="-1.10942">
        <ele>50</ele>
        <time>2014-11-30T11:00:42Z</time>
      </trkpt>
      <trkpt lat="47.01613" lon="-1.10968">
        <ele>49</ele>
        <time>2014-11-30T11:00:47Z</time>
      </trkpt>
      <trkpt lat="47.01616" lon="-1.1099">
        <ele>51</ele>
        <time>2014-11-30T11:00:51Z</time>
      </trkpt>
      <trkpt lat="47.01621" lon="-1.11006">
        <ele>52</ele>
        <time>2014-11-30T11:00:56Z</time>
      </trkpt>
      <trkpt lat="47.01636" lon="-1.1104">
        <ele>50</ele>
        <time>2014-11-30T11:01:00Z</time>
      </trkpt>
      <trkpt lat="47.01647" lon="-1.11056">
        <ele>49</ele>
        <time>2014-11-30T11:01:04Z</time>
      </trkpt>
      <trkpt lat="47.01652" lon="-1.11047">
        <ele>51</ele>
        <time>2014-11-30T11:01:10Z</time>
      </trkpt>
      <trkpt lat="47.01658" lon="-1.11038">
        <ele>52</ele>
        <time>2014-11-30T11:01:21Z</time>
      </trkpt>
      <trkpt lat="47.01669" lon="-1.11019">
        <ele>52</ele>
        <time>2014-11-30T11:01:25Z</time>
      </trkpt>
      <trkpt lat="47.01675" lon="-1.1101">
        <ele>51</ele>
        <time>2014-11-30T11:01:30Z</time>
      </trkpt>
      <trkpt lat="47.01681" lon="-1.11001">
        <ele>52</ele>
        <time>2014-11-30T11:01:36Z</time>
      </trkpt>
      <trkpt lat="47.01689" lon="-1.10997">
        <ele>51</ele>
        <time>2014-11-30T11:01:42Z</time>
      </trkpt>
      <trkpt lat="47.01697" lon="-1.10996">
        <ele>51</ele>
        <time>2014-11-30T11:01:48Z</time>
      </trkpt>
      <trkpt lat="47.01699" lon="-1.10995">
        <ele>52</ele>
        <time>2014-11-30T11:02:49Z</time>
      </trkpt>
      <trkpt lat="47.01763" lon="-1.11007">
        <ele>73</ele>
        <time>2014-11-30T11:02:49Z</time>
      </trkpt>
      <trkpt lat="47.01774" lon="-1.11008">
        <ele>75</ele>
        <time>2014-11-30T11:03:00Z</time>
      </trkpt>
      <trkpt lat="47.01783" lon="-1.11009">
        <ele>77</ele>
        <time>2014-11-30T11:03:05Z</time>
      </trkpt>
      <trkpt lat="47.01792" lon="-1.11008">
        <ele>80</ele>
        <time>2014-11-30T11:03:13Z</time>
      </trkpt>
      <trkpt lat="47.018" lon="-1.11006">
        <ele>82</ele>
        <time>2014-11-30T11:03:21Z</time>
      </trkpt>
      <trkpt lat="47.01809" lon="-1.11003">
        <ele>82</ele>
        <time>2014-11-30T11:03:46Z</time>
      </trkpt>
      <trkpt lat="47.01849" lon="-1.10984">
        <ele>82</ele>
        <time>2014-11-30T11:03:50Z</time>
      </trkpt>
      <trkpt lat="47.0186" lon="-1.10982">
        <ele>82</ele>
        <time>2014-11-30T11:03:55Z</time>
      </trkpt>
      <trkpt lat="47.01872" lon="-1.10994">
        <ele>83</ele>
        <time>2014-11-30T11:04:00Z</time>
      </trkpt>
      <trkpt lat="47.01885" lon="-1.11005">
        <ele>83</ele>
        <time>2014-11-30T11:04:05Z</time>
      </trkpt>
      <trkpt lat="47.01896" lon="-1.11015">
        <ele>84</ele>
        <time>2014-11-30T11:04:09Z</time>
      </trkpt>
      <trkpt lat="47.0191" lon="-1.11026">
        <ele>84</ele>
        <time>2014-11-30T11:04:14Z</time>
      </trkpt>
      <trkpt lat="47.01922" lon="-1.11036">
        <ele>83</ele>
        <time>2014-11-30T11:04:18Z</time>
      </trkpt>
      <trkpt lat="47.01936" lon="-1.11048">
        <ele>83</ele>
        <time>2014-11-30T11:04:23Z</time>
      </trkpt>
      <trkpt lat="47.01947" lon="-1.11057">
        <ele>83</ele>
        <time>2014-11-30T11:04:27Z</time>
      </trkpt>
      <trkpt lat="47.0196" lon="-1.11067">
        <ele>84</ele>
        <time>2014-11-30T11:04:32Z</time>
      </trkpt>
      <trkpt lat="47.01971" lon="-1.11073">
        <ele>82</ele>
        <time>2014-11-30T11:04:36Z</time>
      </trkpt>
      <trkpt lat="47.01985" lon="-1.11076">
        <ele>82</ele>
        <time>2014-11-30T11:04:41Z</time>
      </trkpt>
      <trkpt lat="47.02002" lon="-1.11077">
        <ele>78</ele>
        <time>2014-11-30T11:04:46Z</time>
      </trkpt>
      <trkpt lat="47.02021" lon="-1.11076">
        <ele>78</ele>
        <time>2014-11-30T11:04:51Z</time>
      </trkpt>
      <trkpt lat="47.02037" lon="-1.11078">
        <ele>80</ele>
        <time>2014-11-30T11:04:56Z</time>
      </trkpt>
      <trkpt lat="47.0205" lon="-1.1108">
        <ele>80</ele>
        <time>2014-11-30T11:05:00Z</time>
      </trkpt>
      <trkpt lat="47.02067" lon="-1.11082">
        <ele>82</ele>
        <time>2014-11-30T11:05:05Z</time>
      </trkpt>
      <trkpt lat="47.02085" lon="-1.11084">
        <ele>84</ele>
        <time>2014-11-30T11:05:10Z</time>
      </trkpt>
      <trkpt lat="47.02099" lon="-1.11085">
        <ele>85</ele>
        <time>2014-11-30T11:05:14Z</time>
      </trkpt>
      <trkpt lat="47.02118" lon="-1.11087">
        <ele>84</ele>
        <time>2014-11-30T11:05:19Z</time>
      </trkpt>
      <trkpt lat="47.02137" lon="-1.11088">
        <ele>84</ele>
        <time>2014-11-30T11:05:24Z</time>
      </trkpt>
      <trkpt lat="47.02152" lon="-1.11087">
        <ele>84</ele>
        <time>2014-11-30T11:05:28Z</time>
      </trkpt>
      <trkpt lat="47.02173" lon="-1.11086">
        <ele>84</ele>
        <time>2014-11-30T11:05:33Z</time>
      </trkpt>
      <trkpt lat="47.02193" lon="-1.11083">
        <ele>84</ele>
        <time>2014-11-30T11:05:37Z</time>
      </trkpt>
      <trkpt lat="47.02208" lon="-1.11077">
        <ele>85</ele>
        <time>2014-11-30T11:05:41Z</time>
      </trkpt>
      <trkpt lat="47.02218" lon="-1.11065">
        <ele>84</ele>
        <time>2014-11-30T11:05:45Z</time>
      </trkpt>
      <trkpt lat="47.02218" lon="-1.11061">
        <ele>88</ele>
        <time>2014-11-30T11:08:00Z</time>
      </trkpt>
      <trkpt lat="47.0226" lon="-1.11021">
        <ele>90</ele>
        <time>2014-11-30T11:08:20Z</time>
      </trkpt>
      <trkpt lat="47.02304" lon="-1.1097">
        <ele>88</ele>
        <time>2014-11-30T11:08:35Z</time>
      </trkpt>
      <trkpt lat="47.02311" lon="-1.10963">
        <ele>86</ele>
        <time>2014-11-30T11:08:37Z</time>
      </trkpt>
      <trkpt lat="47.02314" lon="-1.10961">
        <ele>86</ele>
        <time>2014-11-30T11:08:42Z</time>
      </trkpt>
      <trkpt lat="47.02353" lon="-1.10977">
        <ele>83</ele>
        <time>2014-11-30T11:08:46Z</time>
      </trkpt>
      <trkpt lat="47.02372" lon="-1.10998">
        <ele>83</ele>
        <time>2014-11-30T11:08:50Z</time>
      </trkpt>
      <trkpt lat="47.02397" lon="-1.11001">
        <ele>81</ele>
        <time>2014-11-30T11:08:55Z</time>
      </trkpt>
      <trkpt lat="47.02414" lon="-1.10987">
        <ele>82</ele>
        <time>2014-11-30T11:08:59Z</time>
      </trkpt>
      <trkpt lat="47.02426" lon="-1.10976">
        <ele>81</ele>
        <time>2014-11-30T11:09:01Z</time>
      </trkpt>
      <trkpt lat="47.02456" lon="-1.1096">
        <ele>83</ele>
        <time>2014-11-30T11:09:06Z</time>
      </trkpt>
      <trkpt lat="47.02472" lon="-1.10948">
        <ele>84</ele>
        <time>2014-11-30T11:09:11Z</time>
      </trkpt>
      <trkpt lat="47.02507" lon="-1.10939">
        <ele>83</ele>
        <time>2014-11-30T11:09:15Z</time>
      </trkpt>
      <trkpt lat="47.02528" lon="-1.10926">
        <ele>80</ele>
        <time>2014-11-30T11:09:19Z</time>
      </trkpt>
      <trkpt lat="47.02542" lon="-1.1092">
        <ele>81</ele>
        <time>2014-11-30T11:09:23Z</time>
      </trkpt>
      <trkpt lat="47.02556" lon="-1.10913">
        <ele>82</ele>
        <time>2014-11-30T11:09:27Z</time>
      </trkpt>
      <trkpt lat="47.02572" lon="-1.10904">
        <ele>84</ele>
        <time>2014-11-30T11:09:32Z</time>
      </trkpt>
      <trkpt lat="47.02586" lon="-1.10897">
        <ele>83</ele>
        <time>2014-11-30T11:09:36Z</time>
      </trkpt>
      <trkpt lat="47.02599" lon="-1.10892">
        <ele>84</ele>
        <time>2014-11-30T11:09:40Z</time>
      </trkpt>
      <trkpt lat="47.02612" lon="-1.10887">
        <ele>82</ele>
        <time>2014-11-30T11:09:44Z</time>
      </trkpt>
      <trkpt lat="47.02625" lon="-1.10882">
        <ele>82</ele>
        <time>2014-11-30T11:09:48Z</time>
      </trkpt>
      <trkpt lat="47.02638" lon="-1.10878">
        <ele>82</ele>
        <time>2014-11-30T11:09:52Z</time>
      </trkpt>
      <trkpt lat="47.02655" lon="-1.10876">
        <ele>83</ele>
        <time>2014-11-30T11:09:57Z</time>
      </trkpt>
      <trkpt lat="47.02671" lon="-1.10875">
        <ele>81</ele>
        <time>2014-11-30T11:10:02Z</time>
      </trkpt>
      <trkpt lat="47.02685" lon="-1.10873">
        <ele>81</ele>
        <time>2014-11-30T11:10:06Z</time>
      </trkpt>
      <trkpt lat="47.02697" lon="-1.10868">
        <ele>82</ele>
        <time>2014-11-30T11:10:10Z</time>
      </trkpt>
      <trkpt lat="47.0271" lon="-1.10864">
        <ele>84</ele>
        <time>2014-11-30T11:10:14Z</time>
      </trkpt>
      <trkpt lat="47.02722" lon="-1.10858">
        <ele>84</ele>
        <time>2014-11-30T11:10:18Z</time>
      </trkpt>
      <trkpt lat="47.02734" lon="-1.10852">
        <ele>86</ele>
        <time>2014-11-30T11:10:22Z</time>
      </trkpt>
      <trkpt lat="47.02745" lon="-1.10845">
        <ele>86</ele>
        <time>2014-11-30T11:10:26Z</time>
      </trkpt>
      <trkpt lat="47.02759" lon="-1.10839">
        <ele>85</ele>
        <time>2014-11-30T11:10:31Z</time>
      </trkpt>
      <trkpt lat="47.02771" lon="-1.10832">
        <ele>84</ele>
        <time>2014-11-30T11:10:35Z</time>
      </trkpt>
      <trkpt lat="47.0278" lon="-1.10827">
        <ele>86</ele>
        <time>2014-11-30T11:10:38Z</time>
      </trkpt>
      <trkpt lat="47.02794" lon="-1.1082">
        <ele>89</ele>
        <time>2014-11-30T11:10:43Z</time>
      </trkpt>
      <trkpt lat="47.02804" lon="-1.10815">
        <ele>89</ele>
        <time>2014-11-30T11:10:47Z</time>
      </trkpt>
      <trkpt lat="47.02814" lon="-1.10809">
        <ele>90</ele>
        <time>2014-11-30T11:10:51Z</time>
      </trkpt>
      <trkpt lat="47.02823" lon="-1.10801">
        <ele>92</ele>
        <time>2014-11-30T11:10:55Z</time>
      </trkpt>
      <trkpt lat="47.02831" lon="-1.10792">
        <ele>93</ele>
        <time>2014-11-30T11:10:59Z</time>
      </trkpt>
      <trkpt lat="47.0284" lon="-1.10782">
        <ele>94</ele>
        <time>2014-11-30T11:11:03Z</time>
      </trkpt>
      <trkpt lat="47.0285" lon="-1.10774">
        <ele>94</ele>
        <time>2014-11-30T11:11:07Z</time>
      </trkpt>
      <trkpt lat="47.02859" lon="-1.10766">
        <ele>95</ele>
        <time>2014-11-30T11:11:11Z</time>
      </trkpt>
      <trkpt lat="47.02874" lon="-1.10757">
        <ele>93</ele>
        <time>2014-11-30T11:11:16Z</time>
      </trkpt>
      <trkpt lat="47.02887" lon="-1.10752">
        <ele>94</ele>
        <time>2014-11-30T11:11:21Z</time>
      </trkpt>
      <trkpt lat="47.029" lon="-1.10746">
        <ele>95</ele>
        <time>2014-11-30T11:11:24Z</time>
      </trkpt>
      <trkpt lat="47.02915" lon="-1.10738">
        <ele>94</ele>
        <time>2014-11-30T11:11:29Z</time>
      </trkpt>
      <trkpt lat="47.02928" lon="-1.10733">
        <ele>94</ele>
        <time>2014-11-30T11:11:33Z</time>
      </trkpt>
      <trkpt lat="47.0294" lon="-1.10727">
        <ele>93</ele>
        <time>2014-11-30T11:11:37Z</time>
      </trkpt>
      <trkpt lat="47.0295" lon="-1.10723">
        <ele>95</ele>
        <time>2014-11-30T11:11:41Z</time>
      </trkpt>
      <trkpt lat="47.02963" lon="-1.10721">
        <ele>95</ele>
        <time>2014-11-30T11:11:46Z</time>
      </trkpt>
      <trkpt lat="47.02969" lon="-1.1072">
        <ele>95</ele>
        <time>2014-11-30T11:11:48Z</time>
      </trkpt>
      <trkpt lat="47.02981" lon="-1.10717">
        <ele>94</ele>
        <time>2014-11-30T11:11:52Z</time>
      </trkpt>
      <trkpt lat="47.02991" lon="-1.10714">
        <ele>94</ele>
        <time>2014-11-30T11:11:55Z</time>
      </trkpt>
      <trkpt lat="47.03009" lon="-1.10709">
        <ele>96</ele>
        <time>2014-11-30T11:12:00Z</time>
      </trkpt>
      <trkpt lat="47.03027" lon="-1.10704">
        <ele>97</ele>
        <time>2014-11-30T11:12:05Z</time>
      </trkpt>
      <trkpt lat="47.03041" lon="-1.10697">
        <ele>96</ele>
        <time>2014-11-30T11:12:09Z</time>
      </trkpt>
      <trkpt lat="47.03055" lon="-1.1069">
        <ele>97</ele>
        <time>2014-11-30T11:12:13Z</time>
      </trkpt>
      <trkpt lat="47.03061" lon="-1.10685">
        <ele>98</ele>
        <time>2014-11-30T11:12:18Z</time>
      </trkpt>
      <trkpt lat="47.0309" lon="-1.10671">
        <ele>97</ele>
        <time>2014-11-30T11:12:22Z</time>
      </trkpt>
      <trkpt lat="47.03105" lon="-1.10661">
        <ele>97</ele>
        <time>2014-11-30T11:12:26Z</time>
      </trkpt>
      <trkpt lat="47.0312" lon="-1.10653">
        <ele>98</ele>
        <time>2014-11-30T11:12:31Z</time>
      </trkpt>
      <trkpt lat="47.03137" lon="-1.10644">
        <ele>96</ele>
        <time>2014-11-30T11:12:35Z</time>
      </trkpt>
      <trkpt lat="47.03154" lon="-1.10636">
        <ele>97</ele>
        <time>2014-11-30T11:12:40Z</time>
      </trkpt>
      <trkpt lat="47.03163" lon="-1.10632">
        <ele>99</ele>
        <time>2014-11-30T11:12:43Z</time>
      </trkpt>
      <trkpt lat="47.03175" lon="-1.10627">
        <ele>99</ele>
        <time>2014-11-30T11:12:47Z</time>
      </trkpt>
      <trkpt lat="47.03191" lon="-1.10621">
        <ele>98</ele>
        <time>2014-11-30T11:12:52Z</time>
      </trkpt>
      <trkpt lat="47.03204" lon="-1.10616">
        <ele>97</ele>
        <time>2014-11-30T11:12:56Z</time>
      </trkpt>
      <trkpt lat="47.03218" lon="-1.10612">
        <ele>98</ele>
        <time>2014-11-30T11:13:00Z</time>
      </trkpt>
      <trkpt lat="47.03227" lon="-1.10609">
        <ele>98</ele>
        <time>2014-11-30T11:13:03Z</time>
      </trkpt>
      <trkpt lat="47.03236" lon="-1.10606">
        <ele>97</ele>
        <time>2014-11-30T11:13:06Z</time>
      </trkpt>
      <trkpt lat="47.03251" lon="-1.10602">
        <ele>99</ele>
        <time>2014-11-30T11:13:11Z</time>
      </trkpt>
      <trkpt lat="47.03262" lon="-1.10599">
        <ele>98</ele>
        <time>2014-11-30T11:13:15Z</time>
      </trkpt>
      <trkpt lat="47.03272" lon="-1.10596">
        <ele>99</ele>
        <time>2014-11-30T11:13:19Z</time>
      </trkpt>
      <trkpt lat="47.03283" lon="-1.10592">
        <ele>100</ele>
        <time>2014-11-30T11:13:23Z</time>
      </trkpt>
      <trkpt lat="47.03293" lon="-1.10588">
        <ele>100</ele>
        <time>2014-11-30T11:13:27Z</time>
      </trkpt>
      <trkpt lat="47.03303" lon="-1.10585">
        <ele>102</ele>
        <time>2014-11-30T11:13:31Z</time>
      </trkpt>
      <trkpt lat="47.03313" lon="-1.10584">
        <ele>103</ele>
        <time>2014-11-30T11:13:35Z</time>
      </trkpt>
      <trkpt lat="47.03323" lon="-1.10583">
        <ele>103</ele>
        <time>2014-11-30T11:13:39Z</time>
      </trkpt>
      <trkpt lat="47.03333" lon="-1.10581">
        <ele>105</ele>
        <time>2014-11-30T11:13:43Z</time>
      </trkpt>
      <trkpt lat="47.03341" lon="-1.10581">
        <ele>105</ele>
        <time>2014-11-30T11:13:47Z</time>
      </trkpt>
      <trkpt lat="47.0335" lon="-1.1058">
        <ele>106</ele>
        <time>2014-11-30T11:13:51Z</time>
      </trkpt>
      <trkpt lat="47.0336" lon="-1.10581">
        <ele>106</ele>
        <time>2014-11-30T11:13:56Z</time>
      </trkpt>
      <trkpt lat="47.0336" lon="-1.10583">
        <ele>107</ele>
        <time>2014-11-30T11:14:31Z</time>
      </trkpt>
      <trkpt lat="47.03382" lon="-1.10581">
        <ele>105</ele>
        <time>2014-11-30T11:14:57Z</time>
      </trkpt>
      <trkpt lat="47.03393" lon="-1.10573">
        <ele>105</ele>
        <time>2014-11-30T11:15:00Z</time>
      </trkpt>
      <trkpt lat="47.03472" lon="-1.10482">
        <ele>113</ele>
        <time>2014-11-30T11:15:28Z</time>
      </trkpt>
      <trkpt lat="47.03481" lon="-1.1048">
        <ele>113</ele>
        <time>2014-11-30T11:15:33Z</time>
      </trkpt>
      <trkpt lat="47.03491" lon="-1.10478">
        <ele>112</ele>
        <time>2014-11-30T11:15:37Z</time>
      </trkpt>
      <trkpt lat="47.03501" lon="-1.10473">
        <ele>112</ele>
        <time>2014-11-30T11:15:42Z</time>
      </trkpt>
      <trkpt lat="47.03503" lon="-1.10474">
        <ele>109</ele>
        <time>2014-11-30T11:16:45Z</time>
      </trkpt>
      <trkpt lat="47.03575" lon="-1.1045">
        <ele>110</ele>
        <time>2014-11-30T11:17:00Z</time>
      </trkpt>
      <trkpt lat="47.03659" lon="-1.10389">
        <ele>107</ele>
        <time>2014-11-30T11:17:05Z</time>
      </trkpt>
      <trkpt lat="47.03677" lon="-1.10385">
        <ele>104</ele>
        <time>2014-11-30T11:17:09Z</time>
      </trkpt>
      <trkpt lat="47.03695" lon="-1.10381">
        <ele>108</ele>
        <time>2014-11-30T11:17:13Z</time>
      </trkpt>
      <trkpt lat="47.03713" lon="-1.10378">
        <ele>106</ele>
        <time>2014-11-30T11:17:17Z</time>
      </trkpt>
      <trkpt lat="47.03732" lon="-1.10377">
        <ele>108</ele>
        <time>2014-11-30T11:17:22Z</time>
      </trkpt>
      <trkpt lat="47.03751" lon="-1.10377">
        <ele>109</ele>
        <time>2014-11-30T11:17:27Z</time>
      </trkpt>
      <trkpt lat="47.03767" lon="-1.10375">
        <ele>110</ele>
        <time>2014-11-30T11:17:31Z</time>
      </trkpt>
      <trkpt lat="47.03782" lon="-1.10373">
        <ele>110</ele>
        <time>2014-11-30T11:17:35Z</time>
      </trkpt>
      <trkpt lat="47.03801" lon="-1.10369">
        <ele>107</ele>
        <time>2014-11-30T11:17:39Z</time>
      </trkpt>
      <trkpt lat="47.03819" lon="-1.10367">
        <ele>106</ele>
        <time>2014-11-30T11:17:43Z</time>
      </trkpt>
      <trkpt lat="47.03839" lon="-1.10362">
        <ele>106</ele>
        <time>2014-11-30T11:17:48Z</time>
      </trkpt>
      <trkpt lat="47.03854" lon="-1.10357">
        <ele>107</ele>
        <time>2014-11-30T11:17:52Z</time>
      </trkpt>
      <trkpt lat="47.03872" lon="-1.10354">
        <ele>108</ele>
        <time>2014-11-30T11:17:56Z</time>
      </trkpt>
      <trkpt lat="47.03888" lon="-1.10354">
        <ele>107</ele>
        <time>2014-11-30T11:18:00Z</time>
      </trkpt>
      <trkpt lat="47.03907" lon="-1.10354">
        <ele>108</ele>
        <time>2014-11-30T11:18:05Z</time>
      </trkpt>
      <trkpt lat="47.03926" lon="-1.10349">
        <ele>108</ele>
        <time>2014-11-30T11:18:10Z</time>
      </trkpt>
      <trkpt lat="47.0395" lon="-1.1034">
        <ele>108</ele>
        <time>2014-11-30T11:18:15Z</time>
      </trkpt>
      <trkpt lat="47.03969" lon="-1.10331">
        <ele>107</ele>
        <time>2014-11-30T11:18:19Z</time>
      </trkpt>
      <trkpt lat="47.03992" lon="-1.10319">
        <ele>106</ele>
        <time>2014-11-30T11:18:24Z</time>
      </trkpt>
      <trkpt lat="47.04009" lon="-1.10313">
        <ele>106</ele>
        <time>2014-11-30T11:18:28Z</time>
      </trkpt>
      <trkpt lat="47.04023" lon="-1.10307">
        <ele>107</ele>
        <time>2014-11-30T11:18:31Z</time>
      </trkpt>
      <trkpt lat="47.04028" lon="-1.10305">
        <ele>108</ele>
        <time>2014-11-30T11:18:41Z</time>
      </trkpt>
      <trkpt lat="47.04093" lon="-1.1028">
        <ele>109</ele>
        <time>2014-11-30T11:18:45Z</time>
      </trkpt>
      <trkpt lat="47.04097" lon="-1.10278">
        <ele>109</ele>
        <time>2014-11-30T11:18:55Z</time>
      </trkpt>
      <trkpt lat="47.04156" lon="-1.10253">
        <ele>111</ele>
        <time>2014-11-30T11:19:00Z</time>
      </trkpt>
      <trkpt lat="47.04182" lon="-1.10246">
        <ele>106</ele>
        <time>2014-11-30T11:19:05Z</time>
      </trkpt>
      <trkpt lat="47.042" lon="-1.1024">
        <ele>104</ele>
        <time>2014-11-30T11:19:09Z</time>
      </trkpt>
      <trkpt lat="47.04224" lon="-1.10231">
        <ele>103</ele>
        <time>2014-11-30T11:19:14Z</time>
      </trkpt>
      <trkpt lat="47.04247" lon="-1.10226">
        <ele>103</ele>
        <time>2014-11-30T11:19:19Z</time>
      </trkpt>
      <trkpt lat="47.04262" lon="-1.1022">
        <ele>101</ele>
        <time>2014-11-30T11:19:22Z</time>
      </trkpt>
      <trkpt lat="47.04285" lon="-1.10211">
        <ele>102</ele>
        <time>2014-11-30T11:19:27Z</time>
      </trkpt>
      <trkpt lat="47.04299" lon="-1.102">
        <ele>102</ele>
        <time>2014-11-30T11:19:32Z</time>
      </trkpt>
      <trkpt lat="47.04313" lon="-1.10193">
        <ele>103</ele>
        <time>2014-11-30T11:19:35Z</time>
      </trkpt>
      <trkpt lat="47.04316" lon="-1.10191">
        <ele>103</ele>
        <time>2014-11-30T11:19:41Z</time>
      </trkpt>
      <trkpt lat="47.04349" lon="-1.10178">
        <ele>102</ele>
        <time>2014-11-30T11:19:46Z</time>
      </trkpt>
      <trkpt lat="47.0436" lon="-1.10172">
        <ele>102</ele>
        <time>2014-11-30T11:19:50Z</time>
      </trkpt>
      <trkpt lat="47.04372" lon="-1.10169">
        <ele>102</ele>
        <time>2014-11-30T11:19:54Z</time>
      </trkpt>
      <trkpt lat="47.04382" lon="-1.10163">
        <ele>104</ele>
        <time>2014-11-30T11:19:58Z</time>
      </trkpt>
      <trkpt lat="47.04393" lon="-1.10158">
        <ele>103</ele>
        <time>2014-11-30T11:20:02Z</time>
      </trkpt>
      <trkpt lat="47.04406" lon="-1.10152">
        <ele>102</ele>
        <time>2014-11-30T11:20:07Z</time>
      </trkpt>
      <trkpt lat="47.0442" lon="-1.10146">
        <ele>102</ele>
        <time>2014-11-30T11:20:12Z</time>
      </trkpt>
      <trkpt lat="47.04433" lon="-1.10138">
        <ele>101</ele>
        <time>2014-11-30T11:20:17Z</time>
      </trkpt>
      <trkpt lat="47.04447" lon="-1.10129">
        <ele>100</ele>
        <time>2014-11-30T11:20:22Z</time>
      </trkpt>
      <trkpt lat="47.04458" lon="-1.10121">
        <ele>99</ele>
        <time>2014-11-30T11:20:26Z</time>
      </trkpt>
      <trkpt lat="47.04468" lon="-1.10114">
        <ele>100</ele>
        <time>2014-11-30T11:20:30Z</time>
      </trkpt>
      <trkpt lat="47.04478" lon="-1.10107">
        <ele>101</ele>
        <time>2014-11-30T11:20:34Z</time>
      </trkpt>
      <trkpt lat="47.0449" lon="-1.10098">
        <ele>102</ele>
        <time>2014-11-30T11:20:39Z</time>
      </trkpt>
      <trkpt lat="47.04503" lon="-1.10089">
        <ele>104</ele>
        <time>2014-11-30T11:20:44Z</time>
      </trkpt>
      <trkpt lat="47.04512" lon="-1.10081">
        <ele>102</ele>
        <time>2014-11-30T11:20:48Z</time>
      </trkpt>
      <trkpt lat="47.04525" lon="-1.1007">
        <ele>101</ele>
        <time>2014-11-30T11:20:53Z</time>
      </trkpt>
      <trkpt lat="47.04535" lon="-1.10062">
        <ele>103</ele>
        <time>2014-11-30T11:20:57Z</time>
      </trkpt>
      <trkpt lat="47.04548" lon="-1.10059">
        <ele>103</ele>
        <time>2014-11-30T11:21:01Z</time>
      </trkpt>
      <trkpt lat="47.04563" lon="-1.10051">
        <ele>104</ele>
        <time>2014-11-30T11:21:06Z</time>
      </trkpt>
      <trkpt lat="47.04575" lon="-1.10042">
        <ele>102</ele>
        <time>2014-11-30T11:21:10Z</time>
      </trkpt>
      <trkpt lat="47.04586" lon="-1.10033">
        <ele>102</ele>
        <time>2014-11-30T11:21:14Z</time>
      </trkpt>
      <trkpt lat="47.04594" lon="-1.10026">
        <ele>102</ele>
        <time>2014-11-30T11:21:17Z</time>
      </trkpt>
      <trkpt lat="47.04605" lon="-1.10015">
        <ele>103</ele>
        <time>2014-11-30T11:21:22Z</time>
      </trkpt>
      <trkpt lat="47.04621" lon="-1.10005">
        <ele>103</ele>
        <time>2014-11-30T11:21:26Z</time>
      </trkpt>
      <trkpt lat="47.04635" lon="-1.09994">
        <ele>101</ele>
        <time>2014-11-30T11:21:31Z</time>
      </trkpt>
      <trkpt lat="47.04648" lon="-1.09983">
        <ele>100</ele>
        <time>2014-11-30T11:21:36Z</time>
      </trkpt>
      <trkpt lat="47.04662" lon="-1.09979">
        <ele>101</ele>
        <time>2014-11-30T11:22:00Z</time>
      </trkpt>
      <trkpt lat="47.04737" lon="-1.09925">
        <ele>105</ele>
        <time>2014-11-30T11:22:04Z</time>
      </trkpt>
      <trkpt lat="47.04753" lon="-1.09913">
        <ele>104</ele>
        <time>2014-11-30T11:22:09Z</time>
      </trkpt>
      <trkpt lat="47.04764" lon="-1.09903">
        <ele>105</ele>
        <time>2014-11-30T11:22:13Z</time>
      </trkpt>
      <trkpt lat="47.04775" lon="-1.09893">
        <ele>106</ele>
        <time>2014-11-30T11:22:17Z</time>
      </trkpt>
      <trkpt lat="47.04788" lon="-1.09888">
        <ele>106</ele>
        <time>2014-11-30T11:22:21Z</time>
      </trkpt>
      <trkpt lat="47.04804" lon="-1.09882">
        <ele>107</ele>
        <time>2014-11-30T11:22:26Z</time>
      </trkpt>
      <trkpt lat="47.04819" lon="-1.09878">
        <ele>106</ele>
        <time>2014-11-30T11:22:31Z</time>
      </trkpt>
      <trkpt lat="47.04828" lon="-1.09874">
        <ele>106</ele>
        <time>2014-11-30T11:22:34Z</time>
      </trkpt>
      <trkpt lat="47.0484" lon="-1.09871">
        <ele>107</ele>
        <time>2014-11-30T11:22:38Z</time>
      </trkpt>
      <trkpt lat="47.0485" lon="-1.09867">
        <ele>107</ele>
        <time>2014-11-30T11:22:42Z</time>
      </trkpt>
      <trkpt lat="47.04859" lon="-1.09851">
        <ele>106</ele>
        <time>2014-11-30T11:22:47Z</time>
      </trkpt>
      <trkpt lat="47.04871" lon="-1.09835">
        <ele>107</ele>
        <time>2014-11-30T11:22:52Z</time>
      </trkpt>
      <trkpt lat="47.04882" lon="-1.09822">
        <ele>107</ele>
        <time>2014-11-30T11:22:57Z</time>
      </trkpt>
      <trkpt lat="47.04898" lon="-1.09807">
        <ele>107</ele>
        <time>2014-11-30T11:23:01Z</time>
      </trkpt>
      <trkpt lat="47.0491" lon="-1.09794">
        <ele>106</ele>
        <time>2014-11-30T11:23:05Z</time>
      </trkpt>
      <trkpt lat="47.0492" lon="-1.09786">
        <ele>106</ele>
        <time>2014-11-30T11:23:08Z</time>
      </trkpt>
      <trkpt lat="47.04932" lon="-1.09783">
        <ele>105</ele>
        <time>2014-11-30T11:23:12Z</time>
      </trkpt>
      <trkpt lat="47.04935" lon="-1.09798">
        <ele>107</ele>
        <time>2014-11-30T11:23:39Z</time>
      </trkpt>
      <trkpt lat="47.04983" lon="-1.0992">
        <ele>106</ele>
        <time>2014-11-30T11:23:43Z</time>
      </trkpt>
      <trkpt lat="47.04999" lon="-1.09946">
        <ele>104</ele>
        <time>2014-11-30T11:23:48Z</time>
      </trkpt>
      <trkpt lat="47.05013" lon="-1.09968">
        <ele>103</ele>
        <time>2014-11-30T11:23:52Z</time>
      </trkpt>
      <trkpt lat="47.05028" lon="-1.09987">
        <ele>99</ele>
        <time>2014-11-30T11:23:57Z</time>
      </trkpt>
      <trkpt lat="47.05034" lon="-1.10005">
        <ele>102</ele>
        <time>2014-11-30T11:24:00Z</time>
      </trkpt>
      <trkpt lat="47.05043" lon="-1.10026">
        <ele>102</ele>
        <time>2014-11-30T11:24:04Z</time>
      </trkpt>
      <trkpt lat="47.05056" lon="-1.10052">
        <ele>101</ele>
        <time>2014-11-30T11:24:09Z</time>
      </trkpt>
      <trkpt lat="47.05059" lon="-1.1006">
        <ele>101</ele>
        <time>2014-11-30T11:24:10Z</time>
      </trkpt>
      <trkpt lat="47.05075" lon="-1.10095">
        <ele>100</ele>
        <time>2014-11-30T11:24:29Z</time>
      </trkpt>
      <trkpt lat="47.05126" lon="-1.10178">
        <ele>102</ele>
        <time>2014-11-30T11:24:41Z</time>
      </trkpt>
      <trkpt lat="47.05145" lon="-1.10208">
        <ele>103</ele>
        <time>2014-11-30T11:24:45Z</time>
      </trkpt>
      <trkpt lat="47.05145" lon="-1.1022">
        <ele>102</ele>
        <time>2014-11-30T11:24:53Z</time>
      </trkpt>
      <trkpt lat="47.05151" lon="-1.10229">
        <ele>103</ele>
        <time>2014-11-30T11:24:59Z</time>
      </trkpt>
      <trkpt lat="47.05157" lon="-1.10239">
        <ele>104</ele>
        <time>2014-11-30T11:25:03Z</time>
      </trkpt>
      <trkpt lat="47.05164" lon="-1.10249">
        <ele>105</ele>
        <time>2014-11-30T11:25:07Z</time>
      </trkpt>
      <trkpt lat="47.05169" lon="-1.10259">
        <ele>104</ele>
        <time>2014-11-30T11:25:10Z</time>
      </trkpt>
      <trkpt lat="47.05178" lon="-1.10275">
        <ele>104</ele>
        <time>2014-11-30T11:25:15Z</time>
      </trkpt>
      <trkpt lat="47.05181" lon="-1.10294">
        <ele>104</ele>
        <time>2014-11-30T11:25:20Z</time>
      </trkpt>
      <trkpt lat="47.05173" lon="-1.10306">
        <ele>103</ele>
        <time>2014-11-30T11:25:24Z</time>
      </trkpt>
      <trkpt lat="47.05158" lon="-1.10308">
        <ele>103</ele>
        <time>2014-11-30T11:25:28Z</time>
      </trkpt>
      <trkpt lat="47.05137" lon="-1.10311">
        <ele>102</ele>
        <time>2014-11-30T11:25:32Z</time>
      </trkpt>
      <trkpt lat="47.05119" lon="-1.10315">
        <ele>102</ele>
        <time>2014-11-30T11:25:37Z</time>
      </trkpt>
      <trkpt lat="47.05092" lon="-1.10322">
        <ele>101</ele>
        <time>2014-11-30T11:25:41Z</time>
      </trkpt>
      <trkpt lat="47.05064" lon="-1.10328">
        <ele>100</ele>
        <time>2014-11-30T11:25:46Z</time>
      </trkpt>
      <trkpt lat="47.05043" lon="-1.10334">
        <ele>102</ele>
        <time>2014-11-30T11:25:50Z</time>
      </trkpt>
      <trkpt lat="47.05029" lon="-1.10334">
        <ele>102</ele>
        <time>2014-11-30T11:25:53Z</time>
      </trkpt>
      <trkpt lat="47.05008" lon="-1.10335">
        <ele>100</ele>
        <time>2014-11-30T11:25:57Z</time>
      </trkpt>
      <trkpt lat="47.04984" lon="-1.10334">
        <ele>100</ele>
        <time>2014-11-30T11:26:02Z</time>
      </trkpt>
      <trkpt lat="47.04963" lon="-1.10338">
        <ele>101</ele>
        <time>2014-11-30T11:26:06Z</time>
      </trkpt>
      <trkpt lat="47.04958" lon="-1.10339">
        <ele>101</ele>
        <time>2014-11-30T11:26:11Z</time>
      </trkpt>
      <trkpt lat="47.04911" lon="-1.10346">
        <ele>103</ele>
        <time>2014-11-30T11:26:16Z</time>
      </trkpt>
      <trkpt lat="47.04891" lon="-1.10349">
        <ele>102</ele>
        <time>2014-11-30T11:26:20Z</time>
      </trkpt>
      <trkpt lat="47.04867" lon="-1.10355">
        <ele>102</ele>
        <time>2014-11-30T11:26:25Z</time>
      </trkpt>
      <trkpt lat="47.04854" lon="-1.10363">
        <ele>102</ele>
        <time>2014-11-30T11:26:28Z</time>
      </trkpt>
      <trkpt lat="47.04835" lon="-1.10382">
        <ele>102</ele>
        <time>2014-11-30T11:26:32Z</time>
      </trkpt>
      <trkpt lat="47.04814" lon="-1.10406">
        <ele>101</ele>
        <time>2014-11-30T11:26:37Z</time>
      </trkpt>
      <trkpt lat="47.04797" lon="-1.10426">
        <ele>101</ele>
        <time>2014-11-30T11:26:41Z</time>
      </trkpt>
      <trkpt lat="47.04784" lon="-1.1045">
        <ele>101</ele>
        <time>2014-11-30T11:26:45Z</time>
      </trkpt>
      <trkpt lat="47.04779" lon="-1.10469">
        <ele>102</ele>
        <time>2014-11-30T11:26:48Z</time>
      </trkpt>
      <trkpt lat="47.04775" lon="-1.10496">
        <ele>101</ele>
        <time>2014-11-30T11:26:53Z</time>
      </trkpt>
      <trkpt lat="47.04768" lon="-1.10519">
        <ele>102</ele>
        <time>2014-11-30T11:26:56Z</time>
      </trkpt>
      <trkpt lat="47.04762" lon="-1.10539">
        <ele>102</ele>
        <time>2014-11-30T11:27:00Z</time>
      </trkpt>
      <trkpt lat="47.04755" lon="-1.10561">
        <ele>103</ele>
        <time>2014-11-30T11:27:05Z</time>
      </trkpt>
      <trkpt lat="47.04745" lon="-1.10595">
        <ele>103</ele>
        <time>2014-11-30T11:27:10Z</time>
      </trkpt>
      <trkpt lat="47.04737" lon="-1.1062">
        <ele>102</ele>
        <time>2014-11-30T11:27:14Z</time>
      </trkpt>
      <trkpt lat="47.04729" lon="-1.10646">
        <ele>100</ele>
        <time>2014-11-30T11:27:18Z</time>
      </trkpt>
      <trkpt lat="47.04721" lon="-1.10681">
        <ele>100</ele>
        <time>2014-11-30T11:27:23Z</time>
      </trkpt>
      <trkpt lat="47.04713" lon="-1.10706">
        <ele>100</ele>
        <time>2014-11-30T11:27:27Z</time>
      </trkpt>
      <trkpt lat="47.04712" lon="-1.10727">
        <ele>99</ele>
        <time>2014-11-30T11:27:30Z</time>
      </trkpt>
      <trkpt lat="47.0471" lon="-1.10756">
        <ele>101</ele>
        <time>2014-11-30T11:27:45Z</time>
      </trkpt>
      <trkpt lat="47.0471" lon="-1.10827">
        <ele>100</ele>
        <time>2014-11-30T11:27:45Z</time>
      </trkpt>
      <trkpt lat="47.04709" lon="-1.10833">
        <ele>100</ele>
        <time>2014-11-30T11:28:16Z</time>
      </trkpt>
      <trkpt lat="47.04691" lon="-1.11003">
        <ele>103</ele>
        <time>2014-11-30T11:28:16Z</time>
      </trkpt>
      <trkpt lat="47.04687" lon="-1.11065">
        <ele>102</ele>
        <time>2014-11-30T11:29:00Z</time>
      </trkpt>
      <trkpt lat="47.04576" lon="-1.11016">
        <ele>98</ele>
        <time>2014-11-30T11:29:00Z</time>
      </trkpt>
      <trkpt lat="47.04541" lon="-1.10985">
        <ele>94</ele>
        <time>2014-11-30T11:29:48Z</time>
      </trkpt>
      <trkpt lat="47.04534" lon="-1.10981">
        <ele>98</ele>
        <time>2014-11-30T11:29:56Z</time>
      </trkpt>
      <trkpt lat="47.04528" lon="-1.10982">
        <ele>98</ele>
        <time>2014-11-30T11:30:00Z</time>
      </trkpt>
      <trkpt lat="47.0451" lon="-1.10992">
        <ele>99</ele>
        <time>2014-11-30T11:30:05Z</time>
      </trkpt>
      <trkpt lat="47.04499" lon="-1.11012">
        <ele>97</ele>
        <time>2014-11-30T11:30:10Z</time>
      </trkpt>
      <trkpt lat="47.0449" lon="-1.11029">
        <ele>99</ele>
        <time>2014-11-30T11:30:14Z</time>
      </trkpt>
      <trkpt lat="47.04482" lon="-1.11054">
        <ele>96</ele>
        <time>2014-11-30T11:30:19Z</time>
      </trkpt>
      <trkpt lat="47.04476" lon="-1.11074">
        <ele>99</ele>
        <time>2014-11-30T11:30:23Z</time>
      </trkpt>
      <trkpt lat="47.04464" lon="-1.11098">
        <ele>97</ele>
        <time>2014-11-30T11:30:28Z</time>
      </trkpt>
      <trkpt lat="47.04452" lon="-1.11115">
        <ele>99</ele>
        <time>2014-11-30T11:30:32Z</time>
      </trkpt>
      <trkpt lat="47.04447" lon="-1.11124">
        <ele>101</ele>
        <time>2014-11-30T11:30:34Z</time>
      </trkpt>
      <trkpt lat="47.04435" lon="-1.11152">
        <ele>97</ele>
        <time>2014-11-30T11:30:40Z</time>
      </trkpt>
      <trkpt lat="47.04434" lon="-1.11157">
        <ele>97</ele>
        <time>2014-11-30T11:30:41Z</time>
      </trkpt>
      <trkpt lat="47.04408" lon="-1.11187">
        <ele>93</ele>
        <time>2014-11-30T11:30:49Z</time>
      </trkpt>
      <trkpt lat="47.04374" lon="-1.11232">
        <ele>93</ele>
        <time>2014-11-30T11:31:19Z</time>
      </trkpt>
      <trkpt lat="47.04326" lon="-1.11236">
        <ele>94</ele>
        <time>2014-11-30T11:31:23Z</time>
      </trkpt>
      <trkpt lat="47.04332" lon="-1.11227">
        <ele>97</ele>
        <time>2014-11-30T11:31:30Z</time>
      </trkpt>
      <trkpt lat="47.04339" lon="-1.11219">
        <ele>100</ele>
        <time>2014-11-30T11:31:47Z</time>
      </trkpt>
      <trkpt lat="47.04341" lon="-1.11207">
        <ele>102</ele>
        <time>2014-11-30T11:32:22Z</time>
      </trkpt>
      <trkpt lat="47.04335" lon="-1.11161">
        <ele>88</ele>
        <time>2014-11-30T11:32:51Z</time>
      </trkpt>
      <trkpt lat="47.04287" lon="-1.11232">
        <ele>83</ele>
        <time>2014-11-30T11:32:56Z</time>
      </trkpt>
      <trkpt lat="47.04281" lon="-1.11242">
        <ele>85</ele>
        <time>2014-11-30T11:33:08Z</time>
      </trkpt>
      <trkpt lat="47.04277" lon="-1.11249">
        <ele>87</ele>
        <time>2014-11-30T11:33:14Z</time>
      </trkpt>
      <trkpt lat="47.04269" lon="-1.11252">
        <ele>86</ele>
        <time>2014-11-30T11:33:25Z</time>
      </trkpt>
      <trkpt lat="47.04262" lon="-1.11257">
        <ele>85</ele>
        <time>2014-11-30T11:33:30Z</time>
      </trkpt>
      <trkpt lat="47.04257" lon="-1.11269">
        <ele>86</ele>
        <time>2014-11-30T11:33:37Z</time>
      </trkpt>
      <trkpt lat="47.04253" lon="-1.11279">
        <ele>88</ele>
        <time>2014-11-30T11:33:43Z</time>
      </trkpt>
      <trkpt lat="47.04248" lon="-1.11289">
        <ele>90</ele>
        <time>2014-11-30T11:33:50Z</time>
      </trkpt>
      <trkpt lat="47.04246" lon="-1.11301">
        <ele>88</ele>
        <time>2014-11-30T11:33:58Z</time>
      </trkpt>
      <trkpt lat="47.04245" lon="-1.11318">
        <ele>87</ele>
        <time>2014-11-30T11:34:02Z</time>
      </trkpt>
      <trkpt lat="47.04243" lon="-1.11339">
        <ele>87</ele>
        <time>2014-11-30T11:34:06Z</time>
      </trkpt>
      <trkpt lat="47.04237" lon="-1.1136">
        <ele>86</ele>
        <time>2014-11-30T11:34:10Z</time>
      </trkpt>
      <trkpt lat="47.04228" lon="-1.11403">
        <ele>84</ele>
        <time>2014-11-30T11:34:15Z</time>
      </trkpt>
      <trkpt lat="47.04211" lon="-1.11447">
        <ele>81</ele>
        <time>2014-11-30T11:34:20Z</time>
      </trkpt>
      <trkpt lat="47.0419" lon="-1.11489">
        <ele>81</ele>
        <time>2014-11-30T11:34:25Z</time>
      </trkpt>
      <trkpt lat="47.04184" lon="-1.11494">
        <ele>81</ele>
        <time>2014-11-30T11:34:30Z</time>
      </trkpt>
      <trkpt lat="47.04139" lon="-1.11536">
        <ele>80</ele>
        <time>2014-11-30T11:34:34Z</time>
      </trkpt>
      <trkpt lat="47.04127" lon="-1.11572">
        <ele>79</ele>
        <time>2014-11-30T11:34:38Z</time>
      </trkpt>
      <trkpt lat="47.04126" lon="-1.11611">
        <ele>78</ele>
        <time>2014-11-30T11:34:42Z</time>
      </trkpt>
      <trkpt lat="47.04133" lon="-1.11652">
        <ele>78</ele>
        <time>2014-11-30T11:34:47Z</time>
      </trkpt>
      <trkpt lat="47.04113" lon="-1.11674">
        <ele>79</ele>
        <time>2014-11-30T11:34:52Z</time>
      </trkpt>
      <trkpt lat="47.04092" lon="-1.11684">
        <ele>79</ele>
        <time>2014-11-30T11:34:56Z</time>
      </trkpt>
      <trkpt lat="47.04072" lon="-1.11678">
        <ele>78</ele>
        <time>2014-11-30T11:35:00Z</time>
      </trkpt>
      <trkpt lat="47.04055" lon="-1.11652">
        <ele>81</ele>
        <time>2014-11-30T11:35:05Z</time>
      </trkpt>
      <trkpt lat="47.04048" lon="-1.11644">
        <ele>81</ele>
        <time>2014-11-30T11:35:07Z</time>
      </trkpt>
      <trkpt lat="47.04029" lon="-1.11621">
        <ele>83</ele>
        <time>2014-11-30T11:35:12Z</time>
      </trkpt>
      <trkpt lat="47.04018" lon="-1.11612">
        <ele>84</ele>
        <time>2014-11-30T11:35:16Z</time>
      </trkpt>
      <trkpt lat="47.04015" lon="-1.1161">
        <ele>84</ele>
        <time>2014-11-30T11:35:24Z</time>
      </trkpt>
      <trkpt lat="47.04005" lon="-1.11608">
        <ele>86</ele>
        <time>2014-11-30T11:35:24Z</time>
      </trkpt>
      <trkpt lat="47.03936" lon="-1.11749">
        <ele>69</ele>
        <time>2014-11-30T11:35:55Z</time>
      </trkpt>
      <trkpt lat="47.03924" lon="-1.11771">
        <ele>69</ele>
        <time>2014-11-30T11:36:00Z</time>
      </trkpt>
      <trkpt lat="47.03916" lon="-1.11779">
        <ele>68</ele>
        <time>2014-11-30T11:36:04Z</time>
      </trkpt>
      <trkpt lat="47.03908" lon="-1.11775">
        <ele>67</ele>
        <time>2014-11-30T11:36:09Z</time>
      </trkpt>
      <trkpt lat="47.03905" lon="-1.11764">
        <ele>67</ele>
        <time>2014-11-30T11:36:14Z</time>
      </trkpt>
      <trkpt lat="47.03901" lon="-1.11753">
        <ele>67</ele>
        <time>2014-11-30T11:36:20Z</time>
      </trkpt>
      <trkpt lat="47.039" lon="-1.11749">
        <ele>66</ele>
        <time>2014-11-30T11:36:26Z</time>
      </trkpt>
      <trkpt lat="47.03876" lon="-1.11734">
        <ele>72</ele>
        <time>2014-11-30T11:37:27Z</time>
      </trkpt>
      <trkpt lat="47.03854" lon="-1.11741">
        <ele>70</ele>
        <time>2014-11-30T11:37:27Z</time>
      </trkpt>
      <trkpt lat="47.03853" lon="-1.11741">
        <ele>69</ele>
        <time>2014-11-30T11:38:00Z</time>
      </trkpt>
      <trkpt lat="47.03822" lon="-1.11739">
        <ele>73</ele>
        <time>2014-11-30T11:38:00Z</time>
      </trkpt>
      <trkpt lat="47.03784" lon="-1.1163">
        <ele>94</ele>
        <time>2014-11-30T11:38:29Z</time>
      </trkpt>
      <trkpt lat="47.03782" lon="-1.11623">
        <ele>95</ele>
        <time>2014-11-30T11:38:39Z</time>
      </trkpt>
      <trkpt lat="47.03767" lon="-1.11578">
        <ele>97</ele>
        <time>2014-11-30T11:38:44Z</time>
      </trkpt>
      <trkpt lat="47.0376" lon="-1.11559">
        <ele>97</ele>
        <time>2014-11-30T11:38:49Z</time>
      </trkpt>
      <trkpt lat="47.03755" lon="-1.1154">
        <ele>100</ele>
        <time>2014-11-30T11:38:54Z</time>
      </trkpt>
      <trkpt lat="47.03744" lon="-1.11534">
        <ele>97</ele>
        <time>2014-11-30T11:38:59Z</time>
      </trkpt>
      <trkpt lat="47.03735" lon="-1.11548">
        <ele>99</ele>
        <time>2014-11-30T11:39:03Z</time>
      </trkpt>
      <trkpt lat="47.03725" lon="-1.11571">
        <ele>99</ele>
        <time>2014-11-30T11:39:08Z</time>
      </trkpt>
      <trkpt lat="47.03716" lon="-1.11594">
        <ele>99</ele>
        <time>2014-11-30T11:39:12Z</time>
      </trkpt>
      <trkpt lat="47.03711" lon="-1.11604">
        <ele>99</ele>
        <time>2014-11-30T11:39:14Z</time>
      </trkpt>
      <trkpt lat="47.03708" lon="-1.11609">
        <ele>99</ele>
        <time>2014-11-30T11:39:26Z</time>
      </trkpt>
      <trkpt lat="47.0367" lon="-1.11674">
        <ele>101</ele>
        <time>2014-11-30T11:39:29Z</time>
      </trkpt>
      <trkpt lat="47.03661" lon="-1.11694">
        <ele>100</ele>
        <time>2014-11-30T11:39:33Z</time>
      </trkpt>
      <trkpt lat="47.03649" lon="-1.11706">
        <ele>100</ele>
        <time>2014-11-30T11:39:37Z</time>
      </trkpt>
      <trkpt lat="47.03629" lon="-1.11709">
        <ele>99</ele>
        <time>2014-11-30T11:39:42Z</time>
      </trkpt>
      <trkpt lat="47.03615" lon="-1.11718">
        <ele>98</ele>
        <time>2014-11-30T11:39:47Z</time>
      </trkpt>
      <trkpt lat="47.03604" lon="-1.11719">
        <ele>98</ele>
        <time>2014-11-30T11:39:51Z</time>
      </trkpt>
      <trkpt lat="47.03597" lon="-1.11733">
        <ele>101</ele>
        <time>2014-11-30T11:39:55Z</time>
      </trkpt>
      <trkpt lat="47.03592" lon="-1.11749">
        <ele>101</ele>
        <time>2014-11-30T11:39:59Z</time>
      </trkpt>
      <trkpt lat="47.03593" lon="-1.11753">
        <ele>101</ele>
        <time>2014-11-30T11:40:30Z</time>
      </trkpt>
      <trkpt lat="47.03578" lon="-1.11752">
        <ele>107</ele>
        <time>2014-11-30T11:40:31Z</time>
      </trkpt>
      <trkpt lat="47.03572" lon="-1.11762">
        <ele>101</ele>
        <time>2014-11-30T11:41:43Z</time>
      </trkpt>
      <trkpt lat="47.03581" lon="-1.11761">
        <ele>100</ele>
        <time>2014-11-30T11:44:45Z</time>
      </trkpt>
      <trkpt lat="47.03587" lon="-1.11752">
        <ele>99</ele>
        <time>2014-11-30T11:44:57Z</time>
      </trkpt>
      <trkpt lat="47.03592" lon="-1.11742">
        <ele>86</ele>
        <time>2014-11-30T11:45:04Z</time>
      </trkpt>
      <trkpt lat="47.03595" lon="-1.11731">
        <ele>88</ele>
        <time>2014-11-30T11:45:11Z</time>
      </trkpt>
      <trkpt lat="47.03602" lon="-1.11724">
        <ele>100</ele>
        <time>2014-11-30T11:45:21Z</time>
      </trkpt>
      <trkpt lat="47.03611" lon="-1.11727">
        <ele>99</ele>
        <time>2014-11-30T11:45:55Z</time>
      </trkpt>
      <trkpt lat="47.03619" lon="-1.11722">
        <ele>101</ele>
        <time>2014-11-30T11:46:03Z</time>
      </trkpt>
      <trkpt lat="47.03627" lon="-1.11716">
        <ele>98</ele>
        <time>2014-11-30T11:46:09Z</time>
      </trkpt>
      <trkpt lat="47.03635" lon="-1.11711">
        <ele>98</ele>
        <time>2014-11-30T11:46:15Z</time>
      </trkpt>
      <trkpt lat="47.03643" lon="-1.11709">
        <ele>97</ele>
        <time>2014-11-30T11:46:21Z</time>
      </trkpt>
      <trkpt lat="47.03651" lon="-1.11706">
        <ele>98</ele>
        <time>2014-11-30T11:46:27Z</time>
      </trkpt>
      <trkpt lat="47.0366" lon="-1.11703">
        <ele>99</ele>
        <time>2014-11-30T11:46:34Z</time>
      </trkpt>
      <trkpt lat="47.03666" lon="-1.1171">
        <ele>100</ele>
        <time>2014-11-30T11:46:41Z</time>
      </trkpt>
      <trkpt lat="47.03674" lon="-1.11714">
        <ele>100</ele>
        <time>2014-11-30T11:46:47Z</time>
      </trkpt>
      <trkpt lat="47.03681" lon="-1.11717">
        <ele>99</ele>
        <time>2014-11-30T11:46:52Z</time>
      </trkpt>
      <trkpt lat="47.03687" lon="-1.11725">
        <ele>100</ele>
        <time>2014-11-30T11:46:58Z</time>
      </trkpt>
      <trkpt lat="47.03692" lon="-1.11734">
        <ele>99</ele>
        <time>2014-11-30T11:47:05Z</time>
      </trkpt>
      <trkpt lat="47.03697" lon="-1.11745">
        <ele>99</ele>
        <time>2014-11-30T11:47:23Z</time>
      </trkpt>
      <trkpt lat="47.03698" lon="-1.11752">
        <ele>98</ele>
        <time>2014-11-30T11:51:19Z</time>
      </trkpt>
      <trkpt lat="47.03698" lon="-1.11752">
        <ele>98</ele>
        <time>2014-11-30T11:51:19Z</time>
      </trkpt>
    </trkseg>
  </trk>
</gpx>